     2              OBSERVATION DATA    G (GPS)             RINEX VERSION / TYPE
ASRINEXO V2.9.9 LH AIUB 01-FEB- 1 17:17                     PGM / RUN BY / DATE
BERN ASHTECH Z-12                                           COMMENT
BIT 2 OF LLI (+4) FLAGS DATA COLLECTED UNDER "AS" CONDITION COMMENT
USNB                                                        MARKER NAME
                                                            OBSERVER / AGENCY
? ASHTECH Z-XII3 1D15                                       REC # / TYPE / VERS
? CHOKE RING                                                ANT # / TYPE
  1112162.6700 -4842868.8000  3985511.8900                  APPROX POSITION XYZ
        0.0000        0.0000        0.0000                  ANTENNA: DELTA H/E/N
     1     1                                                WAVELENGTH FACT L1/2
     5    C1    L1    L2    P1    P2                        # / TYPES OF OBSERV
  2000     7    13     0     0   30.000000                  TIME OF FIRST OBS
                                                            END OF HEADER
 00  7 13  0  0 30.0000000  0  8 21 25 05 11 29 23 30 15
  20824673.240   -22700171.168 9 -17665691.99447  20824676.581    20824686.0034
  21295108.181   -21082627.793 9 -16161673.82047  21295111.110    21295118.7764
  23070411.426   -10259553.580 8  -7971682.15146  23070413.827    23070425.3034
  23805397.704    -4993558.214 7  -3867571.36245  23805398.695    23805409.4794
  20619096.589   -22621598.600 9 -17613937.64848  20619100.471    20619107.9084
  24244527.056    -4319594.038 7  -3350553.65344  24244528.874    24244540.9744
  21428570.722   -16672529.607 9 -12977516.04547  21428574.054    21428581.9264
  23596130.468    -4512374.979 8  -3479515.45145  23596131.183    23596142.0364
 00  7 13  0  1  0.0000000  0  8 21 25 05 11 29 23 30 15
  20836919.766   -22635818.363 9 -17615546.99447  20836922.655    20836931.5634
  21286000.850   -21130488.744 9 -16198968.04147  21286003.360    21286011.1014
  23082444.056   -10196307.806 8  -7922399.79446  23082448.921    23082460.5674
  23808219.386    -4978680.256 7  -3855978.19745  23808230.764    23808240.8044
  20622476.209   -22603843.688 9 -17600102.66448  20622479.133    20622486.5824
  24265007.026    -4212011.660 7  -3266723.53844  24264999.502    24265014.3194
  21427374.129   -16678812.863 9 -12982412.08247  21427378.128    21427386.1184
  23614430.518    -4416169.081 8  -3404549.96945  23614437.011    23614449.4484
 00  7 13  0  1 30.0000000  0  8 21 25 05 11 29 23 30 15
  20849266.616   -22570952.102 9 -17565001.88247  20849266.742    20849275.4274
  21276952.844   -21178021.326 9 -16236006.37847  21276957.901    21276965.4124
  23094566.833   -10132600.973 8  -7872758.16646  23094571.872    23094582.9484
  23811153.569    -4963319.706 8  -3844008.96845  23811154.304    23811164.1584
  20625903.821   -22585837.157 9 -17586071.61048  20625905.745    20625913.1784
  24285509.893    -4104278.340 7  -3182775.77144  24285501.943    24285516.4704
  21426295.706   -16684486.852 9 -12986833.36347  21426298.670    21426306.4034
  23632764.577    -4319849.471 8  -3329495.90145  23632766.370    23632778.4874
 00  7 13  0  2  0.0000000  0  8 21 25 05 11 29 23 30 15
  20861704.281   -22505573.790 9 -17514057.78547  20861708.044    20861716.6744
  21267972.698   -21225225.271 9 -16272788.66147  21267975.410    21267982.9534
  23106779.685   -10068435.170 8  -7822758.88246  23106783.619    23106792.5534
  23814166.628    -4947477.783 8  -3831664.64045  23814169.270    23814178.9404
  20629376.955   -22567578.718 9 -17571844.26648  20629379.950    20629387.7904
  24306019.885    -3996396.203 7  -3098712.03944  24306028.515    24306044.9624
  21425331.423   -16689551.148 9 -12990779.56347  21425335.126    21425342.3654
  23651114.162    -4223419.657 8  -3254355.95945  23651117.975    23651129.1834
 00  7 13  0  2 30.0000000  0  8 21 25 05 11 29 23 30 15
  20874242.121   -22439684.778 9 -17462715.72847  20874245.926    20874254.4304
  21259053.289   -21272100.624 9 -16309314.88647  21259055.495    21259063.0114
  23119075.724   -10003812.297 8  -7772403.42746  23119079.924    23119090.3714
  23817273.001    -4931155.550 8  -3818946.06045  23817274.478    23817283.6294
  20632899.278   -22549067.795 9 -17557420.18148  20632902.648    20632910.3174
  24326587.462    -3888367.382 7  -3014534.06444  24326586.970    24326602.5034
  21424481.982   -16694005.457 9 -12994250.44447  21424487.456    21424494.5704
  23669491.597    -4126882.968 8  -3179132.73345  23669487.865    23669500.5474
 00  7 13  0  3  0.0000000  0  8 21 25 05 11 29 23 30 15
  20886878.252   -22373286.766 9 -17410977.05247  20886881.070    20886889.8074
  21250194.816   -21318647.213 9 -16345584.91847  21250197.832    21250205.7544
  23131459.439    -9938734.399 8  -7721693.43846  23131464.459    23131474.6384
  23820470.462    -4914354.718 8  -3805854.53545  23820472.292    23820482.2574
  20636471.155   -22530303.784 9 -17542798.89448  20636473.461    20636480.8644
  24347165.289    -3780194.214 7  -2930243.58044  24347171.720    24347187.5034
  21423753.952   -16697849.306 9 -12997245.64847  21423756.126    21423763.6214
  23687864.525    -4030242.339 7  -3103828.54345  23687876.681    23687890.2394
 00  7 13  0  3 30.0000000  0  8 21 25 05 11 29 23 30 15
  20899611.716   -22306381.641 9 -17358843.22347  20899613.188    20899621.4114
  21241400.010   -21364865.188 9 -16381598.89647  21241402.927    21241410.7484
  23143933.071    -9873203.655 8  -7670630.57346  23143934.206    23143944.3514
  23823754.286    -4897076.852 7  -3792391.32545  23823758.952    23823768.7094
  20640088.454   -22511286.308 9 -17527980.09348  20640092.433    20640099.7354
  24367777.657    -3671878.377 7  -2845841.88144  24367780.899    24367800.1514
  21423136.169   -16701082.417 9 -12999764.95847  21423140.661    21423148.5784
  23706295.472    -3933501.228 8  -3028446.02845  23706287.764    23706299.4154
 00  7 13  0  4  0.0000000  0  7 21 25 05 11 29 30 15
  20912437.166   -22238971.023 9 -17306315.49847  20912440.708    20912449.2004
  21232668.835   -21410754.397 9 -16417356.70247  21232670.501    21232678.0104
  23156488.553    -9807222.018 8  -7619216.37446  23156490.189    23156500.2294
  23827137.294    -4879323.013 8  -3778557.21245  23827138.065    23827147.7824
  20643756.793   -22492014.676 9 -17512963.25247  20643759.501    20643766.6464
  21422639.302   -16703704.690 9 -13001808.28247  21422641.431    21422649.2054
  23724708.709    -3836662.929 7  -2952987.79145  23724714.167    23724727.8324
 00  7 13  0  4 30.0000000  0  7 21 25 05 11 29 30 15
  20925360.296   -22171056.599 9 -17253395.20947  20925364.235    20925373.3494
  21223997.754   -21456314.951 9 -16452858.41047  21224000.758    21224008.0604
  23169133.272    -9740791.622 8  -7567452.48546  23169132.135    23169141.6544
  23830601.801    -4861094.629 8  -3764353.33845  23830607.655    23830617.6084
  20647472.011   -22472488.512 9 -17497748.07147  20647475.126    20647482.4954
  21422257.274   -16705715.662 9 -13003375.25347  21422258.822    21422266.3014
  23743160.390    -3739730.839 8  -2877456.44745  23743161.063    23743172.1874
 00  7 13  0  5  0.0000000  0  7 21 25 05 11 29 30 15
  20938381.426   -22102639.815 9 -17200083.47347  20938383.453    20938392.6984
  21215390.589   -21501547.102 9 -16488104.22647  21215393.002    21215400.9244
  23181850.521    -9673914.478 8  -7515340.46846  23181857.382    23181867.6144
  23834164.909    -4842393.236 8  -3749780.85045  23834166.332    23834174.9064
  20651235.956   -22452707.365 9 -17482334.20547  20651239.297    20651246.9724
  21421990.207   -16707115.141 9 -13004465.74647  21421992.163    21422000.3964
  23761623.491    -3642708.092 8  -2801854.49145  23761623.184    23761636.3294
 00  7 13  0  5 30.0000000  0  7 21 25 05 11 29 30 15
  20951494.414   -22033722.282 9 -17146381.54847  20951497.849    20951507.1334
  21206844.049   -21546450.624 9 -16523093.95347  21206848.234    21206856.0694
  23194663.959    -9606592.694 8  -7462881.99746  23194667.493    23194678.5564
  23837812.549    -4823220.199 8  -3734840.85445  23837815.318    23837823.6134
  20655047.048   -22432670.653 9 -17466721.20248  20655052.458    20655060.0734
  21421840.379   -16707902.875 9 -13005079.56447  21421842.420    21421850.5054
  23780101.464    -3545598.089 8  -2726184.54245  23780103.586    23780116.2704
 00  7 13  0  6  0.0000000  0  7 21 25 05 11 29 30 15
  20964706.665   -21964305.477 9 -17092290.58047  20964708.167    20964716.4984
  21198361.588   -21591025.258 9 -16557827.41148  21198366.020    21198373.8254
  23207563.181    -9538828.607 8  -7410078.86846  23207564.105    23207573.4334
  23841549.086    -4803577.010 8  -3719534.52045  23841552.590    23841562.4944
  20658911.189   -22412377.913 9 -17450908.69848  20658913.971    20658921.6184
  21421806.470   -16708078.844 9 -13005216.68247  21421808.861    21421817.2214
  23798594.718    -3448403.904 8  -2650448.98545  23798599.281    23798611.6784
 00  7 13  0  6 30.0000000  0  7 21 25 05 11 29 30 15
  20978007.881   -21894391.655 9 -17037812.31247  20978012.105    20978020.6214
  21189939.869   -21635271.205 9 -16592304.75348  21189946.381    21189954.0484
  23220540.950    -9470624.571 8  -7356932.90246  23220542.646    23220552.4934
  23845370.314    -4783465.306 8  -3703863.07845  23845379.619    23845388.4704
  20662820.098   -22391828.611 9 -17434896.27048  20662824.180    20662832.0974
  21421888.962   -16707642.644 9 -13004876.78047  21421891.985    21421899.9414
  23817107.495    -3351128.587 8  -2574650.19745  23817110.695    23817122.5374
 00  7 13  0  7  0.0000000  0  7 21 25 05 11 29 30 15
  20991406.276   -21823982.154 9 -16982947.80047  20991410.287    20991418.9624
  21181586.031   -21679188.574 9 -16626526.05848  21181588.986    21181596.7344
  23233603.904    -9401982.674 8  -7303445.76446  23233604.540    23233615.4804
  23849289.241    -4762886.436 8  -3687827.64145  23849295.635    23849305.6044
  20666780.139   -22371022.352 9 -17418683.61148  20666783.755    20666791.1784
  21422086.449   -16706594.309 9 -13004059.88847  21422091.598    21422099.2814
  23835632.507    -3253775.428 8  -2498790.76545  23835635.687    23835646.7804
 00  7 13  0  7 30.0000000  0  7 21 25 05 11 29 30 15
  21004901.412   -21753078.876 9 -16927698.53047  21004902.617    21004911.8304
  21173293.051   -21722777.714 9 -16660491.60048  21173294.603    21173301.7994
  23246749.462    -9332904.876 8  -7249618.97746  23246749.980    23246760.1134
  23853296.505    -4741842.151 8  -3671429.52745  23853299.807    23853309.9334
  20670788.953   -22349958.503 9 -17402270.24248  20670792.248    20670799.5144
  21422404.808   -16704933.668 9 -13002765.87347  21422407.316    21422415.2104
  23854167.856    -3156347.881 8  -2422873.33845  23854174.957    23854188.2094
 00  7 13  0  8  0.0000000  0  7 21 25 05 11 29 30 15
  21018486.285   -21681683.270 9 -16872065.63747  21018488.944    21018497.7404
  21165058.974   -21766038.493 9 -16694201.28248  21165062.201    21165069.5954
  23259976.138    -9263393.591 8  -7195454.39046  23259978.398    23259987.3334
  23857385.619    -4720333.864 8  -3654669.85145  23857393.081    23857402.3394
  20674847.590   -22328636.560 9 -17385655.75548  20674849.329    20674856.8114
  21422836.732   -16702660.558 9 -13000994.61747  21422839.885    21422848.4084
  23872727.872    -3058849.198 8  -2346900.53045  23872728.324    23872741.4644
 00  7 13  0  8 30.0000000  0  7 21 25 05 11 29 30 15
  21032164.979   -21609797.095 9 -16816050.48447  21032168.555    21032177.7254
  21156889.176   -21808970.812 9 -16727655.00148  21156892.318    21156900.0034
  23273285.474    -9193450.998 8  -7140953.70246  23273287.577    23273297.1244
  23861569.218    -4698362.947 7  -3637549.67745  23861573.659    23861583.7364
  20678953.771   -22307056.090 9 -17368839.82047  20678956.135    20678963.3364
  21423384.626   -16699774.912 9 -12998746.06247  21423389.394    21423397.2834
  23891291.006    -2961282.720 8  -2270874.88745  23891294.849    23891307.6434
 00  7 13  0  9  0.0000000  0  7 21 25 05 11 29 30 15
  21045939.707   -21537422.121 9 -16759654.44847  21045941.655    21045950.2354
  21148782.932   -21851574.903 9 -16760852.96848  21148785.094    21148792.5434
  23286673.246    -9123079.366 8  -7086118.71346  23286678.710    23286688.5294
  23865842.136    -4675931.182 8  -3620070.43145  23865843.586    23865851.0134
  20683109.294   -22285216.659 9 -17351822.09547  20683112.102    20683119.3684
  21424051.457   -16696276.787 9 -12996020.23847  21424054.844    21424062.7964
  23909871.328    -2863651.471 8  -2194798.76845  23909873.731    23909886.8834
 00  7 13  0  9 30.0000000  0  7 21 25 05 11 29 30 15
  21059804.881   -21464560.534 9 -16702879.22647  21059806.228    21059815.2184
  21140735.765   -21893850.942 9 -16793795.31347  21140739.676    21140747.3384
  23300149.519    -9052280.747 8  -7030951.02846  23300150.436    23300162.0314
  23870191.685    -4653040.066 7  -3602233.21945  23870198.691    23870207.4204
  20687314.517   -22263117.674 9 -17334602.12447  20687317.261    20687324.9164
  21424831.771   -16692166.178 9 -12992817.16147  21424836.599    21424845.3124
  23928458.345    -2765958.740 8  -2118674.76045  23928464.735    23928476.9484
 00  7 13  0 10  0.0000000  0  7 21 25 05 11 29 30 15
  21073759.451   -21391214.377 9 -16645726.42247  21073763.776    21073772.7864
  21132754.373   -21935798.769 9 -16826481.91647  21132757.143    21132764.9894
  23313703.051    -8981057.501 8  -6975452.47646  23313705.623    23313715.4764
  23874640.904    -4629691.346 8  -3584039.44745  23874641.877    23874651.9274
  20691568.466   -22240758.523 9 -17317179.42247  20691571.839    20691579.5844
  21425733.946   -16687443.065 9 -12989136.80847  21425735.889    21425743.8884
  23947059.078    -2668207.557 8  -2042505.19245  23947065.911    23947078.9284
 00  7 13  0 10 30.0000000  0  7 21 25 05 11 29 30 15
  21087811.168   -21317384.758 9 -16588196.90647  21087812.935    21087821.7744
  21124834.884   -21977418.874 9 -16858913.14948  21124837.402    21124845.2544
  23327338.662    -8909411.653 8  -6919624.59146  23327338.700    23327349.0064
  23879169.869    -4605886.688 8  -3565490.40445  23879172.177    23879181.5384
  20695872.200   -22218138.841 9 -17299553.71147  20695876.445    20695884.1084
  21426747.960   -16682107.481 9 -12984979.20447  21426751.203    21426759.2964
  23965673.170    -2570401.316 7  -1966292.74845  23965678.157    23965690.6724
 00  7 13  0 11  0.0000000  0  7 21 25 05 11 29 30 15
  21101950.434   -21243073.967 9 -16530292.43747  21101954.057    21101962.8564
  21116975.277   -22018710.915 9 -16891088.74748  21116979.707    21116987.4384
  23341046.717    -8837345.650 8  -6863469.32246  23341052.106    23341063.0604
  23883786.134    -4581627.618 7  -3546587.25445  23883788.907    23883798.0464
  20700226.036   -22195258.096 9 -17281724.57447  20700230.316    20700238.3734
  21427879.521   -16676159.542 9 -12980344.44847  21427882.917    21427890.9704
  23984298.372    -2472542.979 8  -1890039.65445  23984300.254    23984311.3604
 00  7 13  0 11 30.0000000  0  7 21 25 05 11 29 30 15
  21116183.848   -21168283.808 9 -16472014.44347  21116185.894    21116194.6384
  21109180.577   -22059675.108 9 -16923008.87848  21109184.452    21109192.3554
  23354841.865    -8764861.839 8  -6806988.46946  23354844.384    23354856.5834
  23888491.316    -4556915.995 8  -3527331.49345  23888490.583    23888500.8284
  20704630.595   -22172115.953 9 -17263691.75147  20704634.331    20704642.4774
  21429129.191   -16669599.401 9 -12975232.65147  21429131.394    21429139.1624
  24002928.480    -2374636.007 7  -1813748.69245  24002930.494    24002944.1784
 00  7 13  0 12  0.0000000  0  7 21 25 05 11 29 30 15
  21130506.750   -21093016.419 9 -16413364.56547  21130509.136    21130517.4434
  21101447.887   -22100312.058 9 -16954674.00148  21101451.496    21101459.4254
  23368713.444    -8691962.647 8  -6750183.96146  23368718.532    23368729.1324
  23893271.237    -4531753.450 7  -3507724.36145  23893279.404    23893289.9134
  20709084.139   -22148711.635 9 -17245454.63747  20709087.998    20709095.9704
  21430494.786   -16662427.027 9 -12969643.78947  21430496.566    21430503.9744
  24021566.110    -2276683.476 7  -1737422.23445  24021571.992    24021583.0974
 00  7 13  0 12 30.0000000  0  7 21 25 05 11 29 30 15
  21144916.972   -21017273.464 8 -16354344.12647  21144921.963    21144931.2574
  21093776.618   -22140621.572 9 -16986083.99348  21093780.994    21093788.2154
  23382667.699    -8618650.075 8  -6693057.34146  23382669.243    23382680.1974
  23898153.005    -4506141.707 8  -3487767.24945  23898153.385    23898163.1254
  20713589.937   -22125045.045 9 -17227013.15347  20713592.026    20713599.2644
  21431974.615   -16654642.787 9 -12963578.14747  21431977.361    21431985.5724
  24040216.061    -2178688.350 8  -1661062.55045  24040218.597    24040232.2504
 00  7 13  0 13  0.0000000  0  7 21 25 05 11 29 30 15
  21159422.536   -20941056.777 9 -16294954.54747  21159425.837    21159435.1094
  21086169.393   -22180603.383 9 -17017238.62747  21086172.620    21086179.8414
  23396692.381    -8544926.410 8  -6635610.38646  23396698.409    23396708.8324
  23903108.750    -4480082.449 7  -3467461.35645  23903110.382    23903122.7854
  20718142.404   -22101115.296 9 -17208366.60847  20718145.655    20718152.8644
  21433571.329   -16646246.759 9 -12957035.78347  21433574.966    21433583.3564
  24058870.751    -2080653.890 8  -1584672.25645  24058874.858    24058887.7224
 00  7 13  0 13 30.0000000  0  7 21 25 05 11 29 30 15
  21174017.598   -20864368.677 9 -16235197.63447  21174019.622    21174028.0684
  21078623.858   -22220257.944 9 -17048138.25848  21078626.653    21078633.9644
  23410802.158    -8470793.984 8  -6577844.91346  23410804.645    23410815.9264
  23908154.925    -4453577.509 7  -3446808.18045  23908156.574    23908165.0304
  20722745.760   -22076922.038 9 -17189514.73047  20722749.176    20722756.8554
  21435286.894   -16637239.205 9 -12950016.90947  21435289.469    21435297.2004
  24077530.872    -1982583.475 8  -1508253.95145  24077536.967    24077549.6204
 00  7 13  0 14  0.0000000  0  7 21 25 05 11 29 30 15
  21188699.994   -20787210.868 9 -16175074.71647  21188702.180    21188710.9454
  21071140.564   -22259585.679 9 -17078783.24048  21071142.704    21071150.0894
  23424992.839    -8396255.249 8  -6519762.81846  23424989.018    23425000.0264
  23913280.727    -4426628.543 8  -3425809.03345  23913284.461    23913291.9604
  20727400.242   -22052464.721 9 -17170457.08947  20727403.144    20727410.7574
  21437116.210   -16627620.477 9 -12942521.79347  21437119.733    21437127.5794
  24096201.145    -1884480.275 8  -1431810.09445  24096205.318    24096218.7424
 00  7 13  0 14 30.0000000  0  7 21 25 05 11 29 30 15
  21203469.897   -20709585.302 9 -16114587.30947  21203473.608    21203482.2174
  21063718.450   -22298586.370 9 -17109173.37548  21063721.265    21063728.4344
  23439247.703    -8321312.588 8  -6461366.00346  23439250.201    23439261.7314
  23918492.848    -4399237.524 7  -3404465.41945  23918495.566    23918505.6934
  20732105.043   -22027743.019 9 -17151193.44247  20732107.743    20732115.3034
  21439063.847   -16617390.486 9 -12934550.37147  21439066.441    21439074.3654
  24114872.463    -1786347.350 7  -1355343.09145  24114878.620    24114893.4364
 00  7 13  0 15  0.0000000  0  7 21 25 05 11 29 30 15
  21218329.910   -20631494.367 8 -16053737.28147  21218333.611    21218343.1104
  21056357.267   -22337260.364 9 -17139308.93148  21056361.872    21056369.0844
  23453586.396    -8245968.281 8  -6402656.23246  23453588.255    23453598.4004
  23923790.985    -4371406.016 8  -3382778.56945  23923792.444    23923802.5944
  20736859.313   -22002756.296 9 -17131723.28447  20736862.571    20736870.0644
  21441127.038   -16606549.776 9 -12926103.06947  21441129.350    21441136.9714
  24133555.565    -1688187.845 7  -1278855.35045  24133559.374    24133571.4744
 00  7 13  0 15 30.0000000  0  7 21 25 05 11 29 30 15
  21233279.401   -20552939.903 8 -15992526.07247  21233282.306    21233291.3694
  21049061.856   -22375608.014 9 -17169190.19248  21049064.529    21049072.0124
  23468000.084    -8170224.563 8  -6343635.20146  23468001.446    23468011.8874
  23929174.262    -4343135.905 8  -3360749.93045  23929172.419    23929180.7654
  20741665.597   -21977504.145 9 -17112046.29447  20741668.219    20741675.6534
  21443303.967   -16595098.634 9 -12917180.11147  21443308.482    21443316.2554
  24152238.010    -1590004.918 7  -1202349.36245  24152242.770    24152254.9574
 00  7 13  0 16  0.0000000  0  7 21 25 05 11 29 30 15
  21248314.980   -20473923.879 9 -15930955.20347  21248318.331    21248327.7774
  21041825.240   -22413629.420 9 -17198817.23848  21041829.131    21041837.0654
  23482487.286    -8094083.558 8  -6284304.57945  23482491.450    23482501.0824
  23934630.641    -4314429.021 7  -3338380.99145  23934634.950    23934644.2164
  20746522.495   -21951986.139 9 -17092162.14647  20746524.442    20746531.7154
  21445601.536   -16583037.614 9 -12907781.91547  21445603.674    21445611.6044
  24170927.754    -1491801.806 8  -1125827.66045  24170929.685    24170944.5534
 00  7 13  0 16 30.0000000  0  7 21 25 05 11 29 30 15
  21263441.214   -20394448.436 9 -15869026.33647  21263442.589    21263451.3034
  21034652.966   -22451324.869 9 -17228190.29348  21034655.914    21034663.6294
  23497053.320    -8017547.719 8  -6224666.31345  23497054.370    23497065.4194
  23940179.892    -4285287.279 7  -3315673.14645  23940179.839    23940189.4354
  20751426.788   -21926201.585 9 -17072070.30447  20751430.692    20751438.2934
  21448013.737   -16570366.851 9 -12897908.59247  21448015.033    21448022.5564
  24189618.232    -1393581.457 8  -1049292.51545  24189621.612    24189634.4294
 00  7 13  0 17  0.0000000  0  7 21 25 05 11 29 30 15
  21278652.898   -20314515.697 8 -15806741.12847  21278652.913    21278662.1284
  21027541.617   -22488694.128 9 -17257309.17848  21027544.960    21027552.3854
  23511684.029    -7940619.615 8  -6164722.41446  23511693.570    23511705.4644
  23945803.245    -4255712.373 7  -3292627.85545  23945807.810    23945819.4814
  20756384.948   -21900150.251 9 -17051770.57447  20756387.765    20756395.8704
  21450539.384   -16557086.721 9 -12887560.43147  21450541.814    21450550.4184
  24208310.300    -1295347.038 8   -972746.38545  24208315.014    24208327.2384
 00  7 13  0 17 30.0000000  0  7 21 25 05 11 29 30 15
  21293946.387   -20234127.746 8 -15744101.21647  21293950.167    21293959.1394
  21020491.247   -22525737.449 9 -17286174.08448  21020496.042    21020503.0804
  23526403.971    -7863301.692 8  -6104474.76246  23526407.403    23526418.0494
  23951511.662    -4225706.586 7  -3269246.76045  23951517.955    23951527.7894
  20761393.275   -21873831.549 9 -17031262.51247  20761396.174    20761404.1444
  21453184.071   -16543197.452 9 -12876737.63147  21453184.707    21453193.0174
  24227008.485    -1197101.758 8   -896191.79845  24227010.422    24227023.7994
 00  7 13  0 18  0.0000000  0  7 21 25 05 11 29 30 15
  21309332.243   -20153286.501 8 -15681108.09247  21309334.161    21309343.6704
  21013504.844   -22562455.449 9 -17314785.48648  21013508.622    21013515.5854
  23541193.318    -7785596.315 8  -6043925.15046  23541194.089    23541204.8354
  23957310.454    -4195271.501 7  -3245531.16845  23957309.067    23957321.5014
  20766452.922   -21847244.935 9 -17010545.67947  20766455.296    20766463.0324
  21455939.187   -16528699.907 9 -12865440.84547  21455943.693    21455951.5204
  24245701.481    -1098848.586 8   -819631.07945  24245707.658    24245721.5994
 00  7 13  0 18 30.0000000  0  7 21 25 05 11 29 30 15
  21324797.561   -20071993.843 9 -15617763.22747  21324803.876    21324812.9454
  21006581.636   -22598848.027 9 -17343143.32148  21006583.207    21006590.6084
  23556045.187    -7707505.741 8  -5983075.40645  23556054.459    23556065.0754
  23963178.096    -4164409.101 8  -3221482.57345  23963182.498    23963191.6214
  20771561.258   -21820390.098 9 -16989619.84347  20771565.385    20771573.2974
  21458816.068   -16513594.371 9 -12853670.29747  21458818.174    21458825.9794
  24264403.923    -1000590.645 8   -743066.66845  24264405.357    24264419.4474
 00  7 13  0 19  0.0000000  0  7 21 25 05 11 29 30 15
  21340355.111   -19990252.249 8 -15554068.53647  21340358.573    21340367.9434
  20999714.091   -22634915.706 9 -17371247.98448  20999719.457    20999727.3184
  23570982.871    -7629032.468 8  -5921927.45145  23570987.385    23570998.5894
  23969130.166    -4133121.316 7  -3197102.50945  23969135.765    23969144.9084
  20776723.932   -21793266.347 9 -16968484.47147  20776727.040    20776734.6304
  21461803.402   -16497881.045 9 -12841426.14947  21461808.377    21461816.3904
  24283103.607     -902331.116 8   -666501.02145  24283103.648    24283117.1424
 00  7 13  0 19 30.0000000  0  7 21 25 05 11 29 30 15
  21355996.774   -19908063.997 9 -15490025.81047  21355998.558    21356007.6004
  20992915.459   -22670658.587 9 -17399099.56048  20992918.156    20992925.7334
  23585989.243    -7550178.940 8  -5860483.18546  23585992.594    23586003.6984
  23975163.192    -4101410.176 7  -3172392.56745  23975171.408    23975181.4414
  20781934.085   -21765873.384 9 -16947139.31747  20781939.499    20781947.3284
  21464911.963   -16481560.831 9 -12828709.10147  21464914.137    21464922.1534
  24301796.339     -804073.224 8   -589936.62345  24301802.882    24301815.2104
 00  7 13  0 20  0.0000000  0  7 21 25 05 11 29 30 15
  21371717.836   -19825431.371 8 -15425636.79847  21371723.068    21371732.1384
  20986176.475   -22706076.560 9 -17426697.96248  20986178.559    20986185.6334
  23601070.478    -7470947.528 8  -5798744.47145  23601070.154    23601080.7854
  23981281.375    -4069277.691 7  -3147354.27345  23981285.495    23981297.0024
  20787201.435   -21738210.556 9 -16925583.88147  20787203.832    20787211.2924
  21468130.145   -16464634.311 9 -12815519.61447  21468135.275    21468143.4284
  24320497.238     -705819.834 8   -513375.73845  24320498.584    24320512.5634
 00  7 13  0 20 30.0000000  0  7 21 25 05 11 29 30 15
  21387526.591   -19742356.108 8 -15360902.88847  21387531.618    21387540.5244
  20979496.911   -22741170.262 9 -17454043.68148  20979500.274    20979507.6704
  23616218.295    -7391340.634 8  -5736713.18745  23616219.142    23616229.2864
  23987475.649    -4036725.824 7  -3121989.24545  23987479.891    23987490.8104
  20792517.093   -21710277.560 9 -16903817.92947  20792519.199    20792526.9994
  21471468.011   -16447102.086 9 -12801858.13547  21471471.085    21471479.4734
  24339196.843     -607574.006 8   -436820.77345  24339194.717    24339208.5064
 00  7 13  0 21  0.0000000  0  7 21 25 05 11 29 30 15
  21403421.767   -19658840.751 8 -15295826.02447  21403423.891    21403432.6914
  20972879.543   -22775940.125 9 -17481137.05648  20972883.597    20972891.2924
  23631431.586    -7311360.792 8  -5674391.27645  23631439.092    23631449.0184
  23993758.146    -4003756.569 7  -3096298.96245  23993755.101    23993764.7844
  20797882.100   -21682073.887 9 -16881841.05947  20797885.944    20797894.2814
  21474919.266   -16428964.538 9 -12787724.98247  21474922.742    21474930.2744
  24357885.158     -509338.834 8   -360274.08145  24357889.097    24357901.1214
 00  7 13  0 21 30.0000000  0  7 21 25 05 11 29 30 15
  21419397.586   -19574887.345 8 -15230407.83847  21419400.086    21419409.5314
  20966326.116   -22810386.247 9 -17507978.17748  20966328.397    20966336.0924
  23646731.396    -7231010.190 8  -5611780.46346  23646728.965    23646739.8124
  24000100.853    -3970371.644 7  -3070284.79745  24000105.086    24000116.9244
  20803301.960   -21653599.163 9 -16859652.98647  20803304.535    20803312.6554
  21478487.314   -16410222.271 9 -12773120.62847  21478489.539    21478497.0884
  24376580.225     -411117.519 8   -283738.20645  24376580.806    24376594.2654
 00  7 13  0 22  0.0000000  0  7 21 25 05 11 29 30 15
  21435455.541   -19490498.013 8 -15164649.99147  21435458.818    21435468.3864
  20959830.097   -22844508.764 9 -17534567.12848  20959835.032    20959842.7034
  23662086.015    -7150291.521 8  -5548882.84745  23662089.720    23662099.9094
  24006528.679    -3936573.440 7  -3043948.58145  24006537.291    24006547.9514
  20808771.603   -21624852.757 9 -16837253.21247  20808775.137    20808782.8314
  21482170.184   -16390876.205 9 -12758045.77547  21482171.064    21482178.3704
  24395264.966     -312913.080 8   -207215.47345  24395267.815    24395281.7214
 00  7 13  0 22 30.0000000  0  7 21 25 05 11 29 30 15
  21451595.947   -19405675.180 8 -15098554.34647  21451600.228    21451609.9044
  20953399.831   -22878308.045 9 -17560904.20548  20953403.456    20953411.1024
  23677514.756    -7069207.103 8  -5485700.24645  23677518.881    23677529.7864
  24013041.884    -3902363.988 7  -3017291.92845  24013047.276    24013059.0244
  20814293.700   -21595834.283 9 -16814641.43147  20814297.429    20814304.8104
  21485964.190   -16370926.874 9 -12742500.84747  21485966.777    21485974.5394
  24413949.106     -214728.166 8   -130707.95345  24413950.781    24413965.4134
 00  7 13  0 23  0.0000000  0  7 21 25 05 11 29 30 15
  21467818.351   -19320420.832 8 -15032122.44147  21467823.511    21467832.7144
  20947029.250   -22911784.505 9 -17586989.74248  20947033.142    20947040.8484
  23693019.201    -6987759.455 8  -5422234.58045  23693018.008    23693028.4484
  24019629.649    -3867745.121 7  -2990316.17745  24019637.225    24019646.4054
  20819868.729   -21566543.262 9 -16791817.27947  20819871.458    20819878.5564
  21489872.626   -16350375.166 9 -12726486.54147  21489877.505    21489885.3804
  24432623.157     -116566.025 7    -54218.17545  24432630.854    24432645.3624
 00  7 13  0 23 30.0000000  0  7 21 25 05 11 29 30 15
  21484125.672   -19234737.452 8 -14965356.23947  21484128.568    21484138.0094
  20940721.666   -22944938.031 9 -17612823.63748  20940724.389    20940732.0774
  23708580.054    -6905950.967 8  -5358487.74045  23708585.821    23708596.9014
  24026298.223    -3832718.970 7  -2963023.13245  24026300.670    24026312.5454
  20825494.931   -21536979.369 9 -16768780.49547  20825497.450    20825504.6444
  21493898.139   -16329221.602 9 -12710003.25747  21493903.128    21493911.1714
  24451295.971      -18429.897 7     22251.36145  24451304.936    24451320.0814
 00  7 13  0 24  0.0000000  0  7 21 25 05 11 29 30 15
  21500511.145   -19148626.677 8 -14898256.98747  21500514.558    21500524.3334
  20934473.638   -22977769.204 9 -17638406.34648  20934476.743    20934484.4164
  23724220.218    -6823784.184 8  -5294461.72545  23724222.356    23724232.7554
  24033034.574    -3797287.854 7  -2935414.50545  24033042.933    24033054.0224
  20831172.723   -21507142.058 9 -16745530.66447  20831175.491    20831182.6424
  21498037.845   -16307466.575 9 -12693051.30347  21498042.994    21498050.8974
  24469975.828       79677.216 8     98698.23945  24469974.852    24469989.2344
 00  7 13  0 24 30.0000000  0  8 21 25 05 11 29 20 30 15
  21516978.008   -19062091.674 8 -14830827.17447  21516981.990    21516991.3654
  20928286.484   -23010278.204 9 -17663738.01448  20928290.365    20928298.0914
  23739921.647    -6741261.706 8  -5230158.56745  23739925.504    23739935.8704
  24039862.253    -3761453.615 8  -2907491.77745  24039862.989    24039872.2204
  20836904.831   -21477030.755 9 -16722067.33547  20836905.643    20836912.6984
  24671537.143    -2398097.67017  -1842963.61555  24671542.112    24671550.5374
  21502293.345   -16285111.346 9 -12675631.65547  21502297.133    21502304.7874
  24488632.283      177752.527 7    175120.37545  24488638.412    24488653.6734
 00  7 13  0 25  0.0000000  0  8 21 25 05 11 29 20 30 15
  21533524.067   -18975134.828 8 -14763068.66047  21533528.800    21533538.5894
  20922162.156   -23042465.736 9 -17688819.18748  20922165.531    20922172.7244
  23755693.433    -6658385.814 8  -5165580.01145  23755696.289    23755707.3084
  24046757.690    -3725218.578 7  -2879256.69245  24046757.987    24046767.8034
  20842684.075   -21446645.159 9 -16698390.27047  20842687.835    20842694.9414
  24651846.015    -2501555.905 7  -1923580.27145  24651852.696    24651863.4684
  21506661.577   -16262156.686 9 -12657744.91347  21506665.172    21506673.2234
  24507288.432      275792.948 7    251515.30245  24507295.215    24507310.3274
 00  7 13  0 25 30.0000000  0  8 21 25 05 11 29 20 30 15
  21550154.476   -18887758.362 8 -14694983.15247  21550156.548    21550165.5834
  20916098.956   -23074331.811 9 -17713649.88348  20916101.627    20916108.7154
  23771523.330    -6575158.994 8  -5100727.98545  23771533.237    23771543.9504
  24053725.449    -3688584.808 8  -2850710.99345  24053729.030    24053739.3214
  20848517.860   -21415984.898 9 -16674499.17347  20848522.095    20848529.3254
  24632194.146    -2604842.480 7  -2004063.18045  24632199.469    24632208.2574
  21511145.624   -16238603.433 9 -12639391.74447  21511147.394    21511155.2674
  24525945.203      373795.492 7    327880.68645  24525943.809    24525959.1374
 00  7 13  0 26  0.0000000  0  7 21 25 05 11 29 20 30
  21566858.575   -18799964.284 8 -14626572.24047  21566862.805    21566872.8164
  20910095.232   -23105876.808 9 -17738230.39148  20910098.535    20910105.6824
  23787426.476    -6491583.777 8  -5035604.47145  23787436.392    23787448.2034
  24060770.816    -3651554.442 7  -2821856.19745  24060775.392    24060786.8114
  20854405.925   -21385049.424 9 -16650393.62647  20854408.800    20854416.1044
  24612587.198    -2707954.714 8  -2084410.29245  24612576.384    24612586.4334
  21515741.357   -16214452.276 9 -12620572.67447  21515743.524    21515751.5274
 00  7 13  0 26 30.0000000  0  7 21 25 05 11 29 20 30
  21583642.678   -18711755.156 8 -14557837.91947  21583649.291    21583658.1854
  20904153.945   -23137101.303 9 -17762561.15548  20904156.759    20904164.0634
  23803409.141    -6407662.525 8  -4970211.34545  23803406.167    23803418.3014
  24067895.676    -3614129.416 7  -2792693.89745  24067898.845    24067908.1724
  20860344.868   -21353838.313 9 -16626073.30547  20860347.785    20860355.1584
  24592988.240    -2810890.015 7  -2164619.52445  24592989.574    24592999.4354
  21520451.305   -16189704.111 9 -12601288.40847  21520453.193    21520460.2684
 00  7 13  0 27  0.0000000  0  7 21 25 05 11 29 20 30
  21600508.483   -18623133.878 8 -14488782.44447  21600513.260    21600522.7104
  20898272.928   -23168005.560 9 -17786642.37048  20898275.769    20898283.3594
  23819433.747    -6323397.829 8  -4904550.59845  23819441.727    23819453.1384
  24075077.709    -3576312.376 7  -2763226.15645  24075092.422    24075104.5994
  20866335.493   -21322350.962 9 -16601537.72447  20866339.304    20866347.2854
  24573431.677    -2913645.786 7  -2244688.87145  24573436.922    24573444.1834
  21525273.269   -16164360.038 9 -12581539.79647  21525275.564    21525283.9374
 00  7 13  0 27 30.0000000  0  7 21 25 05 11 29 20 30
  21617452.655   -18534101.805 8 -14419406.88047  21617455.200    21617464.9914
  20892450.163   -23198589.602 9 -17810474.06548  20892455.848    20892463.4534
  23835545.216    -6238792.228 8  -4838624.18745  23835542.111    23835552.6764
  24082369.604    -3538105.272 8  -2733454.39645  24082366.458    24082374.5714
  20872382.239   -21290587.150 9 -16576786.71747  20872384.488    20872391.5304
  24553916.190    -3016219.518 7  -2324616.34945  24553915.905    24553925.8924
  21530206.597   -16138420.800 9 -12561327.42247  21530211.333    21530219.3334
 00  7 13  0 28  0.0000000  0  7 21 25 05 11 29 20 30
  21634472.614   -18444661.950 8 -14349713.54546  21634475.894    21634483.7724
  20886693.915   -23228853.918 9 -17834056.63548  20886697.051    20886704.5104
  23851701.064    -6153848.073 8  -4772433.99145  23851707.019    23851717.6184
  24089712.752    -3499510.394 7  -2703380.49945  24089708.593    24089720.4524
  20878478.159   -21258546.407 9 -16551819.92447  20878481.383    20878489.1634
  24534431.204    -3118608.609 7  -2404399.94645  24534432.110    24534442.4624
  21535259.768   -16111887.507 9 -12540652.14547  21535260.683    21535268.3394
 00  7 13  0 28 30.0000000  0  7 21 25 05 11 29 20 30
  21651570.049   -18354816.696 8 -14279704.29846  21651572.447    21651581.5944
  20880996.800   -23258798.806 9 -17857390.30248  20880998.747    20881006.0904
  23867934.168    -6068568.188 8  -4705982.19645  23867935.714    23867945.0094
  24097123.437    -3460529.721 7  -2673006.00745  24097126.367    24097137.1584
  20884627.403   -21226228.291 9 -16526636.99847  20884631.081    20884638.9864
  24514981.600    -3220810.329 7  -2484037.57845  24514983.872    24514994.0334
  21540419.432   -16084760.900 9 -12519514.54347  21540422.787    21540430.3084
 00  7 13  0 29  0.0000000  0  7 21 25 05 11 29 20 30
  21668741.223   -18264568.239 8 -14209380.90146  21668745.982    21668755.4864
  20875356.306   -23288424.406 9 -17880475.16848  20875361.108    20875368.4404
  23884224.798    -5982954.982 8  -4639270.63445  23884226.479    23884236.4994
  24104615.041    -3421165.803 7  -2642332.87945  24104618.953    24104627.7594
  20890830.152   -21193632.413 9 -16501237.63647  20890833.722    20890841.8334
  24495565.952    -3322822.033 7  -2563527.10945  24495571.115    24495581.1324
  21545696.040   -16057042.272 9 -12497915.62447  21545697.290    21545705.0134
 00  7 13  0 29 30.0000000  0  7 21 25 05 11 29 20 30
  21685992.995   -18173918.534 8 -14138744.83946  21685996.271    21686005.1184
  20869780.302   -23317731.574 9 -17903311.91048  20869783.947    20869791.3594
  23900581.449    -5897010.971 8  -4572301.30845  23900581.087    23900591.5524
  24112173.165    -3381420.697 7  -2611362.69545  24112180.682    24112191.9164
  20897088.105   -21160758.354 9 -16475621.51147  20897089.594    20897097.8014
  24476192.573    -3424641.036 7  -2642866.55945  24476197.185    24476204.2904
  21551080.985   -16028732.455 9 -12475856.04947  21551084.534    21551092.0574
 00  7 13  0 30  0.0000000  0  7 21 25 05 11 29 20 30
  21703321.786   -18082870.837 8 -14067798.66247  21703322.205    21703331.6484
  20864263.953   -23346720.346 9 -17925900.56048  20864267.526    20864274.5064
  23917002.008    -5810738.479 8  -4505076.03745  23916998.180    23917009.1104
  24119814.831    -3341296.579 7  -2580097.17145  24119816.147    24119827.1474
  20903393.406   -21127605.493 9 -16449788.12947  20903398.209    20903406.5354
  24456865.519    -3526264.958 8  -2722054.00445  24456858.261    24456866.8574
  21556581.300   -15999832.385 9 -12453336.53547  21556584.353    21556591.3234
 00  7 13  0 30 30.0000000  0  7 21 25 05 11 29 20 30
  21720721.087   -17991427.508 8 -13996544.18246  21720723.357    21720731.6934
  20858808.051   -23375391.216 9 -17948241.47748  20858811.741    20858818.7564
  23933464.623    -5724140.252 8  -4437596.95245  23933476.642    23933487.7644
  24127514.142    -3300795.876 7  -2548538.26345  24127521.892    24127533.3574
  20909758.048   -21094173.578 9 -16423737.30947  20909760.580    20909768.2144
  24437556.875    -3627691.084 8  -2801087.29645  24437557.162    24437565.4774
  21562195.370   -15970343.354 9 -12430358.09247  21562195.829    21562203.2784
 00  7 13  0 31  0.0000000  0  7 21 25 05 11 29 20 30
  21738197.449   -17899590.973 8 -13924983.32546  21738199.776    21738208.0314
  20853411.567   -23403744.387 9 -17970334.84148  20853416.221    20853423.5644
  23950013.545    -5637218.980 8  -4369866.15845  23950017.859    23950028.4344
  24135305.075    -3259920.991 8  -2516687.75045  24135303.109    24135311.6064
  20916172.201   -21060462.488 9 -16397468.94347  20916175.552    20916183.1874
  24418286.160    -3728916.647 8  -2879964.35545  24418294.692    24418303.2414
  21567916.398   -15940266.673 9 -12406921.73247  21567918.888    21567926.5934
 00  7 13  0 31 30.0000000  0  7 21 25 05 11 29 20 30
  21755746.074   -17807363.606 8 -13853117.91546  21755749.982    21755759.0994
  20848077.043   -23431780.516 9 -17992181.17048  20848081.326    20848088.3824
  23966618.424    -5549977.055 8  -4301885.49545  23966618.820    23966629.7114
  24143148.288    -3218674.284 8  -2484547.48745  24143150.718    24143160.5824
  20922638.814   -21026471.315 9 -16370982.33347  20922644.118    20922651.6614
  24399062.863    -3829939.176 7  -2958683.14945  24399069.927    24399079.6864
  21573751.382   -15909603.164 9 -12383028.10347  21573754.313    21573762.2494
 00  7 13  0 32  0.0000000  0  7 21 25 05 11 29 20 30
  21773373.188   -17714747.587 8 -13780949.65846  21773373.756    21773383.1224
  20842804.244   -23459500.287 9 -18013780.97248  20842806.360    20842813.6894
  23983280.745    -5462417.009 8  -4233656.93845  23983280.501    23983292.1434
  24151068.380    -3177057.716 7  -2452119.04245  24151070.012    24151080.5364
  20929164.463   -20992199.928 9 -16344277.37647  20929165.765    20929173.3664
  24379879.495    -3930756.033 7  -3037241.67445  24379883.765    24379895.2864
  21579699.527   -15878353.755 9 -12358677.92847  21579700.746    21579708.6764
 00  7 13  0 32 30.0000000  0  7 21 25 05 11 29 20 30
  21791067.045   -17621745.725 8 -13708480.75146  21791070.786    21791081.5304
  20837588.894   -23486903.762 9 -18035134.31948  20837591.458    20837598.7994
  23999998.131    -5374541.347 8  -4165182.42745  24000002.768    24000014.2374
  24159053.091    -3135073.778 7  -2419404.32845  24159059.041    24159070.1824
  20935736.677   -20957647.789 9 -16317353.65547  20935740.840    20935748.5514
  24360738.414    -4031364.368 7  -3115637.72845  24360739.906    24360750.3604
  21585753.661   -15846519.836 9 -12333872.29447  21585758.490    21585766.6344
 00  7 13  0 33  0.0000000  0  7 21 25 05 11 29 20 30
  21808836.846   -17528360.324 8 -13635713.00946  21808841.849    21808851.9164
  20832432.189   -23513990.910 9 -18056241.17548  20832436.862    20832444.1514
  24016787.606    -5286352.604 8  -4096463.94745  24016784.923    24016794.9694
  24167112.478    -3092724.745 7  -2386405.12645  24167119.359    24167127.2374
  20942366.497   -20922814.722 9 -16290211.01447  20942369.403    20942377.0114
  24341627.619    -4131761.504 7  -3193869.17145  24341634.358    24341646.0194
  21591925.078   -15814102.665 9 -12308612.17847  21591927.246    21591935.2564
 00  7 13  0 33 30.0000000  0  7 21 25 05 11 29 20 30
  21826685.794   -17434593.776 8 -13562648.24046  21826685.162    21826695.6504
  20827340.571   -23540762.684 9 -18077102.27948  20827342.767    20827349.7764
  24033614.505    -5197853.414 7  -4027503.60345  24033625.544    24033636.5134
  24175240.245    -3050013.021 8  -2353123.31145  24175246.651    24175257.0024
  20949047.716   -20887700.169 9 -16262849.03947  20949051.441    20949058.9904
  24322570.874    -4231945.058 7  -3271934.18145  24322570.833    24322582.2754
  21598202.579   -15781103.330 9 -12282898.42347  21598207.203    21598214.8854
 00  7 13  0 34  0.0000000  0  7 21 25 05 11 29 20 30
  21844598.224   -17340449.114 8 -13489288.85546  21844601.331    21844610.7694
  20822304.118   -23567219.444 9 -18097717.92948  20822308.102    20822315.0154
  24050531.422    -5109046.192 7  -3958303.24145  24050524.891    24050536.5204
  24183442.770    -3006941.041 7  -2319560.78845  24183442.536    24183452.6314
  20955783.158   -20852303.688 9 -16235267.37747  20955786.942    20955794.6044
  24303549.186    -4331912.341 7  -3349830.70945  24303547.000    24303557.4984
  21604590.101   -15747523.132 9 -12256732.05747  21604597.220    21604604.7324
 00  7 13  0 34 30.0000000  0  7 21 25 05 11 29 20 30
  21862581.746   -17245928.718 8 -13415636.68046  21862587.292    21862597.4174
  20817331.177   -23593361.470 9 -18118088.32848  20817333.314    20817340.4824
  24067483.485    -5019933.489 7  -3888864.84745  24067483.013    24067494.1274
  24191705.755    -2963511.033 7  -2285719.28645  24191707.389    24191718.1544
  20962571.921   -20816625.101 9 -16207465.89547  20962576.336    20962583.9454
  24284561.919    -4431660.424 7  -3427556.42845  24284565.773    24284576.3704
  21611096.850   -15713363.469 9 -12230114.15647  21611097.671    21611104.9314
 00  7 13  0 35  0.0000000  0  8 21 25 05 11 22 29 20 30
  21880641.797   -17151035.398 8 -13341693.93046  21880644.869    21880654.8984
  20812415.096   -23619189.470 9 -18138214.03048  20812418.465    20812425.6884
  24084492.842    -4930517.773 8  -3819190.31545  24084497.878    24084508.1764
  24200033.308    -2919725.488 7  -2251600.74545  24200038.734    24200050.0294
  24515139.570    -5121564.71417  -3971296.00655  24515142.677    24515158.3154
  20969417.627   -20780663.813 9 -16179444.12847  20969419.457    20969427.4394
  24265629.380    -4531186.793 8  -3505109.36045  24265627.705    24265637.3634
  21617704.501   -15678625.465 9 -12203045.58247  21617708.208    21617715.4834
 00  7 13  0 35 30.0000000  0  8 21 25 05 11 22 29 20 30
  21898774.374   -17055771.483 8 -13267462.39046  21898773.426    21898782.9194
  20807559.689   -23644703.556 9 -18158095.13348  20807563.138    20807570.5714
  24101568.451    -4840801.740 8  -3749281.74345  24101570.536    24101581.6174
  24208438.279    -2875586.842 7  -2217207.06345  24208438.275    24208449.5474
  24492112.994    -5242617.262 7  -4065622.40845  24492108.023    24492121.6744
  20976312.085   -20744419.547 9 -16151201.85447  20976316.580    20976324.5804
  24246722.402    -4630488.876 7  -3582487.51445  24246729.983    24246740.5344
  21624425.901   -15643310.277 9 -12175527.27047  21624428.590    21624436.1964
 00  7 13  0 36  0.0000000  0  8 21 25 05 11 22 29 20 30
  21916968.651   -16960139.690 8 -13192944.21246  21916971.074    21916980.9454
  20802764.934   -23669904.233 9 -18177732.02248  20802767.395    20802775.1624
  24118695.842    -4750787.889 8  -3679141.11845  24118699.741    24118710.7514
  24216899.404    -2831097.265 7  -2182539.89045  24216904.473    24216915.0874
  24469080.301    -5363656.038 7  -4159938.05545  24469073.812    24469089.0274
  20983263.615   -20707891.943 9 -16122738.80547  20983267.127    20983275.3124
  24227871.066    -4729563.952 7  -3659688.77445  24227876.309    24227887.6524
  21631255.581   -15607419.308 9 -12147560.29547  21631258.422    21631266.4794
 00  7 13  0 36 30.0000000  0  8 21 25 05 11 22 29 20 30
  21935236.250   -16864142.271 8 -13118141.11146  21935239.127    21935248.6944
  20798026.473   -23694792.087 9 -18197125.14348  20798031.408    20798039.1944
  24135881.589    -4660478.936 8  -3608770.55045  24135885.461    24135896.2934
  24225430.784    -2786259.338 7  -2147601.27145  24225436.855    24225446.4854
  24446041.027    -5484677.887 8  -4254240.52145  24446045.173    24446059.0444
  20990270.755   -20671080.595 9 -16094054.65547  20990272.027    20990280.2944
  24209056.884    -4828409.316 7  -3736711.03845  24209066.540    24209077.7874
  21638192.756   -15570954.166 9 -12119145.90747  21638197.083    21638205.2464
 00  7 13  0 37  0.0000000  0  8 21 25 05 11 22 29 20 30
  21953571.184   -16767781.995 8 -13043055.27646  21953575.947    21953586.1024
  20793352.090   -23719367.597 9 -18216274.87648  20793355.072    20793362.3214
  24153126.684    -4569877.217 8  -3538171.83945  24153126.597    24153137.4144
  24234031.846    -2741075.481 7  -2112393.13245  24234034.918    24234045.8684
  24423017.535    -5605680.038 8  -4348527.68945  24423018.485    24423032.6564
  20997327.593   -20633985.119 9 -16065149.10947  20997331.167    20997339.6144
  24190301.368    -4927022.262 8  -3813552.20945  24190301.350    24190312.1964
  21645243.821   -15533915.933 9 -12090284.95947  21645245.435    21645253.0214
 00  7 13  0 37 30.0000000  0  8 21 25 05 11 22 29 20 30
  21971976.675   -16671061.453 8 -12967688.70346  21971981.352    21971990.7984
  20788734.871   -23743631.066 9 -18235181.46248  20788737.786    20788745.0204
  24170426.072    -4478985.426 8  -3467347.12345  24170422.282    24170433.6374
  24242700.231    -2695548.108 8  -2076917.28245  24242700.154    24242709.5054
  24399996.188    -5726659.969 8  -4442797.52945  24399997.254    24400010.7874
  21004439.273   -20596605.276 9 -16036021.97447  21004444.185    21004452.5344
  24171579.185    -5025400.192 7  -3890210.26845  24171581.721    24171590.4114
  21652396.561   -15496306.182 9 -12060978.67447  21652402.444    21652409.8444
 00  7 13  0 38  0.0000000  0  8 21 25 05 11 22 29 20 30
  21990454.926   -16573983.148 8 -12892043.36246  21990454.744    21990464.6574
  20784175.107   -23767583.129 9 -18253845.39848  20784179.560    20784187.2224
  24187772.370    -4387806.232 8  -3396298.45145  24187773.931    24187785.1744
  24251426.267    -2649679.726 7  -2041175.75145  24251427.794    24251438.0824
  24376973.476    -5847615.413 7  -4537048.27645  24376979.876    24376993.8504
  21011610.409   -20558940.630 9 -16006672.91047  21011611.839    21011619.7034
  24152892.567    -5123540.414 7  -3966683.10145  24152904.251    24152914.7194
  21659661.566   -15458126.271 9 -12031228.11447  21659667.963    21659675.3154
 00  7 13  0 38 30.0000000  0  8 21 25 05 11 22 29 20 30
  22008993.213   -16476550.030 8 -12816121.56946  22008996.271    22009005.4604
  20779677.039   -23791223.921 9 -18272266.78448  20779680.994    20779688.6284
  24205177.375    -4296342.144 8  -3325027.78845  24205178.670    24205189.4674
  24260214.537    -2603472.724 7  -2005170.38045  24260219.526    24260231.0314
  24353963.943    -5968543.990 7  -4631278.11145  24353967.308    24353980.8034
  21018830.339   -20520990.786 9 -15977101.61647  21018833.602    21018841.3944
  24134267.668    -5221440.228 7  -4042968.58845  24134275.562    24134284.9994
  21667037.809   -15419377.478 9 -12001034.26247  21667041.575    21667049.1584
 00  7 13  0 39  0.0000000  0  8 21 25 05 11 22 29 20 30
  22027603.882   -16378764.398 8 -12739925.07346  22027604.251    22027613.6604
  20775238.542   -23814554.325 9 -18290446.30648  20775241.545    20775248.9014
  24222639.712    -4204595.742 8  -3253537.14245  24222637.713    24222648.2014
  24269064.865    -2556929.657 7  -1968903.13845  24269076.728    24269087.9874
  24330952.393    -6089442.656 7  -4725484.58845  24330960.060    24330975.1024
  21026105.763   -20482755.464 9 -15947307.87047  21026109.640    21026117.2074
  24115691.022    -5319096.984 7  -4119064.69345  24115691.764    24115700.8884
  21674524.150   -15380061.434 9 -11970398.38947  21674522.818    21674530.7274
 00  7 13  0 39 30.0000000  0  8 21 25 05 11 22 29 20 30
  22046277.402   -16280629.586 8 -12663456.47446  22046278.545    22046288.3144
  20770858.318   -23837574.784 9 -18308384.31748  20770860.791    20770868.1154
  24240144.849    -4112569.612 8  -3181828.51645  24240149.378    24240160.5174
  24277994.956    -2510052.932 8  -1932375.87445  24277998.777    24278008.7774
  24307954.265    -6210308.577 7  -4819665.55645  24307961.062    24307974.7734
  21033437.337   -20444234.122 9 -15917291.25447  21033440.066    21033447.7014
  24097153.751    -5416507.918 7  -4194969.23645  24097154.694    24097165.0684
  21682109.780   -15340179.473 9 -11939321.55347  21682112.170    21682120.3614
 00  7 13  0 40  0.0000000  0  8 21 25 05 11 22 29 20 30
  22065019.174   -16182147.387 8 -12586717.19646  22065018.821    22065028.9114
  20766535.941   -23860285.229 9 -18326080.75548  20766539.005    20766546.7154
  24257713.137    -4020266.376 8  -3109903.95345  24257714.483    24257724.6124
  24286983.029    -2462845.301 7  -1895590.74645  24286982.194    24286991.4084
  24284968.382    -6331139.188 7  -4913819.06245  24284966.654    24284979.9464
  21040821.519   -20405426.756 9 -15887051.76547  21040824.800    21040832.5024
  24078666.562    -5513670.542 8  -4270680.24945  24078666.527    24078676.5374
  21689806.076   -15299733.172 9 -11907804.97147  21689809.188    21689816.6004
 00  7 13  0 40 30.0000000  0  8 21 25 05 11 22 29 20 30
  22083823.564   -16083320.718 8 -12509709.50146  22083825.073    22083835.2534
  20762273.674   -23882686.688 9 -18343536.43248  20762276.622    20762283.8314
  24275328.005    -3927688.452 8  -3037765.35945  24275330.348    24275342.1814
  24296021.813    -2415308.886 7  -1858549.44445  24296026.927    24296037.8414
  24261990.105    -6451932.450 7  -5007943.39045  24261981.134    24261994.3094
  21048261.804   -20366332.840 9 -15856588.99147  21048264.188    21048271.6234
  24060220.798    -5610581.951 8  -4346195.57145  24060225.299    24060234.2794
  21697609.405   -15258724.008 9 -11875849.79447  21697612.910    21697620.0694
 00  7 13  0 41  0.0000000  0  8 21 25 05 11 22 29 20 30
  22102690.579   -15984152.404 8 -12432435.60046  22102696.098    22102705.7934
  20758069.311   -23904779.481 9 -18360751.58048  20758072.490    20758079.5424
  24292996.733    -3834838.433 8  -2965414.75945  24293000.084    24293011.7084
  24305129.125    -2367446.548 7  -1821254.19745  24305134.812    24305145.5724
  24239000.871    -6572685.586 8  -5102036.46245  24239003.395    24239015.3554
  21055754.621   -20326952.029 9 -15825902.66447  21055757.943    21055765.8754
  24041833.427    -5707239.661 7  -4421513.17145  24041830.560    24041840.5154
  21705521.243   -15217153.522 9 -11843457.21747  21705523.011    21705530.7754
 00  7 13  0 41 30.0000000  0  8 21 25 05 11 22 29 20 30
  22121628.664   -15884645.550 8 -12354897.89046  22121632.139    22121641.8324
  20753925.281   -23926564.028 9 -18377726.52548  20753926.829    20753934.0754
  24310715.031    -3741718.944 7  -2892854.17845  24310720.584    24310730.8354
  24314301.531    -2319260.677 8  -1783706.85345  24314305.163    24314315.3714
  24216018.345    -6693395.526 7  -5196095.93945  24216031.133    24216044.8614
  21063302.843   -20287284.034 9 -15794992.55347  21063306.660    21063314.3664
  24023481.997    -5803640.719 8  -4496630.80445  24023486.800    24023496.1844
  21713538.398   -15175023.212 9 -11810628.41847  21713540.501    21713548.3024
 00  7 13  0 42  0.0000000  0  8 21 25 05 11 22 29 20 30
  22140627.970   -15784802.358 8 -12277098.09446  22140631.820    22140641.0704
  20749836.424   -23948040.539 9 -18394461.44348  20749840.062    20749847.1354
  24328481.514    -3648332.544 7  -2820085.59845  24328491.200    24328501.2534
  24323528.914    -2270753.601 7  -1745909.21845  24323534.224    24323545.6264
  24193072.127    -6814059.674 8  -5290119.65445  24193069.019    24193083.5504
  21070907.217   -20247328.619 9 -15763858.48147  21070909.775    21070917.1454
  24005193.656    -5899782.627 8  -4571546.49745  24005191.283    24005200.1334
  21721658.760   -15132334.980 9 -11777364.87347  21721663.560    21721671.9664
 00  7 13  0 42 30.0000000  0  8 21 25 05 11 22 29 20 30
  22159694.919   -15684624.879 8 -12199037.79546  22159694.983    22159704.8024
  20745808.025   -23969210.027 9 -18410957.14248  20745811.499    20745818.2904
  24346308.884    -3554681.839 8  -2747111.08945  24346312.434    24346322.3584
  24332824.806    -2221928.089 7  -1707863.44145  24332825.396    24332836.5894
  24170117.183    -6934675.509 8  -5384105.79545  24170117.949    24170129.6264
  21078565.187   -20207085.273 9 -15732500.04847  21078568.047    21078575.7084
  23986944.439    -5995662.498 8  -4646258.04245  23986945.773    23986954.1674
  21729892.236   -15089090.048 9 -11743667.53247  21729892.990    21729901.0064
 00  7 13  0 43  0.0000000  0  8 21 25 05 11 22 29 20 30
  22178817.267   -15584116.473 8 -12120719.67046  22178821.193    22178831.8924
  20741838.244   -23990072.683 9 -18427213.74948  20741841.491    20741848.3084
  24364185.540    -3460769.467 7  -2673932.65845  24364182.343    24364193.7764
  24342174.215    -2172786.654 7  -1669571.45445  24342178.196    24342188.3024
  24147166.974    -7055240.795 7  -5478052.52645  24147173.402    24147188.1104
  21086276.427   -20166553.927 9 -15700917.20147  21086280.951    21086288.9264
  23968749.880    -6091277.804 8  -4720763.39545  23968750.776    23968760.0804
  21738225.715   -15045290.195 9 -11709537.78047  21738227.794    21738235.9764
 00  7 13  0 43 30.0000000  0  8 21 25 05 11 22 29 20 30
  22198004.208   -15483280.027 8 -12042145.93246  22198008.796    22198019.5734
  20737925.659   -24010629.295 9 -18443231.87248  20737929.707    20737936.9594
  24382112.151    -3366597.907 8  -2600552.28045  24382103.524    24382114.9794
  24351582.125    -2123331.807 8  -1631035.26145  24351588.472    24351599.4744
  24124233.670    -7175752.791 7  -5571957.69545  24124240.868    24124254.4984
  21094047.385   -20125734.143 9 -15669109.59547  21094049.169    21094056.5134
  23950605.481    -6186625.842 8  -4795060.46045  23950606.589    23950614.8644
  21746664.892   -15000936.897 9 -11674976.78047  21746668.140    21746675.7224
 00  7 13  0 44  0.0000000  0  8 21 25 05 11 22 29 20 30
  22217260.028   -15382118.221 8 -11963318.66346  22217259.012    22217270.1774
  20734072.180   -24030880.470 9 -18459011.99248  20734075.961    20734083.2714
  24400066.966    -3272169.639 7  -2526971.85545  24400072.865    24400082.8734
  24361054.102    -2073566.118 8  -1592256.86645  24361059.476    24361068.8964
  24101327.516    -7296208.446 8  -5665818.99845  24101318.221    24101331.7684
  21101868.641   -20084625.698 9 -15637077.06147  21101871.591    21101879.5154
  23932510.493    -6281703.851 7  -4869147.15245  23932512.485    23932522.2344
  21755209.267   -14956031.997 9 -11639985.95947  21755213.331    21755221.2464
 00  7 13  0 44 30.0000000  0  8 21 25 05 11 22 29 20 30
  22236566.010   -15280633.363 8 -11884239.66846  22236571.635    22236582.3414
  20730277.890   -24050826.350 9 -18474554.21848  20730280.267    20730287.5904
  24418084.349    -3177487.496 7  -2453193.61645  24418090.373    24418101.2674
  24370582.377    -2023492.193 7  -1553238.28345  24370588.210    24370597.7584
  24078412.125    -7416604.953 7  -5759634.19645  24078407.142    24078420.4124
  21109744.566   -20043228.272 9 -15604819.34447  21109749.151    21109756.9264
  23914470.537    -6376509.268 8  -4943021.41245  23914472.693    23914481.9054
  21763858.273   -14910577.142 9 -11604566.59947  21763862.917    21763870.9844
 00  7 13  0 45  0.0000000  0  8 21 25 05 11 22 29 20 30
  22255943.469   -15178828.885 8 -11804911.61846  22255945.263    22255955.6504
  20726539.818   -24070467.436 9 -18489858.92948  20726542.553    20726550.0314
  24436156.927    -3082553.962 8  -2379219.46445  24436155.608    24436165.4264
  24380169.494    -1973112.537 7  -1513981.51345  24380174.246    24380184.6554
  24055508.165    -7536939.998 8  -5853401.46645  24055509.065    24055522.2344
  21117676.584   -20001541.451 9 -15572336.13447  21117681.705    21117689.7884
  23896481.399    -6471039.324 8  -5016681.11845  23896485.140    23896492.6804
  21772616.221   -14864573.960 9 -11568719.96747  21772616.502    21772624.6604
 00  7 13  0 45 30.0000000  0  8 21 25 05 11 22 29 20 30
  22275377.845   -15076707.250 8 -11725336.42746  22275378.476    22275387.7624
  20722860.664   -24089804.696 9 -18504926.91448  20722863.116    20722870.3494
  24454265.894    -2987371.396 8  -2305051.27445  24454266.652    24454278.9554
  24389814.739    -1922429.776 7  -1474488.50845  24389819.425    24389830.5734
  24032616.526    -7657211.282 8  -5947119.11745  24032622.692    24032634.5834
  21125667.588   -19959565.100 9 -15539627.31047  21125669.861    21125677.5084
  23878546.332    -6565291.290 8  -5090124.16445  23878548.047    23878556.6484
  21781472.326   -14818024.255 9 -11532447.48447  21781474.966    21781482.7604
 00  7 13  0 46  0.0000000  0  8 21 25 05 11 22 29 20 30
  22294871.980   -14974271.213 8 -11645516.20546  22294870.655    22294880.8314
  20719236.235   -24108838.384 9 -18519758.34348  20719241.164    20719248.3534
  24472424.782    -2891942.631 7  -2230691.24045  24472426.955    24472437.7604
  24399519.323    -1871446.623 8  -1434761.41045  24399520.755    24399531.8194
  24009744.236    -7777415.910 8  -6040784.79345  24009747.624    24009759.6964
  21133710.180   -19917298.823 9 -15506692.57347  21133712.783    21133720.4874
  23860662.325    -6659262.573 8  -5163348.45745  23860665.414    23860674.7274
  21790432.523   -14770929.875 9 -11495750.58047  21790436.864    21790444.1894
 00  7 13  0 46 30.0000000  0  8 21 25 05 11 22 29 20 30
  22314425.221   -14871523.269 8 -11565452.98946  22314423.622    22314433.7224
  20715674.039   -24127569.245 9 -18534353.80748  20715676.525    20715683.8054
  24490631.648    -2796270.198 7  -2156141.32745  24490634.464    24490644.6744
  24409276.305    -1820165.640 8  -1394802.26645  24409280.518    24409289.7824
  23986884.444    -7897550.896 8  -6134396.22945  23986887.359    23986898.6344
  21141807.691   -19874742.415 9 -15473531.75447  21141810.884    21141818.7424
  23842836.030    -6752950.183 8  -5236351.68545  23842837.927    23842847.0164
  21799499.642   -14723292.099 9 -11458630.24147  21799501.798    21799509.5224
 00  7 13  0 47  0.0000000  0  8 21 25 05 11 22 29 20 30
  22334030.416   -14768466.012 8 -11485148.74046  22334033.713    22334044.7194
  20712165.546   -24145997.381 9 -18548713.38748  20712169.946    20712177.0724
  24508879.567    -2700356.550 7  -2081403.46745  24508886.120    24508895.3344
  24419090.987    -1768589.374 7  -1354613.06745  24419094.728    24419104.3794
  23964034.857    -8017613.499 8  -6227951.25945  23964039.653    23964051.8764
  21149962.489   -19831895.458 9 -15440144.54147  21149964.397    21149972.4694
  23825060.832    -6846351.673 8  -5309131.98845  23825063.993    23825072.7874
  21808666.527   -14675113.261 9 -11421088.28747  21808670.065    21808677.7444
 00  7 13  0 47 30.0000000  0  8 21 25 05 11 22 29 20 30
  22353703.322   -14665102.201 8 -11404605.61446  22353704.622    22353715.0824
  20708719.588   -24164123.398 9 -18562837.53048  20708720.646    20708727.7344
  24527179.106    -2604204.377 7  -2006479.74845  24527182.104    24527192.9904
  24428963.202    -1716720.630 7  -1314195.93545  24428964.117    24428974.8804
  23941204.336    -8137601.407 8  -6321448.07545  23941205.685    23941218.1934
  21158168.655   -19788757.975 9 -15406530.94047  21158173.092    21158181.3544
  23807337.593    -6939464.367 8  -5381687.23245  23807345.745    23807354.8864
  21817940.281   -14626394.634 9 -11383125.73547  21817941.239    21817949.0344
 00  7 13  0 48  0.0000000  0  8 21 25 05 11 22 29 20 30
  22373430.089   -14561435.267 8 -11323826.28346  22373431.556    22373441.6964
  20705325.562   -24181948.157 9 -18576726.93848  20705328.582    20705335.5414
  24545519.835    -2507816.097 7  -1931372.08545  24545524.082    24545535.5434
  24438888.196    -1664561.924 7  -1273552.86745  24438890.272    24438900.3474
  23918388.847    -8257512.224 7  -6414884.79345  23918387.219    23918399.5254
  21166434.524   -19745329.448 9 -15372690.55047  21166437.286    21166445.6904
  23789682.276    -7032285.487 8  -5454015.30245  23789681.234    23789691.4334
  21827310.331   -14577138.202 9 -11344744.10647  21827314.346    21827321.9624
 00  7 13  0 48 30.0000000  0  8 21 25 05 11 22 29 20 30
  22393215.495   -14457467.674 8 -11242812.68246  22393215.916    22393226.2704
  20701991.101   -24199471.923 9 -18590381.80248  20701994.055    20702001.0164
  24563906.101    -2411194.564 7  -1856082.63045  24563911.635    24563920.6084
  24448867.662    -1612115.843 7  -1232685.86445  24448869.665    24448881.1264
  23895578.852    -8377343.055 7  -6508259.20145  23895583.900    23895596.4084
  21174750.967   -19701609.818 9 -15338623.33247  21174756.943    21174765.0984
  23772072.556    -7124812.315 8  -5526114.09845  23772074.999    23772084.7244
  21836787.455   -14527345.980 9 -11305944.97447  21836789.638    21836797.7954
 00  7 13  0 49  0.0000000  0  8 21 25 05 11 22 29 20 30
  22413055.292   -14353202.134 8 -11161566.92646  22413057.352    22413068.0454
  20698713.945   -24216695.459 9 -18603802.72448  20698716.465    20698723.6554
  24582346.424    -2314342.291 7  -1780613.40345  24582341.480    24582351.2754
  24458901.396    -1559385.166 7  -1191597.12045  24458904.310    24458916.3574
  23872798.759    -8497090.799 8  -6601568.89545  23872795.989    23872809.2014
  21183129.301   -19657598.659 9 -15304328.94647  21183132.172    21183139.9384
  23754514.003    -7217042.167 8  -5597981.40145  23754523.148    23754533.1224
  21846363.356   -14477019.787 9 -11266729.76847  21846365.999    21846374.2234
 00  7 13  0 49 30.0000000  0  8 21 25 05 11 22 29 20 30
  22432952.408   -14248641.571 8 -11080091.27446  22432954.392    22432965.1304
  20695492.761   -24233619.308 9 -18616990.12648  20695495.655    20695503.0324
  24600809.478    -2217261.785 7  -1704966.33045  24600815.714    24600825.5494
  24468988.815    -1506372.431 7  -1150288.61745  24468992.297    24469004.1864
  23850028.018    -8616752.836 8  -6694811.76745  23850025.264    23850038.0044
  21191557.981   -19613295.861 9 -15269807.30047  21191562.523    21191570.7964
  23737029.740    -7308972.360 8  -5669615.22645  23737030.536    23737039.5414
  21856038.515   -14426161.412 9 -11227099.88647  21856043.886    21856052.5604
 00  7 13  0 50  0.0000000  0  8 21 25 05 11 22 29 20 30
  22452899.987   -14143788.989 8 -10998388.07846  22452906.834    22452917.5634
  20692328.734   -24250243.790 9 -18629944.24848  20692332.453    20692339.3444
  24619333.063    -2119955.570 7  -1629143.35545  24619332.252    24619342.3734
  24479131.522    -1453080.458 7  -1108762.48845  24479133.877    24479145.2924
  23827262.327    -8736326.792 8  -6787986.02845  23827270.678    23827283.5124
  21200044.019   -19568701.209 9 -15235058.25547  21200048.918    21200056.8404
  23719589.951    -7400600.066 8  -5741013.39145  23719594.014    23719603.4244
  21865821.713   -14374772.504 9 -11187056.58747  21865823.005    21865831.0564
 00  7 13  0 50 30.0000000  0  7 21 25 11 22 29 20 30
  22472906.987   -14038646.855 8 -10916459.25346  22472915.252    22472925.3414
  20689221.910   -24266569.817 9 -18642665.80748  20689225.692    20689232.6804
  24489320.355    -1399511.858 7  -1067020.80345  24489326.429    24489340.6394
  23804534.705    -8855810.258 8  -6881089.78845  23804533.790    23804546.7264
  21208585.669   -19523814.376 9 -15200081.52447  21208590.503    21208598.3994
  23702211.293    -7491922.945 8  -5812173.97545  23702215.742    23702226.0774
  21875702.236   -14322855.389 9 -11146601.69747  21875702.531    21875710.2564
 00  7 13  0 51  0.0000000  0  7 21 25 11 22 29 20 30
  22492974.056   -13933217.756 8 -10834306.81446  22492978.125    22492988.4824
  20686171.581   -24282597.743 9 -18655155.08348  20686175.720    20686182.8554
  24499573.492    -1345669.235 8  -1025065.57445  24499574.624    24499582.8024
  23781800.650    -8975200.227 7  -6974120.60745  23781813.613    23781827.4474
  21217184.701   -19478635.183 9 -15164876.97647  21217187.751    21217195.8034
  23684894.437    -7582938.054 8  -5883094.77745  23684895.663    23684905.4854
  21885680.565   -14270411.781 9 -11105736.54547  21885682.405    21885690.4834
 00  7 13  0 51 30.0000000  0  6 21 25 22 29 20 30
  22513093.375   -13827505.100 8 -10751933.43246  22513094.306    22513104.2854
  20683178.866   -24298327.990 9 -18667412.41448  20683182.512    20683189.5444
  23759116.553    -9094493.669 8  -7067076.25745  23759114.276    23759126.9814
  21225838.136   -19433163.373 9 -15129444.42347  21225841.002    21225849.0554
  23667631.548    -7673642.751 8  -5953773.70745  23667636.156    23667644.9654
  21895757.242   -14217443.357 8 -11064462.45847  21895761.878    21895769.8974
 00  7 13  0 52  0.0000000  0  6 21 25 22 29 20 30
  22533266.121   -13721511.576 8 -10669341.17746  22533264.348    22533274.3714
  20680242.767   -24313761.372 9 -18679438.40748  20680245.285    20680252.7474
  23736422.731    -9213687.992 8  -7159954.68945  23736432.116    23736444.2304
  21234549.245   -19387398.916 9 -15093783.82747  21234549.574    21234557.5754
  23650432.774    -7764034.332 8  -6024208.66445  23650434.265    23650443.7134
  21905939.200   -14163952.367 9 -11022781.17747  21905941.054    21905949.4544
 00  7 13  0 52 30.0000000  0  6 21 25 22 29 20 30
  22553487.679   -13615239.927 8 -10586532.22046  22553487.334    22553498.1384
  20677361.998   -24328898.435 9 -18691233.51648  20677364.862    20677372.1194
  23713763.888    -9332780.852 8  -7252754.06545  23713769.212    23713781.3504
  21243309.572   -19341341.249 9 -15057894.77247  21243314.014    21243321.4074
  23633289.230    -7854110.162 8  -6094397.52245  23633293.181    23633302.6124
  21916214.723   -14109940.582 8 -10980694.08947  21916218.981    21916227.1104
 00  7 13  0 53  0.0000000  0  6 21 25 22 29 20 30
  22573760.521   -13508693.396 8 -10503509.06946  22573761.904    22573773.3574
  20674536.909   -24343739.541 9 -18702797.99748  20674540.658    20674548.0684
  23691126.395    -9451769.799 8  -7345472.46145  23691125.861    23691137.5684
  21252131.222   -19294990.440 9 -15021777.29247  21252134.260    21252142.0764
  23616206.335    -7943867.421 8  -6164338.20946  23616212.892    23616222.9914
  21926590.310   -14055409.988 8 -10938202.72647  21926595.624    21926604.1374
 00  7 13  0 53 30.0000000  0  6 21 25 22 29 20 30
  22594086.394   -13401874.734 8 -10420273.90746  22594089.353    22594099.9214
  20671768.636   -24358285.472 9 -18714132.47548  20671772.731    20671779.9934
  23668501.196    -9570651.645 8  -7438107.40145  23668503.663    23668515.0494
  21261006.180   -19248346.302 9 -14985431.24347  21261010.339    21261018.2324
  23599192.673    -8033303.508 8  -6234028.57145  23599193.612    23599204.2894
  21937073.314   -14000362.846 9 -10895308.86547  21937071.829    21937078.3104
 00  7 13  0 54  0.0000000  0  6 21 25 22 29 20 30
  22614466.233   -13294786.343 8 -10336828.51046  22614468.034    22614478.5874
  20669058.158   -24372536.674 9 -18725237.27948  20669060.703    20669067.7644
  23645894.153    -9689423.578 8  -7530656.69345  23645900.454    23645914.1304
  21269939.906   -19201408.488 9 -14948856.35747  21269942.370    21269950.1394
  23582235.037    -8122415.749 8  -6303466.66245  23582236.846    23582245.7024
  21947642.345   -13944800.995 8 -10852013.93047  21947644.120    21947652.6794
 00  7 13  0 54 30.0000000  0  6 21 25 22 29 20 30
  22634891.976   -13187431.254 8 -10253175.28946  22634897.649    22634907.9064
  20666401.299   -24386494.038 9 -18736113.12848  20666404.411    20666411.7604
  23623314.410    -9808082.879 8  -7623118.25345  23623320.593    23623331.9004
  21278926.699   -19154177.067 9 -14912052.68947  21278930.404    21278938.1694
  23565335.681    -8211201.446 8  -6372650.25045  23565341.000    23565350.1564
  21958311.363   -13888726.279 8 -10808319.36247  21958314.636    21958322.1514
 00  7 13  0 55  0.0000000  0  6 21 25 22 29 20 30
  22655375.088   -13079812.417 8 -10169316.56146  22655376.971    22655386.7824
  20663800.873   -24400157.928 9 -18746760.31548  20663804.610    20663811.7624
  23600761.508    -9926627.330 7  -7715490.30645  23600761.464    23600774.7444
  21287972.482   -19106651.611 9 -14875019.90547  21287974.900    21287981.6894
  23548506.435    -8299657.895 8  -6441577.28345  23548507.305    23548517.2784
  21969079.771   -13832141.154 8 -10764227.07047  21969082.942    21969091.0394
 00  7 13  0 55 30.0000000  0  6 21 25 22 29 20 30
  22675906.864   -12971932.189 8 -10085254.19846  22675905.330    22675916.0834
  20661255.944   -24413528.967 9 -18757179.29348  20661260.100    20661267.2104
  23578225.287   -10045054.281 8  -7807770.76445  23578225.575    23578238.6724
  21297072.398   -19058831.947 9 -14837757.85747  21297074.401    21297081.3254
  23531735.898    -8387782.340 8  -6510245.63546  23531738.583    23531748.2674
  21979943.764   -13775047.455 8 -10719738.50147  21979946.924    21979955.2724
 00  7 13  0 56  0.0000000  0  6 21 25 22 29 20 30
  22696481.826   -12863793.761 8 -10000990.63346  22696483.869    22696494.5224
  20658767.374   -24426607.701 9 -18767370.49548  20658771.363    20658778.4784
  23555710.222   -10163360.602 8  -7899957.25245  23555712.588    23555725.1554
  21306227.756   -19010718.087 9 -14800266.57747  21306230.093    21306237.7454
  23515026.559    -8475572.274 8  -6578653.31746  23515032.730    23515042.4134
  21990904.330   -13717447.230 8 -10674855.22047  21990907.779    21990916.4914
 00  7 13  0 56 30.0000000  0  6 21 25 22 29 20 30
  22717104.280   -12755400.354 8  -9916528.37946  22717110.384    22717120.1884
  20656336.467   -24439394.844 9 -18777334.49948  20656338.081    20656345.1154
  23533219.090   -10281543.330 8  -7992047.43645  23533223.981    23533234.3854
  21315437.458   -18962309.786 9 -14762545.85847  21315441.608    21315450.3344
  23498390.520    -8563025.140 8  -6646798.32445  23498389.798    23498399.0334
  22001963.078   -13659342.406 8 -10629578.75847  22001965.312    22001973.4764
 00  7 13  0 57  0.0000000  0  6 21 25 22 29 20 30
  22737787.365   -12646754.781 8  -9831869.62046  22737785.300    22737795.7694
  20653956.719   -24451891.096 9 -18787071.84248  20653960.242    20653967.0074
  23510752.813   -10399600.082 8  -8084039.50945  23510758.163    23510769.7824
  21324706.814   -18913606.855 9 -14724595.56047  21324709.333    21324717.9924
  23481807.939    -8650138.107 8  -6714678.52346  23481813.393    23481823.9924
  22013115.798   -13600735.272 8 -10583910.87247  22013117.237    22013126.2144
 00  7 13  0 57 30.0000000  0  6 21 25 22 29 20 30
  22758505.467   -12537859.529 8  -9747016.30746  22758506.697    22758517.4854
  20651633.659   -24464097.030 9 -18796582.95248  20651637.414    20651644.1324
  23488311.901   -10517528.498 8  -8175931.53745  23488316.939    23488328.4864
  21334031.605   -18864609.229 9 -14686415.64247  21334033.374    21334041.6494
  23465295.711    -8736908.457 8  -6782291.69145  23465301.477    23465310.9634
  22024362.716   -13541627.748 8 -10537853.08147  22024365.725    22024373.9714
 00  7 13  0 58  0.0000000  0  6 21 25 22 29 20 30
  22779265.973   -12428717.654 8  -9661970.84046  22779275.883    22779286.5814
  20649368.106   -24476012.836 9 -18805867.98348  20649369.920    20649376.6484
  23465902.423   -10635325.766 8  -8267721.39745  23465900.928    23465912.3294
  21343410.800   -18815316.720 9 -14648005.93047  21343413.546    21343421.7594
  23448854.319    -8823333.586 8  -6849635.91445  23448854.397    23448863.6044
  22035708.825   -13482022.238 8 -10491407.26047  22035707.651    22035716.9334
 00  7 13  0 58 30.0000000  0  6 21 25 22 29 20 30
  22800088.207   -12319332.146 8  -9576735.49346  22800090.561    22800102.2104
  20647154.008   -24487639.376 9 -18814927.60248  20647157.325    20647164.4094
  23443504.307   -10752988.844 8  -8359406.70745  23443510.570    23443521.1104
  21352844.544   -18765729.156 8 -14609366.31147  21352849.756    21352857.6144
  23432474.190    -8909410.875 8  -6916709.05546  23432475.515    23432485.2244
  22047138.144   -13421920.927 8 -10444575.09247  22047144.682    22047152.6304
 00  7 13  0 59  0.0000000  0  6 21 25 22 29 20 30
  22820950.044   -12209706.138 8  -9491312.80346  22820952.009    22820964.7294
  20644997.277   -24498977.125 9 -18823762.19748  20644999.773    20645007.1764
  23421132.687   -10870514.755 8  -8450985.12345  23421145.440    23421156.5074
  21362340.862   -18715846.595 8 -14570496.82247  21362342.108    21362350.5704
  23416158.420    -8995137.519 8  -6983508.99346  23416162.587    23416171.5424
  22058671.703   -13361325.799 8 -10397358.15447  22058676.038    22058683.6904
 00  7 13  0 59 30.0000000  0  6 21 25 22 29 20 30
  22841856.376   -12099842.193 8  -9405704.70346  22841859.863    22841869.8204
  20642891.422   -24510026.791 9 -18832372.30848  20642896.995    20642904.3814
  23398811.345   -10987901.180 7  -8542454.84245  23398806.066    23398818.7164
  21371885.104   -18665668.679 9 -14531397.17747  21371890.552    21371898.7804
  23399909.953    -9080511.078 8  -7050033.79345  23399915.533    23399925.0534
  22070299.736   -13300238.880 8 -10349757.97347  22070300.316    22070307.9844
 00  7 13  1  0  0.0000000  0  7 21 25 22 29 20 30 06
  22862808.300   -11989743.440 8  -9319913.60446  22862811.099    22862821.2694
  20640847.823   -24520789.304 9 -18840758.66648  20640849.084    20640856.3674
  23376495.837   -11105145.784 8  -8633814.03445  23376495.713    23376508.0614
  21381490.545   -18615195.407 9 -14492067.38647  21381495.502    21381503.6014
  23383732.574    -9165528.907 8  -7116281.40046  23383738.566    23383747.9104
  22082013.627   -13238662.570 8 -10301776.45447  22082018.386    22082025.6324
  24849203.273    -2205648.46717  -1551556.14855  24849205.490    24849217.1924
 00  7 13  1  0 30.0000000  0  7 21 25 22 29 20 30 06
  22883801.579   -11879412.322 8  -9233941.44446  22883806.224    22883816.3254
  20638852.507   -24531264.929 9 -18848921.47748  20638855.722    20638862.6614
  23354205.446   -11222245.538 8  -8725060.36845  23354212.549    23354223.9714
  21391152.718   -18564426.758 9 -14452507.43247  21391156.392    21391164.5964
  23367622.974    -9250188.261 8  -7182249.66346  23367628.024    23367635.9054
  22093824.970   -13176599.079 8 -10253415.34047  22093827.616    22093836.9984
  24837578.033    -2266704.421 7  -1599132.20845  24837584.638    24837597.8724
 00  7 13  1  1  0.0000000  0  7 21 25 22 29 20 30 06
  22904836.436   -11768852.057 8  -9147790.76746  22904844.906    22904856.1064
  20636914.005   -24541454.168 9 -18856861.13248  20636916.854    20636923.5334
  23331955.673   -11339197.386 8  -8816191.48746  23331957.282    23331970.0854
  21400871.356   -18513362.615 8 -14412717.22147  21400873.529    21400881.3604
  23351585.468    -9334486.510 8  -7247936.59545  23351586.128    23351594.6164
  22105723.488   -13114050.837 8 -10204676.47746  22105729.809    22105738.8454
  24825999.478    -2327556.840 7  -1646549.53545  24826006.082    24826018.9814
 00  7 13  1  1 30.0000000  0  7 21 25 22 29 20 30 06
  22925922.149   -11658065.402 8  -9061463.68046  22925926.942    22925937.9454
  20635029.730   -24551357.754 9 -18864578.20348  20635032.063    20635039.0764
  23309725.373   -11455998.523 8  -8907205.17146  23309731.083    23309742.3374
  21410644.764   -18462002.802 9 -14372696.62047  21410646.856    21410655.1354
  23335615.427    -9418421.001 8  -7313340.02946  23335613.995    23335623.1314
  22117719.373   -13051019.673 8 -10155561.32347  22117724.638    22117734.1784
  24814464.286    -2388203.118 7  -1693806.23945  24814464.485    24814477.8274
 00  7 13  1  2  0.0000000  0  7 21 25 22 29 20 30 06
  22947048.866   -11547055.322 8  -8974962.48446  22947052.076    22947062.5134
  20633198.524   -24560976.310 9 -18872073.16848  20633201.478    20633208.6404
  23287531.766   -11572646.682 8  -8998099.64146  23287533.356    23287544.5304
  21420475.276   -18410347.142 9 -14332445.48247  21420476.899    21420484.8084
  23319711.297    -9501989.189 8  -7378458.05646  23319712.874    23319720.8004
  22129806.001   -12987507.803 8 -10106071.60046  22129810.013    22129819.9294
  24802959.740    -2448640.664 7  -1740900.34945  24802964.459    24802978.1364
 00  7 13  1  2 30.0000000  0  7 21 25 22 29 20 30 06
  22968211.431   -11435824.834 8  -8888289.55546  22968217.750    22968229.9614
  20631420.890   -24570310.740 9 -18879346.72948  20631425.235    20631432.2774
  23265356.810   -11689139.341 8  -9088872.95345  23265365.122    23265375.9664
  21430356.213   -18358395.783 8 -14291963.92447  21430362.514    21430370.9934
  23303874.751    -9585188.441 8  -7443288.57946  23303878.900    23303888.5504
  22141984.103   -12923517.637 8 -10056209.16247  22141987.994    22141996.7824
  24791498.646    -2508866.510 7  -1787829.53245  24791503.539    24791516.6994
 00  7 13  1  3  0.0000000  0  7 21 25 22 29 20 30 06
  22989419.695   -11324377.053 8  -8801447.31146  22989426.376    22989437.9484
  20629700.270   -24579361.276 9 -18886399.07748  20629702.903    20629710.0994
  23243226.049   -11805473.598 8  -9179522.82145  23243226.603    23243237.5234
  21440302.166   -18306148.631 8 -14251251.87947  21440304.850    21440313.5194
  23288115.870    -9668015.995 8  -7507829.47646  23288118.634    23288127.5264
  22154248.033   -12859051.443 8 -10005975.81246  22154254.564    22154264.2364
  24780088.704    -2568877.721 7  -1834591.44045  24780082.776    24780094.3714
 00  7 13  1  3 30.0000000  0  7 21 25 22 29 20 30 06
  23010673.697   -11212714.806 8  -8714437.93546  23010675.053    23010686.4134
  20628030.679   -24588128.774 9 -18893230.88548  20628034.719    20628041.5404
  23221120.551   -11921646.275 8  -9270046.77645  23221118.914    23221131.0844
  21450302.344   -18253605.556 8 -14210309.25347  21450303.521    21450312.3474
  23272421.821    -9750469.545 8  -7572078.97446  23272426.977    23272435.9764
  22166614.221   -12794111.327 8  -9955373.14346  22166612.476    22166620.9014
  24768697.961    -2628671.754 7  -1881184.13645  24768705.189    24768715.7374
 00  7 13  1  4  0.0000000  0  7 21 25 22 29 20 30 06
  23031963.803   -11100841.282 8  -8627263.91745  23031964.772    23031975.4344
  20626417.165   -24596614.097 9 -18899842.81748  20626420.030    20626427.0854
  23199042.725   -12037654.557 8  -9360442.61445  23199044.353    23199055.5994
  21460357.178   -18200766.374 9 -14169135.88947  21460358.975    21460367.1524
  23256810.499    -9832546.223 8  -7636034.78746  23256807.668    23256817.9964
  22179056.033   -12728699.830 8  -9904403.19146  22179060.066    22179069.7034
  24757373.479    -2688245.801 7  -1927605.42845  24757367.960    24757379.5974
 00  7 13  1  4 30.0000000  0  7 21 25 22 29 20 30 06
  23053294.382   -10988758.560 8  -8539926.94145  23053292.611    23053303.5674
  20624855.079   -24604817.514 9 -18906235.09148  20624858.886    20624866.2034
  23176998.581   -12153496.388 8  -9450708.77545  23177000.353    23177010.6174
  21470465.513   -18147631.079 8 -14127731.78447  21470469.867    21470478.3914
  23241257.217    -9914243.446 8  -7699694.91546  23241261.813    23241272.1764
  22191596.021   -12662819.140 8  -9853067.64446  22191596.751    22191605.2214
  24746071.835    -2747596.930 7  -1973852.97245  24746074.406    24746086.1814
 00  7 13  1  5  0.0000000  0  7 21 25 22 29 20 30 06
  23074647.350   -10876469.805 8  -8452429.39045  23074660.963    23074671.9764
  20623348.189   -24612739.601 9 -18912408.14848  20623351.510    20623358.5524
  23154987.682   -12269169.067 8  -9540843.14346  23154988.348    23154999.4774
  21480633.311   -18094199.747 8 -14086096.99747  21480637.494    21480645.9394
  23225786.774    -9995558.776 8  -7763057.43746  23225787.933    23225798.0844
  22204219.000   -12596471.702 8  -9801368.37046  22204222.895    22204230.9194
  24734824.671    -2806722.683 7  -2019924.95745  24734823.763    24734836.5714
 00  7 13  1  5 30.0000000  0  7 21 25 22 29 20 30 06
  23096062.538   -10763978.406 8  -8364773.91345  23096067.401    23096078.7064
  20621893.999   -24620381.139 9 -18918362.59348  20621897.375    20621904.3944
  23133011.986   -12384669.656 8  -9630843.40246  23133008.857    23133019.5784
  21490860.994   -18040472.394 8 -14044231.55747  21490861.737    21490869.8704
  23210380.530   -10076489.320 8  -7826120.15746  23210388.098    23210396.5144
  22216934.819   -12529659.840 8  -9749307.23446  22216936.848    22216945.4934
  24723608.054    -2865620.233 7  -2065819.06645  24723614.697    24723627.6724
 00  7 13  1  6  0.0000000  0  7 21 25 22 29 20 30 06
  23117506.646   -10651286.864 8  -8276962.53345  23117511.673    23117522.8174
  20620493.572   -24627742.334 9 -18924098.58748  20620496.550    20620503.5244
  23111060.417   -12499995.041 8  -9720707.12546  23111063.588    23111074.1534
  21501138.997   -17986448.759 8 -14002135.23747  21501141.989    21501150.1164
  23195061.528   -10157032.894 8  -7888881.31646  23195060.821    23195069.3014
  22229738.199   -12462385.619 8  -9696885.80246  22229739.326    22229747.4684
  24712454.095    -2924286.971 7  -2111533.27645  24712449.631    24712462.6654
 00  7 13  1  6 30.0000000  0  7 21 25 22 29 20 30 06
  23138996.091   -10538398.732 8  -8188997.93945  23138994.876    23139004.7334
  20619145.130   -24634824.460 9 -18929617.12648  20619148.877    20619155.7184
  23089148.750   -12615142.558 8  -9810432.28346  23089151.475    23089161.9424
  21511475.258   -17932128.938 8 -13959808.12547  21511478.743    21511487.1304
  23179803.313   -10237186.603 8  -7951338.70046  23179808.202    23179816.9004
  22242626.055   -12394651.557 8  -9644106.05646  22242628.270    22242636.1694
  24701327.180    -2982720.155 7  -2157065.51345  24701331.342    24701342.8174
 00  7 13  1  7  0.0000000  0  7 21 25 22 29 20 30 06
  23160511.611   -10425316.221 8  -8100881.88345  23160512.843    23160524.5764
  20617851.048   -24641628.005 9 -18934918.59248  20617854.323    20617861.2554
  23067272.216   -12730110.032 8  -9900017.13946  23067273.118    23067283.4314
  21521868.814   -17877513.081 9 -13917250.32847  21521872.082    21521880.3364
  23164623.759   -10316948.016 8  -8013490.38246  23164629.978    23164638.1754
  22255599.655   -12326459.947 8  -9590969.78246  22255604.586    22255613.0274
  24690258.960    -3040916.973 7  -2202413.61345  24690257.327    24690268.2074
 00  7 13  1  7 30.0000000  0  7 21 25 22 29 20 30 06
  23182067.056   -10312042.599 8  -8012616.90345  23182068.012    23182079.9384
  20616609.451   -24648153.394 9 -18940003.30848  20616612.324    20616619.6814
  23045424.279   -12844894.701 8  -9989459.55846  23045430.623    23045441.4484
  21532318.129   -17822601.036 8 -13874461.74847  21532321.220    21532329.5314
  23149524.095   -10396314.538 8  -8075334.38146  23149526.089    23149534.8154
  22268666.696   -12257813.121 8  -9537478.79646  22268667.579    22268675.8744
  24679217.569    -3098874.823 8  -2247575.51345  24679228.104    24679239.4924
 00  7 13  1  8  0.0000000  0  7 21 25 22 29 20 30 06
  23203659.767   -10198580.546 8  -7924205.13945  23203659.847    23203671.3714
  20615419.554   -24654400.876 9 -18944871.46448  20615423.368    20615430.7934
  23023627.242   -12959493.599 8 -10078757.19646  23023623.058    23023634.1474
  21542825.319   -17767392.698 8 -13831442.29147  21542827.133    21542835.2524
  23134496.028   -10475283.699 8  -8136868.70946  23134499.251    23134508.7734
  22281812.301   -12188713.593 8  -9483635.04546  22281816.746    22281824.7334
  24668245.438    -3156591.035 8  -2292549.18745  24668245.449    24668256.0974
 00  7 13  1  8 30.0000000  0  7 21 25 22 29 20 30 06
  23225281.922   -10084933.150 8  -7835648.92145  23225286.622    23225297.8034
  20614286.458   -24660371.581 9 -18949523.96148  20614287.289    20614294.5234
  23001850.661   -13073903.813 8 -10167907.83746  23001851.740    23001862.2004
  21553385.869   -17711888.334 8 -13788192.16447  21553389.225    21553397.1904
  23119551.066   -10553852.754 8  -8198091.28746  23119548.021    23119557.3564
  22295052.161   -12119163.527 8  -9429440.23146  22295051.923    22295060.0754
  24657298.362    -3214062.746 7  -2337332.22345  24657308.390    24657320.2444
 00  7 13  1  9  0.0000000  0  7 21 25 22 29 20 30 06
  23246951.459    -9971103.274 8  -7746950.52245  23246948.222    23246959.5164
  20613201.740   -24666066.033 9 -18953961.19548  20613203.856    20613210.8604
  22980116.397   -13188122.573 8 -10256909.28446  22980116.328    22980126.8964
  21564003.513   -17656087.944 8 -13744711.36647  21564007.784    21564015.4414
  23104666.196   -10632019.253 8  -8259000.19546  23104674.130    23104683.0174
  22308365.323   -12049165.519 8  -9374896.38346  22308371.475    22308380.7694
  24646415.287    -3271287.221 7  -2381922.54145  24646416.756    24646431.5424
 00  7 13  1  9 30.0000000  0  7 21 25 22 29 20 30 06
  23268637.160    -9857094.072 8  -7658112.38445  23268642.649    23268654.9644
  20612169.315   -24671484.977 9 -18958183.74748  20612172.483    20612179.8074
  22958414.611   -13302147.727 8 -10345759.86146  22958416.719    22958428.1294
  21574679.328   -17599991.285 8 -13700999.71147  21574682.675    21574690.7294
  23089875.655   -10709780.797 8  -8319593.55346  23089875.885    23089884.5104
  22321778.227   -11978721.996 8  -9320005.37946  22321777.517    22321785.7404
  24635567.682    -3328261.987 7  -2426318.33445  24635576.163    24635589.8544
 00  7 13  1 10  0.0000000  0  7 21 25 22 29 20 30 06
  23290370.946    -9742908.580 8  -7569136.87845  23290371.657    23290383.8024
  20611189.816   -24676629.016 9 -18962192.09848  20611193.589    20611200.9634
  22936754.050   -13415976.511 8 -10434457.45046  22936756.025    22936766.9884
  21585410.411   -17543598.637 8 -13657057.43447  21585414.021    21585421.8364
  23075151.977   -10787134.855 8  -8379869.38746  23075155.588    23075164.5954
  22335261.309   -11907835.331 8  -9264769.06546  22335265.840    22335274.4214
  24624778.201    -3384984.212 7  -2470517.38045  24624782.495    24624794.0294
 00  7 13  1 10 30.0000000  0  7 21 25 22 29 20 30 06
  23312132.766    -9628549.644 8  -7480026.21245  23312134.062    23312145.4494
  20610262.417   -24681498.994 9 -18965986.89148  20610266.653    20610274.1424
  22915136.494   -13529605.745 8 -10522999.54646  22915133.408    22915143.7534
  21596197.403   -17486909.935 8 -13612884.44347  21596201.586    21596209.3564
  23060512.127   -10864078.797 8  -8439825.65246  23060514.388    23060522.7184
  22348833.313   -11836508.046 8  -9209189.39846  22348839.886    22348848.3574
  24614036.843    -3441451.273 8  -2514517.57845  24614037.782    24614049.3454
 00  7 13  1 11  0.0000000  0  7 21 25 22 29 20 30 06
  23333918.671    -9514020.427 8  -7390782.89545  23333927.408    23333939.8264
  20609389.528   -24686095.195 9 -18969568.34848  20609391.955    20609399.4574
  22893544.889   -13643032.670 8 -10611384.00246  22893548.728    22893559.5094
  21607043.215   -17429925.209 8 -13568480.79547  21607045.758    21607053.5694
  23045950.584   -10940610.119 8  -8499460.40146  23045949.957    23045958.8894
  22362493.797   -11764742.345 8  -9153268.13746  22362496.478    22362504.5344
  24603334.751    -3497660.425 8  -2558316.87745  24603340.832    24603353.2174
 00  7 13  1 11 30.0000000  0  7 21 25 22 29 20 30 06
  23355755.447    -9399323.652 8  -7301408.98145  23355755.127    23355766.0204
  20608566.082   -24690418.490 9 -18972937.15648  20608569.133    20608576.7324
  22872006.609   -13756254.622 8 -10699608.73046  22872003.663    22872013.3064
  21617943.563   -17372644.653 8 -13523846.62147  21617945.695    21617953.6534
  23031460.815   -11016726.184 8  -8558771.56746  23031466.487    23031474.9294
  22376232.163   -11692540.795 8  -9097007.22346  22376236.192    22376243.9774
  24592687.245    -3553609.016 7  -2601913.12745  24592693.964    24592705.9864
 00  7 13  1 12  0.0000000  0  7 21 25 22 29 20 30 06
  23377608.540    -9284462.243 8  -7211906.79445  23377611.982    23377623.8994
  20607795.892   -24694469.700 9 -18976093.94848  20607798.533    20607805.6264
  22850483.327   -13869269.366 8 -10787672.01846  22850496.976    22850508.1184
  21628898.224   -17315068.131 8 -13478981.82047  21628902.344    21628909.8984
  23017059.939   -11092424.863 8  -8617757.46846  23017061.020    23017069.9664
  22390051.409   -11619905.836 8  -9040408.60046  22390057.541    22390066.9294
  24582092.472    -3609294.454 7  -2645304.27945  24582097.292    24582110.5894
 00  7 13  1 12 30.0000000  0  7 21 25 22 29 20 30 06
  23399501.381    -9169438.686 8  -7122278.26845  23399500.632    23399513.4374
  20607075.559   -24698249.124 9 -18979038.94848  20607079.397    20607086.4324
  22829032.940   -13982074.102 8 -10875571.65446  22829030.831    22829041.5574
  21639910.822   -17257195.791 8 -13433886.52247  21639914.679    21639922.9384
  23002729.378   -11167703.321 8  -8676415.98246  23002735.654    23002744.5914
  22403959.838   -11546839.792 8  -8983474.07646  22403962.228    22403970.4574
  24571548.476    -3664714.089 7  -2688488.29545  24571550.005    24571563.6124
 00  7 13  1 13  0.0000000  0  7 21 25 22 29 20 30 06
  23421420.562    -9054256.547 8  -7032526.19145  23421418.970    23421430.5304
  20606408.565   -24701757.186 9 -18981772.51048  20606411.927    20606419.0864
  22807604.732   -14094665.812 8 -10963305.24146  22807605.439    22807617.2264
  21650980.571   -17199027.768 8 -13388560.83047  21650984.014    21650992.3024
  22988493.434   -11242559.168 8  -8734745.16746  22988490.882    22988499.8694
  22417945.515   -11473345.474 8  -8926205.82246  22417947.156    22417955.8764
  24561045.911    -3719865.265 7  -2731463.11245  24561056.795    24561068.2204
 00  7 13  1 13 30.0000000  0  7 21 25 22 29 20 30 06
  23443364.813    -8938918.665 8  -6942652.69545  23443366.821    23443379.8304
  20605791.767   -24704994.948 9 -18984295.44948  20605795.830    20605803.0644
  22786217.431   -14207041.611 8 -11050870.63646  22786221.784    22786231.1634
  21662105.545   -17140564.074 8 -13343004.73547  21662109.298    21662117.7004
  22974323.649   -11316989.967 8  -8792743.13146  22974327.179    22974336.2414
  22432014.896   -11399425.114 8  -8868605.59646  22432014.334    22432022.7824
  24550612.573    -3774745.473 8  -2774226.80545  24550613.040    24550625.9394
 00  7 13  1 14  0.0000000  0  7 21 25 22 29 20 30 06
  23465341.205    -8823427.855 8  -6852660.04445  23465343.832    23465357.4664
  20605227.655   -24707962.773 9 -18986608.04548  20605231.313    20605237.9384
  22764876.125   -14319199.028 8 -11138265.88746  22764878.486    22764888.3154
  21673285.240   -17081804.932 8 -13297218.42147  21673290.529    21673298.7814
  22960241.836   -11390993.243 8  -8850407.98546  22960245.572    22960253.0534
  22446158.067   -11325081.370 8  -8810675.44646  22446161.104    22446169.9794
  24540215.894    -3829352.025 7  -2816777.31345  24540221.207    24540233.9374
 00  7 13  1 14 30.0000000  0  7 21 25 22 29 20 30 06
  23487345.165    -8707787.078 8  -6762550.58645  23487349.649    23487362.9874
  20604713.226   -24710661.424 9 -18988710.90048  20604717.652    20604724.5244
  22743577.345   -14431135.670 8 -11225489.10146  22743578.294    22743588.0694
  21684528.521   -17022750.194 8 -13251201.76947  21684527.852    21684535.6804
  22946247.464   -11464566.707 8  -8907737.93046  22946245.106    22946253.1714
  22460386.320   -11250316.411 8  -8752417.08946  22460388.780    22460397.2044
  24529880.932    -3883682.000 7  -2859112.30645  24529881.908    24529894.8364
 00  7 13  1 15  0.0000000  0  7 21 25 22 29 20 30 06
  23509374.687    -8591999.117 7  -6672326.41445  23509383.442    23509397.0484
  20604251.233   -24713091.867 9 -18990604.76248  20604255.048    20604262.3074
  22722317.122   -14542848.735 8 -11312538.08246  22722318.948    22722328.9344
  21695818.343   -16963400.091 8 -13204954.95847  21695822.216    21695830.3124
  22932324.202   -11537707.840 8  -8964730.95346  22932326.524    22932335.0384
  22474693.280   -11175132.960 8  -8693832.61546  22474695.513    22474704.6844
  24519588.725    -3937733.021 7  -2901229.88745  24519596.141    24519609.5844
 00  7 13  1 15 30.0000000  0  7 21 25 22 29 20 30 06
  23531434.760    -8476067.177 7  -6581990.07545  23531444.436    23531457.2954
  20603841.081   -24715254.261 9 -18992289.75248  20603843.536    20603850.6724
  22701105.536   -14654335.250 8 -11399410.53746  22701103.265    22701114.6124
  21707167.042   -16903754.983 8 -13158478.27747  21707172.372    21707180.2184
  22918490.290   -11610414.214 8  -9021385.23546  22918490.652    22918499.4084
  22489080.318   -11099533.473 8  -8634923.97346  22489081.988    22489090.8844
  24509363.871    -3991502.380 8  -2943127.97945  24509365.900    24509376.8624
 00  7 13  1 16  0.0000000  0  7 21 25 22 29 20 30 06
  23553525.163    -8359994.118 8  -6491543.73045  23553533.548    23553546.9364
  20603480.504   -24717149.166 9 -18993766.30848  20603482.488    20603490.0854
  22679927.380   -14765592.230 8 -11486104.12346  22679931.699    22679942.1514
  21718576.981   -16843814.830 8 -13111771.69847  21718579.084    21718586.9154
  22904729.959   -11682683.217 8  -9077698.70146  22904737.406    22904746.1184
  22503545.962   -11023520.522 8  -8575693.15246  22503546.852    22503555.8564
  24499182.104    -4044987.766 7  -2984804.78245  24499187.212    24499198.3474
 00  7 13  1 16 30.0000000  0  7 21 25 22 29 20 30 06
  23575645.921    -8243782.817 8  -6400989.68945  23575647.788    23575661.2074
  20603169.639   -24718777.671 9 -18995035.27548  20603172.841    20603180.1924
  22658803.094   -14876617.489 8 -11572617.15846  22658804.520    22658814.4624
  21730042.354   -16783579.639 8 -13064835.21447  21730041.554    21730049.1774
  22891066.212   -11754512.614 8  -9133669.61546  22891069.269    22891078.1004
  22518086.433   -10947096.454 8  -8516141.97746  22518090.586    22518098.4334
  24489065.839    -4098186.385 8  -3026258.14345  24489064.332    24489075.6724
 00  7 13  1 17  0.0000000  0  7 21 25 22 29 20 30 06
  23597787.236    -8127436.291 8  -6310330.27845  23597788.347    23597802.1414
  20602909.984   -24720140.249 9 -18996097.02548  20602913.812    20602921.1854
  22637724.151   -14987408.522 8 -11658947.68446  22637721.972    22637731.8504
  21741555.764   -16723049.694 8 -13017669.06047  21741559.407    21741567.4844
  22877477.818   -11825899.981 8  -9189296.11346  22877484.872    22877493.0884
  22532706.736   -10870264.020 8  -8456272.58246  22532710.697    22532719.3344
  24478995.373    -4151095.718 8  -3067486.12945  24478995.770    24479007.5114
 00  7 13  1 17 30.0000000  0  7 21 25 22 29 20 30 06
  23619947.164    -8010957.428 8  -6219567.74945  23619953.287    23619966.4064
  20602702.311   -24721237.453 9 -18996951.99748  20602704.899    20602712.2194
  22616682.645   -15097962.486 8 -11745093.48546  22616683.783    22616693.2954
  21753126.480   -16662225.076 8 -12970273.28547  21753133.628    21753142.6984
  22863984.416   -11896842.895 8  -9244576.26546  22863984.300    22863993.4044
  22547402.327   -10793025.885 8  -8396087.06246  22547408.154    22547417.1774
  24468977.951    -4203713.077 7  -3108486.56745  24468982.034    24468994.1324
 00  7 13  1 18  0.0000000  0  7 21 25 22 29 20 30 06
  23642140.763    -7894349.204 8  -6128704.38745  23642143.857    23642156.7234
  20602541.303   -24722070.099 9 -18997600.82848  20602546.245    20602553.8614
  22595691.206   -15208276.286 8 -11831052.15446  22595691.237    22595701.3024
  21764763.512   -16601105.924 8 -12922648.00947  21764764.703    21764772.9884
  22850567.417   -11967338.931 8  -9299508.18046  22850570.053    22850579.1764
  22562180.767   -10715384.511 8  -8335587.32746  22562182.668    22562191.9994
  24459023.635    -4256035.822 8  -3149257.43645  24459025.937    24459038.0934
 00  7 13  1 18 30.0000000  0  7 21 25 22 29 20 30 06
  23664353.707    -7777614.611 7  -6037742.61245  23664357.570    23664370.1404
  20602435.627   -24722638.527 9 -18998043.76948  20602438.438    20602445.4874
  22574732.408   -15318347.283 8 -11916821.62946  22574744.799    22574754.9064
  21776447.624   -16539692.469 8 -12874793.39347  21776451.083    21776459.6414
  22837237.287   -12037385.769 8  -9354090.11546  22837240.098    22837248.8224
  22577027.398   -10637342.117 8  -8274775.13546  22577033.399    22577043.4004
  24449123.115    -4308061.383 8  -3189796.75145  24449125.577    24449137.8074
 00  7 13  1 19  0.0000000  0  7 21 25 22 29 20 30 06
  23686579.801    -7660756.413 7  -5946684.51245  23686594.724    23686606.9364
  20602376.076   -24722943.566 9 -18998281.47148  20602380.246    20602387.5044
  22553853.133   -15428173.095 8 -12002400.05746  22553847.258    22553856.0344
  21788192.825   -16477984.822 8 -12826709.53347  21788194.243    21788202.2054
  22824000.072   -12106981.104 8  -9408320.21346  22823997.504    22824005.8854
  22591958.998   -10558901.652 8  -8213652.72946  22591961.193    22591970.0884
  24439276.987    -4359787.238 7  -3230102.52045  24439282.438    24439294.1784
 00  7 13  1 19 30.0000000  0  7 21 25 22 29 20 30 06
  23708858.614    -7543777.475 7  -5855532.36245  23708856.394    23708868.2014
  20602368.753   -24722986.163 9 -18998314.66848  20602372.067    20602379.4024
  22532990.254   -15537751.364 8 -12087785.59246  22532994.205    22533003.6004
  21799988.611   -16415983.330 8 -12778396.71847  21799992.441    21800000.1744
  22810832.229   -12176122.495 8  -9462196.57746  22810838.677    22810848.4954
  22606958.963   -10480065.356 8  -8152221.88746  22606962.666    22606971.5924
  24429496.355    -4411210.886 8  -3270172.84645  24429498.263    24429508.6894
 00  7 13  1 20  0.0000000  0  7 21 25 22 29 20 30 06
  23731140.907    -7426680.957 7  -5764288.55945  23731138.171    23731150.2324
  20602410.539   -24722766.667 9 -18998143.63148  20602414.157    20602421.0344
  22512190.895   -15647078.909 8 -12172975.75346  22512189.793    22512198.7804
  21811844.430   -16353687.953 8 -12729854.89847  21811846.390    21811855.0834
  22797767.276   -12244807.684 8  -9515717.46746  22797769.475    22797778.0904
  22622040.000   -10400836.025 8  -8090484.79346  22622039.600    22622049.0764
  24419763.622    -4462329.645 7  -3310005.53445  24419768.251    24419781.7094
 00  7 13  1 20 30.0000000  0  7 21 25 22 29 20 30 06
  23753439.570    -7309469.901 8  -5672955.44645  23753442.998    23753455.9684
  20602502.799   -24722285.573 9 -18997768.75848  20602505.463    20602512.6614
  22491434.168   -15756153.005 8 -12257968.42146  22491432.964    22491443.1274
  21823754.637   -16291099.154 8 -12681084.45547  21823756.644    21823764.9084
  22784778.927   -12313034.319 8  -9568881.03746  22784785.993    22784794.4244
  22637187.629   -10321216.300 8  -8028443.47846  22637190.128    22637199.1244
  24410095.131    -4513141.265 7  -3349598.87645  24410099.706    24410112.5624
 00  7 13  1 21  0.0000000  0  7 21 25 22 29 20 30 06
  23775769.076    -7192147.366 8  -5581535.51745  23775770.157    23775782.1284
  20602641.933   -24721543.889 9 -18997190.82848  20602646.348    20602653.7534
  22470719.941   -15864970.838 8 -12342761.40946  22470725.514    22470734.8984
  21835720.407   -16228216.861 8 -12632085.31647  21835723.394    21835731.5764
  22771888.116   -12380799.930 8  -9621685.37546  22771891.739    22771899.0974
  22652413.249   -10241208.587 8  -7966099.85646  22652415.591    22652424.8524
  24400482.623    -4563643.162 8  -3388950.87145  24400491.016    24400501.3654
 00  7 13  1 21 30.0000000  0  7 21 25 22 29 20 30 06
  23798108.675    -7074715.871 7  -5490030.68545  23798114.239    23798128.5104
  20602834.059   -24720541.832 9 -18996410.01248  20602837.334    20602844.2434
  22450065.586   -15973530.258 8 -12427353.06346  22450067.465    22450076.8174
  21847740.600   -16165041.471 8 -12582857.78047  21847744.792    21847753.1694
  22759086.189   -12448102.508 8  -9674128.92946  22759084.286    22759091.6034
  22667711.634   -10160815.554 8  -7903455.99346  22667713.781    22667723.1184
  24390934.705    -4613832.775 7  -3428059.56445  24390938.778    24390950.1464
 00  7 13  1 22  0.0000000  0  7 21 25 22 29 20 30 06
  23820485.574    -6957178.161 7  -5398443.15445  23820482.086    23820496.4444
  20603075.171   -24719280.444 9 -18995427.10248  20603077.424    20603084.1454
  22429455.557   -16081828.770 8 -12511741.37846  22429458.756    22429468.7254
  21859823.135   -16101573.204 8 -12533402.04947  21859822.819    21859830.7944
  22746361.511   -12514939.609 8  -9726209.73446  22746365.279    22746373.6834
  22683078.627   -10080039.824 8  -7840513.90546  22683085.140    22683093.3574
  24381449.508    -4663707.687 8  -3466923.08445  24381449.126    24381458.6544
 00  7 13  1 22 30.0000000  0  7 21 25 22 29 20 30 06
  23842862.724    -6839537.594 7  -5306775.46545  23842869.206    23842881.7964
  20603363.188   -24717759.882 9 -18994242.23548  20603366.473    20603373.7484
  22408897.964   -16189863.214 8 -12595923.94646  22408901.167    22408909.8354
  21871953.848   -16037812.116 8 -12483718.13347  21871956.326    21871964.3344
  22733734.347   -12581308.858 8  -9777925.99146  22733735.527    22733742.7764
  22698529.263    -9998883.884 8  -7777275.54146  22698528.864    22698537.8054
  24372018.259    -4713265.487 8  -3505539.49945  24372017.624    24372027.8704
 00  7 13  1 23  0.0000000  0  7 21 25 22 29 20 30 06
  23865270.000    -6721796.891 8  -5215029.70145  23865275.562    23865287.9314
  20603702.896   -24715981.051 9 -18992856.11548  20603705.096    20603712.5554
  22388391.742   -16297630.784 8 -12679898.54946  22388392.778    22388403.4994
  21884141.286   -15973758.755 8 -12433806.48146  21884145.340    21884152.6554
  22721195.663   -12647208.159 8  -9829276.05846  22721195.488    22721203.6484
  22714041.235    -9917350.404 8  -7713743.01446  22714043.956    22714052.9394
  24362645.326    -4762503.517 7  -3543906.75445  24362646.478    24362659.8684
 00  7 13  1 23 30.0000000  0  7 21 25 22 29 20 30 06
  23887696.952    -6603959.125 8  -5123208.28345  23887699.055    23887712.3834
  20604089.146   -24713944.431 9 -18991269.12248  20604092.939    20604100.0524
  22367931.912   -16405128.845 8 -12763663.15146  22367937.382    22367946.7814
  21896387.364   -15909413.209 8 -12383667.13646  21896389.945    21896397.7414
  22708741.192   -12712635.274 8  -9880258.21046  22708744.493    22708753.2814
  22729631.593    -9835442.239 8  -7649918.51446  22729630.438    22729640.1484
  24353339.122    -4811419.350 7  -3582022.90045  24353338.919    24353352.1134
 00  7 13  1 24  0.0000000  0  7 21 25 22 29 20 30 06
  23910148.274    -6486027.188 7  -5031313.51645  23910140.203    23910153.2944
  20604526.483   -24711650.718 9 -18989481.79548  20604529.334    20604536.3734
  22347531.901   -16512355.267 8 -12847216.10646  22347532.853    22347542.2904
  21908686.707   -15844775.657 8 -12333300.25046  21908690.380    21908697.6944
  22696384.205   -12777587.930 8  -9930870.62246  22696385.138    22696393.4674
  22745287.764    -9753161.624 8  -7585803.80446  22745288.388    22745297.8274
  24344085.816    -4860010.456 7  -3619886.03645  24344092.478    24344105.0334
 00  7 13  1 24 30.0000000  0  7 21 25 22 29 20 30 06
  23932596.168    -6368003.524 7  -4939347.27945  23932599.592    23932614.1244
  20605011.669   -24709100.777 9 -18987494.81048  20605014.464    20605021.7374
  22327179.171   -16619307.541 8 -12930555.43046  22327180.009    22327188.6854
  21921044.746   -15779846.436 8 -12282706.10047  21921046.349    21921053.5054
  22684110.792   -12842063.780 8  -9981111.52246  22684115.288    22684124.0204
  22761004.665    -9670511.308 8  -7521401.01846  22761015.307    22761024.6194
  24334903.837    -4908274.435 7  -3657494.23545  24334907.554    24334919.0264
 00  7 13  1 25  0.0000000  0  7 21 25 22 29 20 30 06
  23955070.191    -6249891.770 7  -4847312.42745  23955075.960    23955089.6594
  20605545.647   -24706294.909 9 -18985308.40548  20605548.148    20605555.5914
  22306873.481   -16725982.478 8 -13013678.63946  22306880.027    22306889.6054
  21933455.453   -15714626.046 8 -12231885.06247  21933457.473    21933465.7744
  22671935.693   -12906060.620 8 -10030979.14946  22671936.577    22671945.2584
  22776808.410    -9587493.740 8  -7456712.05246  22776813.232    22776822.4774
  24325783.046    -4956208.849 8  -3694845.57545  24325786.079    24325797.4894
 00  7 13  1 25 30.0000000  0  7 21 25 22 29 20 30 06
  23977572.789    -6131694.621 7  -4755211.04345  23977569.409    23977583.0174
  20606128.507   -24703233.984 9 -18982923.24948  20606130.310    20606137.8844
  22286633.251   -16832377.277 8 -13096583.55346  22286633.889    22286643.2194
  21945920.480   -15649114.196 8 -12180836.92247  21945924.129    21945931.7424
  22659845.884   -12969576.457 8 -10080471.98646  22659849.643    22659858.5334
  22792679.576    -9504111.748 8  -7391739.12846  22792680.460    22792689.7864
  24316723.332    -5003811.282 8  -3731938.31445  24316728.406    24316738.7274
 00  7 13  1 26  0.0000000  0  7 21 25 22 29 20 30 06
  24000068.328    -6013414.586 7  -4663045.08745  24000076.111    24000091.1354
  20606755.574   -24699918.519 9 -18980339.76448  20606761.224    20606768.8534
  22266443.580   -16938489.516 8 -13179268.29646  22266441.405    22266450.7864
  21958443.852   -15583311.633 8 -12129562.23947  21958445.581    21958453.3454
  22647855.151   -13032608.932 8 -10129588.16246  22647855.726    22647864.4124
  22808615.673    -9420368.081 8  -7326484.37946  22808617.110    22808625.1324
  24307727.525    -5051079.325 7  -3768770.49745  24307731.724    24307743.6714
 00  7 13  1 26 30.0000000  0  7 21 25 22 29 20 30 06
  24022595.039    -5895054.878 7  -4570817.02645  24022599.016    24022613.7664
  20607436.889   -24696349.205 9 -18977558.47148  20607440.680    20607448.1804
  22246299.402   -17044316.913 8 -13261731.10546  22246303.571    22246312.2814
  21971012.308   -15517218.594 8 -12078061.23046  21971022.018    21971030.2954
  22635949.178   -13095155.984 8 -10178326.09446  22635953.482    22635961.5854
  22824619.532    -9336265.190 8  -7260949.70146  22824620.783    22824629.5614
  24298798.953    -5098010.569 7  -3805340.19345  24298800.503    24298813.9264
 00  7 13  1 27  0.0000000  0  7 21 25 22 29 20 30 06
  24045116.327    -5776619.181 7  -4478529.74345  24045138.114    24045150.6854
  20608165.326   -24692526.943 9 -18974580.07648  20608168.317    20608175.5894
  22226216.647   -17149856.929 8 -13343969.97346  22226219.257    22226229.4404
  21983651.343   -15450835.328 8 -12026334.06846  21983654.269    21983663.0604
  22624140.474   -13157215.345 8 -10226684.01546  22624144.351    22624152.2814
  22840688.248    -9251805.601 8  -7195137.10246  22840692.659    22840701.9744
  24289928.382    -5144602.616 7  -3841645.62745  24289936.223    24289948.4574
 00  7 13  1 27 30.0000000  0  7 21 25 22 29 20 30 06
  24067695.466    -5658109.077 7  -4386184.51945  24067688.882    24067704.4834
  20608940.857   -24688452.161 9 -18971404.90748  20608943.502    20608951.1674
  22206191.955   -17255106.514 8 -13425982.55346  22206191.553    22206200.7954
  21996335.782   -15384162.235 8 -11974381.07546  21996341.559    21996350.1254
  22612426.594   -13218784.887 8 -10274660.22846  22612427.182    22612436.0864
  22856828.142    -9166992.261 8  -7129048.84146  22856832.897    22856841.5854
  24281129.845    -5190852.777 8  -3877684.61845  24281135.421    24281146.8094
 00  7 13  1 28  0.0000000  0  7 21 25 22 29 20 30 06
  24090253.791    -5539528.193 7  -4293784.15445  24090255.115    24090268.0854
  20609762.117   -24684125.211 9 -18968033.24948  20609767.188    20609774.4784
  22186216.630   -17360062.883 8 -13507766.64646  22186218.885    22186227.6414
  22009085.082   -15317199.497 8 -11922202.36746  22009084.851    22009093.1794
  22600803.592   -13279862.470 8 -10322253.13046  22600804.835    22600813.5504
  22873033.628    -9081827.578 8  -7062686.80546  22873038.765    22873048.0684
  24272391.461    -5236758.803 7  -3913455.44145  24272398.425    24272410.4114
 00  7 13  1 28 30.0000000  0  7 21 25 22 29 20 30 06
  24112829.211    -5420879.535 7  -4201330.96945  24112832.017    24112847.9764
  20610634.420   -24679546.569 9 -18964465.46648  20610638.439    20610645.4834
  22166300.907   -17464723.648 8 -13589320.39046  22166302.764    22166311.5844
  22021875.452   -15249947.614 8 -11869798.36746  22021881.767    22021890.1384
  22589272.416   -13340446.028 8 -10369461.05846  22589276.195    22589285.0324
  22889308.530    -8996314.258 8  -6996053.11346  22889311.648    22889320.3644
  24263718.657    -5282318.389 7  -3948956.34545  24263728.118    24263740.6554
 00  7 13  1 29  0.0000000  0  7 21 25 22 29 20 30 06
  24135406.201    -5302165.507 7  -4108826.89845  24135422.621    24135438.4074
  20611553.991   -24674717.218 9 -18960702.33448  20611557.389    20611564.3944
  22146441.599   -17569086.708 8 -13670642.15446  22146442.722    22146451.5104
  22034732.154   -15182406.864 8 -11817169.27746  22034734.988    22034743.4844
  22577837.852   -13400533.522 8 -10416282.44746  22577840.866    22577849.5214
  22905647.173    -8910455.017 8  -6929149.84546  22905650.685    22905659.0024
  24255125.312    -5327529.183 7  -3984185.43645  24255126.286    24255137.4564
 00  7 13  1 29 30.0000000  0  7 21 25 22 29 20 30 06
  24158015.079    -5183389.021 7  -4016274.13245  24158026.023    24158041.7504
  20612520.707   -24669637.865 9 -18956744.40048  20612523.831    20612531.2474
  22126641.594   -17673149.183 8 -13751729.68646  22126640.002    22126649.0374
  22047638.534   -15114577.564 8 -11764315.32846  22047642.451    22047651.1234
  22566499.069   -13460122.620 8 -10462715.46446  22566500.812    22566511.1514
  22922052.269    -8824252.446 8  -6861979.05646  22922053.747    22922063.1284
  24246588.773    -5372388.875 8  -4019140.96545  24246589.642    24246601.4254
 00  7 13  1 30  0.0000000  0  7 21 25 22 29 20 30 06
  24180646.286    -5064553.345 7  -3923675.27445  24180640.160    24180655.8474
  20613534.843   -24664309.431 9 -18952592.36048  20613537.681    20613545.1774
  22106892.899   -17776908.049 8 -13832580.63746  22106895.343    22106904.6904
  22060596.231   -15046460.138 8 -11711236.87846  22060604.041    22060613.9134
  22555255.174   -13519211.429 8 -10508758.65446  22555258.323    22555266.2494
  22938515.708    -8737709.182 8  -6794542.82046  22938522.058    22938531.3644
  24238118.120    -5416895.179 8  -4053821.15245  24238120.448    24238131.2084
 00  7 13  1 30 30.0000000  0  7 21 25 22 29 20 30 06
  24203262.301    -4945661.358 7  -3831032.54745  24203265.657    24203279.3674
  20614595.903   -24658731.615 9 -18948246.00048  20614598.955    20614606.3084
  22087208.209   -17880360.891 8 -13913193.14146  22087209.142    22087217.8794
  22073618.271   -14978054.836 8 -11657934.11246  22073621.549    22073630.4304
  22544105.451   -13577798.048 8 -10554410.54446  22544109.083    22544117.3564
  22955049.250    -8650828.016 8  -6726843.25746  22955054.987    22955063.7464
  24229720.052    -5461045.717 7  -4088224.09545  24229717.822    24229730.9294
 00  7 13  1 31  0.0000000  0  7 21 25 22 29 20 30 06
  24225904.797    -4826715.518 7  -3738347.85445  24225900.035    24225914.2124
  20615705.219   -24652905.655 9 -18943706.28948  20615707.852    20615714.8814
  22067577.891   -17983505.304 8 -13993565.32846  22067581.035    22067590.1054
  22086691.870   -14909362.151 8 -11604407.40246  22086694.124    22086702.5324
  22533058.484   -13635880.174 8 -10599669.30346  22533056.251    22533066.0864
  22971651.452    -8563611.408 8  -6658882.32246  22971652.624    22971661.1144
  24221383.002    -5504838.084 8  -4122347.93945  24221384.900    24221396.5874
 00  7 13  1 31 30.0000000  0  7 21 25 22 29 20 30 06
  24248538.960    -4707718.896 7  -3645623.54045  24248544.009    24248558.7454
  20616859.708   -24646832.038 9 -18938973.60048  20616863.602    20616870.7584
  22048008.453   -18086339.045 8 -14073695.42046  22048011.184    22048020.5314
  22099817.618   -14840382.333 8 -11550656.95446  22099820.914    22099828.1754
  22522094.361   -13693455.860 8 -10644533.44346  22522099.841    22522108.6064
  22988303.747    -8476062.160 8  -6590662.15546  22988312.259    22988321.1764
  24213119.930    -5548269.921 8  -4156190.84245  24213120.718    24213131.9354
 00  7 13  1 32  0.0000000  0  6 25 22 29 20 30 06
  20618062.501   -24640511.095 9 -18934048.18748  20618066.230    20618073.5554
  22028499.989   -18188859.267 8 -14153581.21446  22028503.082    22028512.0354
  22112999.610   -14771116.013 8 -11496683.24946  22113001.854    22113010.1104
  22511238.825   -13750523.112 8 -10689001.43046  22511240.944    22511249.3444
  23005035.817    -8388182.724 8  -6522184.73646  23005034.368    23005043.2214
  24204922.757    -5591338.974 8  -4189751.06945  24204924.538    24204935.9084
 00  7 13  1 32 30.0000000  0  6 25 22 29 20 30 06
  20619311.946   -24633944.017 9 -18928930.97248  20619315.826    20619323.1124
  22009052.009   -18291063.105 8 -14233220.48746  22009053.961    22009063.1334
  22126234.632   -14701563.385 8 -11442486.45246  22126237.415    22126245.5084
  22500477.940   -13807079.966 8 -10733071.65946  22500478.573    22500486.2084
  23021815.152    -8299976.001 8  -6453452.26846  23021820.699    23021829.6144
  24196796.790    -5634043.118 8  -4223026.98645  24196798.767    24196809.3344
 00  7 13  1 33  0.0000000  0  6 25 22 29 20 30 06
  20620610.864   -24627130.932 9 -18923622.06748  20620612.423    20620619.5654
  21989664.960   -18392947.993 8 -14312611.18946  21989666.245    21989675.0784
  22139523.834   -14631725.090 8 -11388067.05746  22139526.764    22139535.0234
  22489810.670   -13863124.606 8 -10776742.78646  22489813.147    22489822.2884
  23038664.690    -8211444.457 8  -6384466.71646  23038667.116    23038676.9854
  24188733.714    -5676380.149 7  -4256016.82845  24188741.151    24188752.0674
 00  7 13  1 33 30.0000000  0  6 25 22 29 20 30 06
  20621952.636   -24620072.648 9 -18918122.10848  20621955.416    20621962.7554
  21970339.017   -18494511.726 8 -14391751.66347  21970339.269    21970348.3364
  22152863.614   -14561601.382 8 -11333425.24346  22152869.689    22152879.0144
  22479248.218   -13918654.812 8 -10820013.04146  22479247.453    22479255.4004
  23055568.161    -8122590.982 8  -6315230.29046  23055575.965    23055585.1454
  24180744.355    -5718347.844 7  -4288718.90145  24180753.651    24180765.6274
 00  7 13  1 34  0.0000000  0  6 25 22 29 20 30 06
  20623340.402   -24612769.854 9 -18912431.61148  20623344.994    20623352.4434
  21951071.452   -18595752.123 8 -14470640.20146  21951073.132    21951082.2614
  22166264.791   -14491192.617 8 -11278561.35846  22166269.618    22166277.4734
  22468778.757   -13973668.656 8 -10862880.93446  22468778.087    22468786.0724
  23072539.316    -8033418.168 8  -6245745.02446  23072544.812    23072554.0584
  24172834.454    -5759943.833 8  -4321131.30045  24172839.468    24172850.3234
 00  7 13  1 34 30.0000000  0  6 25 22 29 20 30 06
  20624777.490   -24605223.190 9 -18906551.09348  20624781.230    20624788.7584
  21931868.304   -18696666.229 8 -14549274.48947  21931869.800    21931879.6194
  22179723.272   -14420499.521 8 -11223475.88746  22179722.002    22179729.9944
  22458403.621   -14028164.307 8 -10905345.05546  22458407.171    22458416.1304
  23089571.762    -7943928.698 8  -6176013.03246  23089573.337    23089583.8024
  24164990.428    -5801165.707 8  -4353252.20445  24164995.987    24165006.1904
 00  7 13  1 35  0.0000000  0  6 25 22 29 20 30 06
  20626261.689   -24597432.797 9 -18900480.66748  20626263.799    20626271.1244
  21912726.794   -18797251.261 8 -14627652.34447  21912729.229    21912738.6514
  22193224.018   -14349522.285 8 -11168168.99946  22193228.317    22193236.5524
  22448135.122   -14082139.932 8 -10947403.97146  22448135.505    22448143.9224
  23106661.458    -7854125.219 8  -6106036.36146  23106663.326    23106672.9504
  24157225.284    -5842011.366 8  -4385079.93945  24157222.631    24157233.1894
 00  7 13  1 35 30.0000000  0  6 25 22 29 20 30 06
  20627790.013   -24589399.563 9 -18894221.00948  20627792.805    20627799.8234
  21893649.365   -18897504.721 8 -14705771.83147  21893651.405    21893661.0004
  22206786.842   -14278261.461 8 -11112641.15646  22206788.704    22206797.2654
  22437961.479   -14135593.377 8 -10989055.98946  22437964.232    22437972.7824
  23123803.769    -7764010.409 8  -6035817.05046  23123811.722    23123820.6744
  24149517.495    -5882478.769 8  -4416612.94445  24149522.040    24149532.1984
 00  7 13  1 36  0.0000000  0  6 25 22 29 20 30 06
  20629364.905   -24581124.067 9 -18887772.57148  20629367.469    20629374.6344
  21874637.835   -18997424.426 8 -14783631.25747  21874638.113    21874646.6914
  22220400.254   -14206717.425 8 -11056892.60246  22220403.104    22220411.3794
  22427890.392   -14188522.985 8 -11030299.82946  22427892.680    22427900.3464
  23141008.151    -7673586.794 8  -5965357.15246  23141018.031    23141027.9724
  24141888.316    -5922565.532 7  -4447849.37445  24141893.252    24141905.0464
 00  7 13  1 36 30.0000000  0  6 25 22 29 20 30 06
  20630984.857   -24572607.293 9 -18881136.11848  20630988.348    20630995.2624
  21855682.286   -19097008.111 8 -14861228.87847  21855687.604    21855696.4594
  22234067.000   -14134890.818 8 -11000923.89846  22234071.550    22234079.6874
  22417918.599   -14240926.793 8 -11071133.95146  22417919.659    22417927.6684
  23158285.192    -7582857.240 8  -5894658.84546  23158284.602    23158292.6494
  24134330.822    -5962269.482 7  -4478787.45345  24134337.265    24134349.5724
 00  7 13  1 37  0.0000000  0  6 25 22 29 20 30 06
  20632652.813   -24563849.163 9 -18874311.60248  20632655.073    20632661.8144
  21836799.919   -19196252.916 8 -14938562.41147  21836801.900    21836811.5414
  22247792.553   -14062782.035 8 -10944735.27746  22247793.558    22247801.2354
  22408045.820   -14292803.021 8 -11111556.96446  22408047.526    22408056.4854
  23175605.521    -7491824.363 8  -5823724.18046  23175606.968    23175616.7204
  24126850.547    -6001588.683 7  -4509425.74745  24126855.610    24126867.1924
 00  7 13  1 37 30.0000000  0  6 25 22 29 20 30 06
  20634363.590   -24554850.773 9 -18867299.87248  20634367.219    20634374.0794
  21817976.175   -19295156.144 8 -15015629.75347  21817980.667    21817990.8794
  22261566.785   -13990391.599 8 -10888327.20146  22261569.066    22261576.9944
  22398275.243   -14344149.954 8 -11151567.53146  22398277.837    22398285.2234
  23192980.331    -7400491.052 8  -5752555.43546  23192986.046    23192996.4384
  24119438.438    -6040520.931 8  -4539762.52145  24119448.181    24119459.5464
 00  7 13  1 38  0.0000000  0  6 25 22 29 20 30 06
  20636121.924   -24545612.411 9 -18860101.14448  20636125.516    20636132.1744
  21799224.859   -19393715.326 8 -15092429.03847  21799226.013    21799235.0264
  22275389.142   -13917719.962 8 -10831700.01846  22275397.306    22275406.4144
  22388608.668   -14394965.587 8 -11191164.13246  22388607.646    22388615.3284
  23210422.159    -7308859.574 8  -5681154.33246  23210423.990    23210433.5124
  24112114.127    -6079063.979 8  -4569796.02645  24112113.073    24112124.3454
 00  7 13  1 38 30.0000000  0  6 25 22 29 20 30 06
  20637924.396   -24536134.733 9 -18852715.93148  20637928.872    20637935.7234
  21780534.530   -19491928.427 8 -15168958.65647  21780536.681    21780545.4504
  22289280.587   -13844767.606 8 -10774854.09946  22289280.352    22289289.4144
  22379039.004   -14445248.275 8 -11230345.42746  22379038.983    22379046.9394
  23227913.692    -7216932.704 8  -5609523.03846  23227916.314    23227925.9494
  24104849.048    -6117215.728 8  -4599524.61145  24104852.430    24104865.3044
 00  7 13  1 39  0.0000000  0  6 25 22 29 20 30 06
  20639775.040   -24526418.567 9 -18845144.89548  20639777.933    20639784.8764
  21761914.001   -19589793.111 8 -15245216.77547  21761913.201    21761922.6054
  22303205.652   -13771535.196 8 -10717789.97046  22303215.220    22303224.1674
  22369567.827   -14494996.129 8 -11269109.98346  22369571.558    22369579.4404
  23245459.564    -7124713.298 8  -5537663.83146  23245465.546    23245475.2864
  24097662.335    -6154974.060 8  -4628946.62745  24097666.900    24097678.2554
 00  7 13  1 39 30.0000000  0  6 25 22 29 20 30 06
  20641669.297   -24516464.392 9 -18837388.39448  20641672.179    20641679.0744
  21743355.790   -19687306.492 8 -15321201.14747  21743357.195    21743366.2404
  22317202.842   -13698023.025 8 -10660507.84446  22317204.568    22317213.3434
  22360203.664   -14544207.393 8 -11307456.41346  22360207.044    22360215.9984
  23263068.192    -7032203.775 8  -5465578.53246  23263070.281    23263079.6854
  24090548.648    -6192336.945 7  -4658060.52045  24090557.037    24090568.0334
 00  7 13  1 40  0.0000000  0  7 25 22 29 20 16 30 06
  20643606.650   -24506272.703 9 -18829446.81248  20643611.481    20643618.4214
  21724863.337   -19784465.894 8 -15396909.69247  21724867.649    21724877.0394
  22331247.503   -13624231.900 8 -10603008.32546  22331246.928    22331255.1244
  22350945.367   -14592880.490 8 -11345383.49546  22350945.912    22350952.2494
  24623474.312    -1721835.35317  -1327703.09955  24623473.389    24623484.6134
  23280725.283    -6939407.241 8  -5393269.58846  23280728.472    23280738.0354
  24083517.452    -6229302.099 8  -4686864.48545  24083522.291    24083534.4464
 00  7 13  1 40 30.0000000  0  7 25 22 29 20 16 30 06
  20645593.855   -24495844.279 9 -18821320.77148  20645595.944    20645602.7304
  21706447.650   -19881269.076 8 -15472340.67447  21706446.681    21706456.1074
  22345334.593   -13550162.220 8 -10545291.74646  22345341.153    22345351.1184
  22341784.879   -14641013.604 8 -11382889.81046  22341785.615    22341793.8034
  24606036.426    -1813418.339 7  -1399066.41845  24606045.247    24606057.1954
  23298439.538    -6846325.891 8  -5320738.73746  23298440.567    23298451.1044
  24076561.502    -6265867.505 8  -4715356.97545  24076564.530    24076575.7354
 00  7 13  1 41  0.0000000  0  7 25 22 29 20 16 30 06
  20647621.521   -24485179.152 9 -18813010.26648  20647625.325    20647632.1774
  21688091.567   -19977713.986 8 -15547492.47147  21688094.091    21688102.7844
  22359485.586   -13475814.554 8 -10487358.58146  22359489.539    22359498.7284
  22332728.198   -14688605.058 8 -11419974.05646  22332729.929    22332737.1864
  24588667.022    -1904702.721 7  -1470196.97245  24588674.335    24588686.3144
  23316206.627    -6752962.492 8  -5247988.10246  23316208.787    23316218.2784
  24069680.731    -6302031.069 8  -4743536.29945  24069683.434    24069695.1074
 00  7 13  1 41 30.0000000  0  7 25 22 29 20 16 30 06
  20649696.615   -24474278.188 9 -18804516.00648  20649699.782    20649706.7344
  21669810.132   -20073798.275 9 -15622363.27647  21669810.080    21669818.7014
  22373685.144   -13401189.477 8 -10429209.24646  22373690.487    22373699.5624
  22323772.868   -14735653.141 8 -11456634.88546  22323776.145    22323784.6764
  24571368.357    -1995685.330 7  -1541092.44745  24571361.330    24571371.9964
  23334023.707    -6659319.890 8  -5175019.89846  23334027.603    23334037.9804
  24062876.688    -6337790.861 8  -4771401.01745  24062878.064    24062889.2164
 00  7 13  1 42  0.0000000  0  7 25 22 29 20 16 30 06
  20651815.891   -24463141.960 9 -18795838.43548  20651818.521    20651825.7314
  21651592.730   -20169518.990 9 -15696950.78147  21651594.882    21651603.3534
  22387939.759   -13326287.530 8 -10370844.17346  22387944.064    22387952.1794
  22314927.920   -14782156.398 8 -11492871.18446  22314927.522    22314935.2804
  24554104.891    -2086363.988 7  -1611751.14345  24554106.603    24554115.9164
  23351897.099    -6565400.605 8  -5101836.08746  23351900.094    23351909.8154
  24056141.275    -6373144.873 8  -4798949.53045  24056149.418    24056162.1294
 00  7 13  1 42 30.0000000  0  7 25 22 29 20 16 30 06
  20653979.779   -24451770.994 9 -18786977.93348  20653982.842    20653989.4074
  21633448.801   -20264873.707 8 -15771253.08047  21633449.009    21633458.6424
  22402247.305   -13251109.285 8 -10312263.80446  22402251.048    22402259.2734
  22306183.877   -14828113.114 8 -11528681.62146  22306182.343    22306189.5554
  24536895.296    -2176735.842 7  -1682170.72945  24536906.975    24536918.5474
  23369823.766    -6471207.589 8  -5028438.99246  23369824.701    23369834.0904
  24049497.606    -6408091.130 8  -4826180.31045  24049499.970    24049511.2544
 00  7 13  1 43  0.0000000  0  7 25 22 29 20 16 30 06
  20656187.625   -24440166.116 9 -18777935.16848  20656191.230    20656197.9344
  21615369.229   -20359860.157 8 -15845268.41747  21615373.675    21615382.5534
  22416607.990   -13175655.484 8 -10253468.68846  22416608.677    22416617.3254
  22297537.312   -14873521.413 8 -11564064.72446  22297540.304    22297548.8514
  24519769.525    -2266798.035 7  -1752349.05645  24519769.241    24519781.5744
  23387797.847    -6376743.212 8  -4954830.45546  23387801.407    23387810.0134
  24042924.555    -6442627.535 8  -4853091.71445  24042929.022    24042938.8274
 00  7 13  1 43 30.0000000  0  7 25 22 29 20 16 30 06
  20658441.593   -24428327.373 9 -18768710.16848  20658443.905    20658450.8224
  21597364.330   -20454476.369 8 -15918995.27047  21597369.284    21597377.6834
  22431010.188   -13099926.461 8 -10194459.13346  22431018.344    22431028.0704
  22289001.633   -14918379.883 8 -11599019.37746  22289005.051    22289013.2164
  24502685.202    -2356548.075 7  -1822284.15545  24502690.973    24502702.5244
  23405819.805    -6282010.396 8  -4881012.72546  23405827.758    23405836.7054
  24036431.695    -6476752.237 8  -4879682.35345  24036435.645    24036445.0604
 00  7 13  1 44  0.0000000  0  7 25 22 29 20 16 30 06
  20660738.023   -24416255.909 9 -18759303.82948  20660740.651    20660747.8744
  21579429.698   -20548719.818 8 -15992431.63847  21579434.580    21579443.8844
  22445480.541   -13023923.126 8 -10135235.81846  22445481.659    22445490.6294
  22280571.790   -14962687.159 8 -11633544.51847  22280573.525    22280581.8514
  24485671.205    -2445983.287 7  -1891973.92945  24485672.088    24485683.5464
  23423904.674    -6187011.587 8  -4806987.73646  23423905.796    23423914.8334
  24030017.362    -6510463.150 8  -4905950.56145  24030020.374    24030030.8464
 00  7 13  1 44 30.0000000  0  7 25 22 29 20 16 30 06
  20663077.569   -24403951.941 9 -18749716.32148  20663082.425    20663089.1034
  21561571.906   -20642587.802 9 -16065575.45647  21561572.424    21561580.7434
  22459993.936   -12947645.819 8 -10075799.02646  22459996.307    22460005.9924
  22272244.585   -15006441.377 8 -11667638.70746  22272247.072    22272254.7564
  24468712.764    -2535101.127 7  -1961416.35345  24468712.503    24468724.1834
  23442025.837    -6091749.452 8  -4732757.58346  23442033.755    23442043.1674
  24023685.595    -6543758.235 8  -4931894.71645  24023684.879    24023694.9654
 00  7 13  1 45  0.0000000  0  7 25 22 29 20 16 30 06
  20665464.711   -24391415.801 9 -18739947.88948  20665467.828    20665474.5924
  21543777.422   -20736077.830 9 -16138424.77347  21543782.409    21543790.3734
  22474559.908   -12871095.369 8 -10016149.40646  22474564.204    22474572.6394
  22264022.525   -15049641.108 8 -11701300.83246  22264025.920    22264035.0914
  24451815.308    -2623898.828 7  -2030609.34045  24451816.094    24451827.6124
  23460211.618    -5996226.656 8  -4658324.32246  23460210.603    23460220.6344
  24017423.961    -6576635.755 8  -4957513.51345  24017427.910    24017438.2374
 00  7 13  1 45 30.0000000  0  7 25 22 29 20 16 30 06
  20667895.086   -24378648.554 9 -18729999.38548  20667897.496    20667904.4194
  21526060.735   -20829187.859 9 -16210977.97747  21526063.990    21526072.3364
  22489182.004   -12794272.355 8  -9956287.37846  22489184.050    22489193.0574
  22255911.590   -15092284.870 8 -11734529.73547  22255911.841    22255919.6764
  24434979.635    -2712373.597 7  -2099550.67345  24434979.574    24434991.9104
  23478424.662    -5900445.803 8  -4583689.96345  23478437.227    23478446.8244
  24011254.136    -6609093.905 8  -4982805.50545  24011250.727    24011260.9434
 00  7 13  1 46  0.0000000  0  7 25 22 29 20 16 30 06
  20670367.987   -24365650.541 9 -18719871.06548  20670370.728    20670378.0074
  21508417.306   -20921915.923 9 -16283233.53047  21508417.743    21508426.7364
  22503852.183   -12717177.332 8  -9896213.38446  22503854.567    22503863.7994
  22247901.943   -15134371.137 8 -11767324.23147  22247903.596    22247910.9864
  24418194.858    -2800523.068 7  -2168238.51945  24418204.687    24418215.3284
  23496710.971    -5804409.548 8  -4508856.55245  23496712.657    23496721.5284
  24005151.556    -6641130.507 8  -5007769.05345  24005154.791    24005164.5714
 00  7 13  1 46 30.0000000  0  7 25 22 29 20 16 30 06
  20672884.327   -24352422.380 9 -18709563.40048  20672888.377    20672895.1204
  21490844.188   -21014259.416 9 -16355189.42747  21490845.433    21490854.1914
  22518574.018   -12639811.050 8  -9835928.03546  22518576.704    22518585.9674
  22240000.753   -15175898.443 8 -11799683.16147  22240001.073    22240008.8554
  24401489.481    -2888344.303 7  -2236670.61045  24401492.311    24401503.0684
  23515039.769    -5708120.738 8  -4433826.37645  23515035.904    23515045.5844
  23999132.593    -6672743.717 8  -5032402.67445  23999139.375    23999149.2644
 00  7 13  1 47  0.0000000  0  7 25 22 29 20 16 30 06
  20675446.822   -24338964.543 9 -18699076.77448  20675449.377    20675456.1014
  21473343.812   -21106215.659 8 -16426843.57347  21473346.824    21473355.6804
  22533346.510   -12562174.180 8  -9775431.83746  22533350.306    22533359.9754
  22232202.123   -15216865.273 8 -11831605.34547  22232204.778    22232213.2774
  24384849.400    -2975834.619 7  -2304844.76045  24384844.161    24384855.4714
  23533404.299    -5611581.870 8  -4358601.36346  23533406.920    23533416.9614
  23993195.503    -6703931.821 8  -5056705.04845  23993203.851    23993216.3054
 00  7 13  1 47 30.0000000  0  7 25 22 29 20 16 30 06
  20678050.409   -24325277.817 9 -18688411.79348  20678053.783    20678060.6544
  21455922.700   -21197782.451 9 -16498194.24147  21455922.427    21455931.1664
  22548170.520   -12484267.330 8  -9714725.25646  22548175.020    22548184.6374
  22224510.440   -15257270.392 8 -11863089.82847  22224515.255    22224524.5344
  24368264.672    -3062991.813 7  -2372759.38445  24368258.448    24368269.7734
  23551822.323    -5514795.758 8  -4283183.67546  23551824.627    23551834.1394
  23987339.190    -6734692.957 8  -5080674.68845  23987350.611    23987360.5134
 00  7 13  1 48  0.0000000  0  8 25 01 22 29 20 16 30 06
  20680697.683   -24311362.158 9 -18677568.42148  20680702.046    20680708.8534
  24766896.564    -1606016.56917  -1227809.41455  24766901.384    24766912.3914
  21438573.322   -21288957.687 9 -16569239.81147  21438572.110    21438580.4174
  22563046.435   -12406091.225 8  -9653808.88046  22563051.936    22563060.9994
  22216937.226   -15297112.076 8 -11894135.28347  22216935.226    22216942.6714
  24351726.908    -3149812.963 7  -2440412.17245  24351737.088    24351747.8964
  23570289.721    -5417764.837 8  -4207575.22346  23570288.653    23570298.4494
  23981573.783    -6765025.106 8  -5104310.06145  23981578.246    23981588.1594
 00  7 13  1 48 30.0000000  0  8 25 01 22 29 20 16 30 06
  20683389.819   -24297218.694 9 -18666547.54748  20683393.634    20683400.3294
  24748863.054    -1700773.098 7  -1301645.58245  24748870.195    24748880.0114
  21421293.084   -21379739.413 9 -16639978.75547  21421297.114    21421305.0384
  22577978.535   -12327646.637 8  -9592683.30446  22577980.421    22577988.1264
  22209457.408   -15336389.073 8 -11924740.71347  22209460.607    22209469.2764
  24335286.628    -3236295.359 7  -2507800.95345  24335280.278    24335291.0134
  23588796.241    -5320491.871 8  -4131778.19046  23588799.304    23588809.4854
  23975885.819    -6794926.616 8  -5127609.90645  23975888.645    23975897.4264
 00  7 13  1 49  0.0000000  0  8 25 01 22 29 20 16 30 06
  20686124.728   -24282847.606 9 -18655349.30248  20686127.867    20686134.9014
  24730832.301    -1795552.610 7  -1375499.64145  24730832.942    24730844.8564
  21404092.878   -21470125.021 9 -16710409.03047  21404097.039    21404105.0314
  22592955.049   -12248934.143 8  -9531348.94346  22592958.636    22592967.5494
  22202091.251   -15375100.190 8 -11954905.20247  22202093.700    22202101.6944
  24318876.049    -3322436.409 7  -2574923.76645  24318887.546    24318899.4894
  23607353.384    -5222979.451 8  -4055794.56746  23607355.347    23607364.8554
  23970278.639    -6824395.501 8  -5150572.64445  23970280.529    23970291.5024
 00  7 13  1 49 30.0000000  0  8 25 01 22 29 20 16 30 06
  20688903.578   -24268249.233 9 -18643973.95448  20688905.852    20688912.8494
  24712786.552    -1890354.022 7  -1449370.79945  24712791.719    24712804.0234
  21386973.267   -21560111.997 9 -16780528.68347  21386973.089    21386980.8964
  22607982.460   -12169954.515 8  -9469806.45546  22607987.504    22607996.2734
  22194834.386   -15413243.989 8 -11984627.63447  22194834.936    22194844.0454
  24302563.451    -3408233.901 7  -2641778.88945  24302561.490    24302572.2804
  23625952.433    -5125230.166 8  -3979626.36745  23625956.905    23625965.7204
  23964752.339    -6853430.065 8  -5173196.94645  23964755.984    23964765.5044
 00  7 13  1 50  0.0000000  0  8 25 01 22 29 20 16 30 06
  20691723.105   -24253424.435 9 -18632422.17048  20691726.928    20691733.6724
  24694747.375    -1985176.103 7  -1523258.06945  24694748.385    24694759.8764
  21369923.547   -21649698.019 9 -16850335.89747  21369924.896    21369933.8894
  22623066.690   -12090708.290 8  -9408056.21146  22623067.810    22623077.4364
  22187683.629   -15450819.056 8 -12013906.86847  22187684.565    22187693.1054
  24286291.603    -3493684.858 8  -2708363.98745  24286301.904    24286309.9994
  23644598.182    -5027246.610 8  -3903275.58445  23644602.306    23644611.2844
  23959305.688    -6882028.603 8  -5195481.46045  23959313.736    23959323.3944
 00  7 13  1 50 30.0000000  0  8 25 01 22 29 20 16 30 06
  20694587.041   -24238373.633 9 -18620694.27048  20694590.953    20694597.6684
  24676697.707    -2080017.701 7  -1597160.51845  24676701.347    24676712.5844
  21352953.645   -21738881.272 9 -16919829.26447  21352954.418    21352962.8844
  22638195.833   -12011196.423 8  -9346098.97446  22638198.899    22638207.6954
  22180640.468   -15487824.121 8 -12042741.95747  22180643.308    22180650.6974
  24270107.865    -3578786.814 8  -2774677.14445  24270105.878    24270117.2694
  23663291.370    -4929031.595 8  -3826744.46045  23663291.267    23663301.7494
  23953954.264    -6910189.270 8  -5217424.79245  23953954.515    23953964.1054
 00  7 13  1 51  0.0000000  0  8 25 01 22 29 20 16 30 06
  20697494.968   -24223097.277 9 -18608790.63148  20697497.944    20697504.8524
  24658641.614    -2174877.557 7  -1671077.24145  24658651.830    24658661.6924
  21336054.823   -21827659.777 9 -16989007.24947  21336060.493    21336068.8134
  22653375.577   -11931419.492 8  -9283935.20946  22653379.685    22653388.2864
  22173706.342   -15524258.049 8 -12071132.02247  22173709.895    22173717.8674
  24253977.938    -3663537.172 8  -2840716.29945  24253978.328    24253990.0054
  23682013.199    -4830587.566 8  -3750034.92245  23682025.558    23682035.0994
  23948674.630    -6937910.394 8  -5239025.60645  23948679.231    23948689.8574
 00  7 13  1 51 30.0000000  0  8 25 01 22 29 20 16 30 06
  20700444.187   -24207595.881 9 -18596711.63448  20700447.378    20700454.7444
  24640597.964    -2269754.583 8  -1745007.32245  24640596.921    24640607.4334
  21319243.795   -21916030.880 9 -17057867.77547  21319243.840    21319252.3904
  22668605.608   -11851378.337 8  -9221565.55046  22668610.561    22668620.0784
  22166880.242   -15560119.464 8 -12099075.98047  22166884.881    22166894.1194
  24237915.242    -3747933.212 8  -2906479.38945  24237919.795    24237929.6934
  23700798.623    -4731917.504 8  -3673149.22245  23700801.995    23700811.4514
  23943482.906    -6965190.234 8  -5260282.58945  23943488.119    23943497.8924
 00  7 13  1 52  0.0000000  0  8 25 01 22 29 20 16 30 06
  20703436.551   -24191870.297 9 -18584457.92948  20703440.088    20703447.1944
  24622543.562    -2364647.513 8  -1818949.76945  24622540.266    24622548.9034
  21302504.460   -22003992.141 9 -17126408.95947  21302505.184    21302513.2094
  22683890.240   -11771073.699 8  -9158990.58046  22683892.408    22683901.6754
  22160169.241   -15595407.185 8 -12126572.88547  22160170.346    22160179.4064
  24221922.958    -3831972.405 7  -2971964.44445  24221926.315    24221937.1954
  23719611.317    -4633023.645 8  -3596089.13945  23719620.313    23719630.1404
  23938378.533    -6992027.064 8  -5281194.35945  23938380.880    23938390.2104
 00  7 13  1 52 30.0000000  0  8 25 01 22 29 20 16 30 06
  20706473.109   -24175920.870 9 -18572029.81048  20706474.955    20706482.1374
  24604472.448    -2459555.097 7  -1892903.65345  24604478.239    24604488.8774
  21285843.082   -22091541.501 9 -17194629.17247  21285844.725    21285853.5804
  22699224.913   -11690506.411 8  -9096210.95446  22699223.734    22699233.1934
  22153564.174   -15630119.971 8 -12153621.78247  22153564.667    22153573.5504
  24206005.588    -3915652.243 8  -3037169.44445  24206003.436    24206013.4484
  23738482.887    -4533908.681 8  -3518856.76345  23738480.855    23738490.9434
  23933356.644    -7018419.207 8  -5301759.61145  23933359.366    23933369.0684
 00  7 13  1 53  0.0000000  0  8 25 01 22 29 20 16 30 06
  20709550.766   -24159747.918 9 -18559427.51548  20709552.580    20709559.6854
  24586406.499    -2554475.881 7  -1966867.80945  24586414.844    24586425.8654
  21269260.276   -22178677.120 9 -17262526.99447  21269263.725    21269272.2834
  22714603.546   -11609677.133 8  -9033227.20946  22714605.956    22714614.3594
  22147067.147   -15664256.651 8 -12180221.77347  22147068.687    22147077.4904
  24190143.441    -3998970.133 8  -3102092.42545  24190148.857    24190159.3704
  23757374.742    -4434575.112 8  -3441454.06945  23757383.537    23757394.0794
  23928419.140    -7044365.071 8  -5321977.12845  23928421.907    23928431.3194
 00  7 13  1 53 30.0000000  0  8 25 01 22 29 20 16 30 06
  20712666.779   -24143351.875 9 -18546651.37648  20712672.453    20712679.9934
  24568352.516    -2649408.911 7  -2040841.46645  24568349.412    24568360.4264
  21252760.663   -22265396.900 9 -17330100.79247  21252761.772    21252769.6864
  22730034.091   -11528586.568 8  -8970039.83546  22730036.826    22730045.1944
  22140679.921   -15697815.977 8 -12206371.90147  22140682.789    22140691.2744
  24174365.581    -4081923.270 8  -3166731.20945  24174362.836    24174373.0064
  23776323.978    -4335026.079 8  -3363883.47945  23776327.672    23776337.4834
  23923569.659    -7069863.128 8  -5341845.68845  23923569.170    23923579.9974
 00  7 13  1 54  0.0000000  0  8 25 01 22 29 20 16 30 06
  20715831.623   -24126733.653 9 -18533702.11348  20715834.875    20715842.2934
  24550281.196    -2744352.857 7  -2114823.68045  24550282.195    24550292.4414
  21236332.975   -22351698.343 9 -17397348.63347  21236338.716    21236346.7584
  22745511.351   -11447235.599 8  -8906649.53746  22745516.926    22745525.8564
  22134404.387   -15730796.831 8 -12232071.25447  22134406.237    22134415.2774
  24158641.073    -4164509.353 8  -3231083.94545  24158646.291    24158657.0864
  23795304.549    -4235263.877 8  -3286146.75745  23795312.057    23795322.0674
  23918795.859    -7094911.659 8  -5361363.97445  23918802.769    23918813.7634
 00  7 13  1 54 30.0000000  0  8 25 01 22 29 20 16 30 06
  20719036.789   -24109893.580 9 -18520579.97548  20719039.439    20719046.7974
  24532211.440    -2839306.411 8  -2188813.41945  24532213.586    24532222.8054
  21219994.650   -22437579.057 9 -17464268.62047  21219996.103    21220004.9004
  22761046.879   -11365625.069 8  -8843057.00846  22761047.326    22761055.1714
  22128239.241   -15763198.398 8 -12257319.24047  22128241.049    22128248.9884
  24143000.738    -4246725.965 8  -3295148.88245  24143001.372    24143012.6504
  23814328.265    -4135290.732 8  -3208245.68345  23814336.312    23814346.7194
  23914118.348    -7119508.908 8  -5380530.60745  23914121.563    23914132.6144
 00  7 13  1 55  0.0000000  0  8 25 01 22 29 20 16 30 06
  20722281.844   -24092831.795 9 -18507285.07548  20722286.247    20722293.6374
  24514141.862    -2934268.265 8  -2262809.60745  24514143.236    24514152.8064
  21203731.383   -22523037.060 9 -17530859.21747  21203733.854    21203742.3044
  22776623.341   -11283755.587 8  -8779262.65646  22776626.166    22776635.1324
  22122185.182   -15795019.279 8 -12282114.71547  22122185.379    22122193.5584
  24127418.774    -4328570.173 8  -3358923.56745  24127426.649    24127437.4084
  23833401.092    -4035109.691 8  -3130182.59445  23833400.020    23833410.0884
  23909521.019    -7143653.375 8  -5399344.40545  23909526.822    23909537.7354
 00  7 13  1 55 30.0000000  0  8 25 01 22 29 20 16 30 06
  20725571.729   -24075549.076 9 -18493818.02548  20725575.285    20725582.4344
  24496064.111    -3029237.140 7  -2336811.24145  24496070.761    24496080.8914
  21187551.448   -22608070.648 9 -17597119.10847  21187552.789    21187560.9884
  22792249.146   -11201628.120 8  -8715267.31846  22792254.475    22792263.9944
  22116235.214   -15826258.448 8 -12306456.90447  22116240.759    22116248.9414
  24111928.203    -4410039.690 8  -3422406.30345  24111923.775    24111934.8674
  23852503.083    -3934723.490 8  -3051959.66945  23852502.544    23852513.7804
  23905018.607    -7167343.302 8  -5417804.02545  23905019.390    23905030.1364
 00  7 13  1 56  0.0000000  0  8 25 01 22 29 20 16 30 06
  20728901.892   -24058045.769 9 -18480179.08948  20728906.000    20728913.1014
  24477994.089    -3124211.735 8  -2410817.32745  24477997.828    24478007.9374
  21171449.014   -22692677.702 9 -17663046.65047  21171452.168    21171460.2204
  22807927.361   -11119243.630 8  -8651071.69946  22807932.154    22807941.8974
  22110402.127   -15856914.865 8 -12330345.00947  22110407.140    22110415.9664
  24096493.608    -4491131.970 7  -3485595.07645  24096490.800    24096503.2444
  23871641.955    -3834134.442 8  -2973578.68445  23871643.618    23871654.6564
  23900593.827    -7190577.291 8  -5435908.38645  23900598.135    23900608.2264
 00  7 13  1 56 30.0000000  0  8 25 01 22 29 20 16 30 06
  20732275.947   -24040322.218 9 -18466368.53148  20732279.130    20732285.8994
  24459918.849    -3219190.837 7  -2484826.92245  24459922.239    24459933.3204
  21155433.819   -22776855.822 9 -17728639.96947  21155434.308    21155441.2734
  22823655.625   -11036602.631 8  -8586676.19346  22823658.503    22823667.9564
  22104682.876   -15886987.476 8 -12353778.18447  22104685.185    22104693.2284
  24081124.779    -4571844.274 7  -3548487.77145  24081133.299    24081144.5544
  23890827.659    -3733345.142 8  -2895041.62945  23890823.901    23890834.2394
  23896259.112    -7213354.003 8  -5453656.41345  23896263.242    23896274.6084
 00  7 13  1 57  0.0000000  0  8 25 01 22 29 20 16 30 06
  20735690.849   -24022379.153 9 -18452386.91348  20735693.666    20735700.5554
  24441844.984    -3314173.109 7  -2558839.02245  24441848.876    24441859.2444
  21139495.083   -22860602.653 9 -17793897.22547  21139497.375    21139505.4224
  22839429.710   -10953706.197 8  -8522081.66246  22839433.384    22839443.1974
  22099069.983   -15916475.364 8 -12376755.75047  22099073.716    22099081.8114
  24065847.295    -4652174.031 8  -3611082.36845  24065848.267    24065856.9664
  23910040.114    -3632358.070 8  -2816350.48445  23910041.348    23910052.2934
  23892007.470    -7235671.626 8  -5471046.69645  23892015.935    23892025.8144
 00  7 13  1 57 30.0000000  0  8 25 01 22 29 20 16 30 06
  20739147.762   -24004217.358 9 -18438234.87048  20739149.800    20739156.8594
  24423772.741    -3409157.046 7  -2632852.42445  24423773.946    24423783.4614
  21123641.756   -22943916.324 9 -17858816.94247  21123643.648    21123651.8064
  22855254.158   -10870555.107 8  -8457288.68546  22855256.244    22855265.1814
  22093570.591   -15945377.525 8 -12399276.89447  22093573.080    22093581.5064
  24050632.862    -4732119.069 8  -3673377.21545  24050634.980    24050644.7324
  23929296.522    -3531175.754 8  -2737507.20945  23929295.277    23929306.8334
  23887848.634    -7257528.662 8  -5488078.09445  23887856.366    23887866.9434
 00  7 13  1 58  0.0000000  0  8 25 01 22 29 20 16 30 06
  20742644.125   -23985836.922 9 -18423912.46248  20742647.615    20742654.1594
  24405695.680    -3504141.465 7  -2706866.17345  24405697.888    24405709.9594
  21107869.226   -23026795.207 9 -17923397.86247  21107871.698    21107880.1234
  22871122.673   -10787150.185 8  -8392297.90746  22871127.709    22871136.6334
  22088181.993   -15973692.988 8 -12421340.87347  22088184.326    22088193.4854
  24035495.852    -4811676.673 8  -3735370.13545  24035494.241    24035506.1184
  23948580.053    -3429800.729 8  -2658513.76045  23948586.785    23948597.3804
  23883784.717    -7278923.774 8  -5504749.51345  23883784.571    23883794.4154
 00  7 13  1 58 30.0000000  0  8 25 01 22 29 20 16 30 06
  20746183.487   -23967238.407 9 -18409420.11748  20746186.710    20746193.2154
  24387617.654    -3599125.059 7  -2780879.28345  24387623.880    24387636.0924
  21092181.828   -23109237.099 9 -17987638.27147  21092183.623    21092191.7514
  22887046.862   -10703492.113 8  -8327109.89446  22887046.647    22887056.4384
  22082905.791   -16001420.707 8 -12442946.88347  22082908.458    22082916.2264
  24020428.953    -4890844.389 8  -3797059.20645  24020429.059    24020440.3854
  23967911.255    -3328235.974 8  -2579372.44245  23967913.713    23967924.7604
  23879797.962    -7299855.410 8  -5521059.80945  23879802.479    23879810.6444
 00  7 13  1 59  0.0000000  0  8 25 01 22 29 20 16 30 06
  20749763.681   -23948422.158 9 -18394758.11148  20749767.434    20749773.9894
  24369546.763    -3694106.507 7  -2854890.72245  24369550.479    24369559.4934
  21076575.239   -23191239.703 9 -18051536.39147  21076579.118    21076587.0204
  22903014.536   -10619582.170 8  -8261725.60946  22903015.612    22903023.5314
  22077739.372   -16028559.955 8 -12464094.33047  22077743.910    22077752.2754
  24005432.985    -4969619.640 8  -3858442.47845  24005438.354    24005450.0014
  23987271.529    -3226483.796 8  -2500085.07745  23987276.329    23987287.7794
  23875905.866    -7320322.042 8  -5537007.79445  23875907.367    23875916.8504
 00  7 13  1 59 30.0000000  0  8 25 01 22 29 20 16 30 06
  20753386.729   -23929388.236 9 -18379926.49548  20753388.982    20753396.1304
  24351474.117    -3789084.322 7  -2928899.34545  24351475.756    24351486.3964
  21061056.199   -23272800.767 9 -18115090.44847  21061058.705    21061066.7404
  22919023.154   -10535420.925 8  -8196145.49546  22919030.161    22919038.7564
  22072688.285   -16055109.801 8 -12484782.49947  22072691.557    22072700.5124
  23990521.842    -5048000.262 8  -3919518.26545  23990524.571    23990535.1474
  24006668.560    -3124546.762 7  -2420653.69945  24006674.555    24006685.9874
  23872104.039    -7340322.366 8  -5552592.42345  23872101.323    23872110.4274
 00  7 13  2  0  0.0000000  0  8 25 01 22 29 20 16 30 06
  20757049.386   -23910138.003 9 -18364926.31248  20757051.944    20757059.2234
  24333400.660    -3884057.230 7  -3002904.13845  24333403.936    24333413.0264
  21045620.383   -23353918.691 9 -18178299.20547  21045622.010    21045630.3614
  22935087.716   -10451009.296 8  -8130370.29646  22935093.641    22935102.8624
  22067749.155   -16081069.404 8 -12505010.73647  22067751.403    22067760.1284
  23975680.988    -5125983.208 8  -3980284.16045  23975684.532    23975694.2444
  24026104.414    -3022427.458 8  -2341080.29545  24026107.669    24026117.8684
  23868386.322    -7359854.936 8  -5567812.57445  23868384.753    23868395.1084
 00  7 13  2  0 30.0000000  0  8 25 01 22 29 20 16 30 06
  20760753.257   -23890671.485 9 -18349757.59848  20760756.285    20760763.5384
  24315324.805    -3979023.765 7  -3076903.96245  24315331.493    24315341.8284
  21030266.975   -23434591.705 9 -18241161.28447  21030270.188    21030278.6464
  22951203.334   -10366348.317 8  -8064400.79146  22951204.378    22951212.9074
  22062920.297   -16106438.010 8 -12524778.46747  22062924.020    22062932.6304
  23960914.724    -5203566.497 8  -4040738.66645  23960920.236    23960931.8024
  24045577.712    -2920128.527 8  -2261366.93045  24045574.112    24045585.2064
  23864754.566    -7378918.173 8  -5582667.02345  23864757.477    23864766.9004
 00  7 13  2  1  0.0000000  0  8 25 01 22 29 20 16 30 06
  20764497.732   -23870989.251 9 -18334420.79948  20764501.612    20764509.0584
  24297251.822    -4073982.523 7  -3150897.74345  24297260.416    24297272.8004
  21015003.931   -23514817.691 9 -18303675.03247  21015004.002    21015012.1754
  22967358.402   -10281438.785 8  -7998237.59446  22967361.092    22967370.5604
  22058206.838   -16131214.690 8 -12544084.95147  22058209.172    22058218.2714
  23946231.133    -5280747.356 8  -4100879.52845  23946233.483    23946244.3594
  24065073.820    -2817652.265 8  -2181515.37445  24065075.682    24065086.3204
  23861215.829    -7397510.753 8  -5597154.68445  23861218.452    23861230.0384
 00  7 13  2  1 30.0000000  0  8 25 01 22 29 20 16 30 06
  20768284.613   -23851091.462 9 -18318916.03448  20768287.860    20768295.4744
  24279196.646    -4168932.220 8  -3224884.47145  24279193.903    24279203.0714
  20999821.208   -23594594.337 9 -18365838.64147  20999822.422    20999831.6054
  22983559.183   -10196281.729 8  -7931881.55046  22983566.212    22983575.9284
  22053605.588   -16155398.627 8 -12562929.55147  22053607.720    22053616.3544
  23931618.216    -5357523.645 8  -4160705.12745  23931622.251    23931633.8144
  24084612.570    -2715001.089 8  -2101527.51145  24084609.292    24084620.1974
  23857766.070    -7415631.383 8  -5611274.59245  23857770.602    23857781.8914
 00  7 13  2  2  0.0000000  0  8 25 01 22 29 20 16 30 06
  20772111.568   -23830978.877 9 -18303243.89448  20772115.323    20772122.7234
  24261125.408    -4263871.309 8  -3298862.94545  24261127.302    24261136.4914
  20984724.447   -23673919.593 9 -18427650.51647  20984727.798    20984736.7754
  22999819.982   -10110877.990 8  -7865333.28846  22999818.458    22999828.3574
  22049114.425   -16178989.043 8 -12581311.67047  22049117.382    22049126.6804
  23917086.921    -5433892.931 7  -4220213.65045  23917090.355    23917101.2514
  24104167.411    -2612177.753 8  -2021405.46045  24104175.947    24104185.7424
  23854411.736    -7433278.700 8  -5625025.70245  23854412.860    23854423.0864
 00  7 13  2  2 30.0000000  0  8 25 01 22 29 20 16 30 06
  20775978.777   -23810651.932 9 -18287404.71248  20775983.589    20775990.7864
  24243057.303    -4358798.458 8  -3372832.06545  24243062.025    24243072.0524
  20969717.518   -23752791.865 9 -18489109.42047  20969719.111    20969727.5624
  23016111.109   -10025228.554 8  -7798593.57346  23016117.416    23016126.5474
  22044741.365   -16201985.221 8 -12599230.74147  22044742.544    22044750.5774
  23902633.490    -5509852.492 8  -4279402.84745  23902635.370    23902648.6184
  24123777.275    -2509184.959 8  -1941151.39045  24123775.009    24123784.5874
  23851146.784    -7450451.439 8  -5638407.02245  23851144.490    23851155.4484
 00  7 13  2  3  0.0000000  0  8 25 01 22 29 20 16 30 06
  20779888.332   -23790110.758 9 -18271398.61348  20779892.318    20779899.5804
  24225001.687    -4453712.198 8  -3446790.79845  24225002.440    24225010.2624
  20954794.520   -23831209.581 9 -18550214.12247  20954796.524    20954805.2194
  23032453.023    -9939334.348 8  -7731663.09846  23032462.518    23032471.0964
  22040478.388   -16224386.538 8 -12616686.28847  22040479.553    22040486.6864
  23888262.051    -5585400.116 8  -4338271.08045  23888260.160    23888270.6874
  24143400.934    -2406025.062 8  -1860767.12045  24143405.310    24143415.6754
  23847962.113    -7467148.291 8  -5651417.48645  23847966.187    23847977.4274
 00  7 13  2  3 30.0000000  0  8 25 01 22 29 20 16 30 06
  20783838.579   -23769355.883 9 -18255225.99048  20783842.022    20783849.0434
  24206943.128    -4548611.145 8  -3520737.99245  24206943.274    24206952.9754
  20939957.755   -23909170.545 9 -18610962.92047  20939961.029    20939969.4934
  23048854.452    -9853196.299 8  -7664542.64746  23048854.430    23048863.6354
  22036328.441   -16246192.523 8 -12633677.94647  22036330.150    22036337.4654
  23873961.513    -5660533.214 7  -4396816.34945  23873961.127    23873972.0874
  24163054.913    -2302700.568 7  -1780254.57745  24163067.753    24163077.5354
  23844868.236    -7483367.986 8  -5664056.16245  23844880.068    23844891.6224
 00  7 13  2  4  0.0000000  0  8 25 01 22 29 20 16 30 06
  20787828.751   -23748387.731 9 -18238887.17748  20787831.955    20787839.1494
  24188883.321    -4643493.788 8  -3594672.51345  24188887.381    24188897.4774
  20925209.875   -23986672.561 9 -18671354.08947  20925212.743    20925221.1944
  23065291.402    -9766815.319 8  -7597232.90646  23065291.929    23065301.3434
  22032291.569   -16267402.168 8 -12650204.90647  22032293.511    22032301.5054
  23859740.565    -5735249.672 8  -4455036.95545  23859744.345    23859755.4834
  24182757.085    -2199213.885 8  -1699615.64045  24182760.477    24182771.2404
  23841884.694    -7499109.243 8  -5676322.03745  23841885.153    23841896.0994
 00  7 13  2  4 30.0000000  0  8 25 01 22 29 20 16 30 06
  20791859.655   -23727206.745 9 -18222382.52048  20791862.520    20791869.6824
  24170829.060    -4738358.872 8  -3668593.28445  24170834.929    24170845.7304
  20910550.993   -24063713.694 9 -18731386.12047  20910552.691    20910560.9084
  23081766.803    -9680192.379 8  -7529734.60046  23081775.009    23081785.4124
  22028368.494   -16288014.986 8 -12666266.83147  22028371.173    22028379.2714
  23845606.717    -5809546.620 8  -4512930.66045  23845606.553    23845616.6664
  24202476.747    -2095567.573 7  -1618852.30945  24202483.211    24202493.8314
  23838969.552    -7514370.816 8  -5688214.08645  23838979.808    23838992.5014
 00  7 13  2  5  0.0000000  0  8 25 01 22 29 20 16 30 06
  20795929.171   -23705813.534 9 -18205712.48848  20795933.684    20795940.3664
  24152785.611    -4833204.776 8  -3742499.14445  24152787.382    24152797.5654
  20895978.304   -24140292.536 9 -18791057.91947  20895979.766    20895987.9694
  23098300.641    -9593328.546 8  -7462048.60446  23098304.076    23098315.4544
  22024562.771   -16308030.510 9 -12681863.32647  22024563.050    22024570.7914
  23831544.483    -5883422.444 8  -4570496.20945  23831547.833    23831557.5934
  24222230.811    -1991764.336 7  -1537966.72745  24222236.804    24222247.2264
  23836164.657    -7529151.603 8  -5699731.52545  23836167.230    23836179.0704
 00  7 13  2  5 30.0000000  0  8 25 01 22 29 20 16 30 06
  20800041.683   -23684208.203 9 -18188877.16448  20800045.180    20800051.8944
  24134744.010    -4928029.965 8  -3816388.83945  24134742.185    24134753.1684
  20881492.739   -24216407.464 9 -18850368.22047  20881495.660    20881504.1344
  23114877.438    -9506224.746 8  -7394175.63846  23114880.411    23114890.8364
  22020864.031   -16327448.021 8 -12696993.82147  22020867.141    22020875.5924
  23817569.416    -5956874.064 8  -4627731.20645  23817571.239    23817581.3054
  24242011.899    -1887806.418 8  -1456960.57545  24242019.446    24242029.8244
  23833444.044    -7543450.278 8  -5710873.29845  23833446.928    23833457.0214
 00  7 13  2  6  0.0000000  0  8 25 01 22 29 20 16 30 06
  20804192.266   -23662391.431 9 -18171877.08948  20804196.687    20804203.6124
  24116699.689    -5022832.961 8  -3890261.26045  24116701.374    24116711.2744
  20867099.015   -24292056.253 9 -18909315.29647  20867100.416    20867108.8154
  23131501.886    -9418881.945 8  -7326116.38446  23131501.655    23131511.0624
  22017284.832   -16346266.894 8 -12711657.85047  22017286.758    22017294.4484
  23803669.366    -6029899.451 8  -4684634.07545  23803673.819    23803684.9934
  24261831.057    -1783696.283 8  -1375835.80045  24261831.076    24261841.1794
  23830816.014    -7557265.662 8  -5721638.48845  23830818.238    23830828.4804
 00  7 13  2  6 30.0000000  0  8 25 01 22 29 20 16 30 06
  20808385.643   -23640363.655 9 -18154712.59448  20808388.705    20808395.1644
  24098669.063    -5117612.640 8  -3964115.47145  24098665.164    24098675.7354
  20852793.194   -24367236.740 9 -18967897.46247  20852794.186    20852802.0254
  23148163.398    -9331301.193 8  -7257871.73945  23148167.070    23148177.1294
  22013818.188   -16364486.596 8 -12725854.99947  22013819.640    22013827.1934
  23789857.493    -6102496.026 8  -4741202.81445  23789859.764    23789869.2464
  24281668.513    -1679436.620 8  -1294594.57045  24281670.419    24281682.5254
  23828275.920    -7570596.723 8  -5732026.24145  23828281.453    23828292.1444
 00  7 13  2  7  0.0000000  0  8 25 01 22 29 20 16 30 06
  20812617.151   -23618124.823 9 -18137383.63348  20812620.440    20812627.1834
  24080627.889    -5212367.462 8  -4037950.37045  24080634.627    24080643.0154
  20838574.741   -24441947.307 9 -19026113.44447  20838576.980    20838584.9394
  23164871.863    -9243483.374 8  -7189442.36546  23164879.755    23164888.7534
  22010462.465   -16382106.677 8 -12739584.90547  22010466.174    22010474.5844
  23776126.635    -6174661.643 8  -4797435.74645  23776126.894    23776136.4614
  24301529.448    -1575029.664 7  -1213238.55645  24301539.310    24301549.9594
  23825836.799    -7583442.380 8  -5742035.79245  23825835.618    23825847.1514
 00  7 13  2  7 30.0000000  0  8 25 01 22 29 20 16 30 06
  20816888.935   -23595675.617 9 -18119890.74648  20816892.037    20816899.3194
  24062600.990    -5307095.638 8  -4111764.50745  24062607.795    24062618.1124
  20824450.074   -24516186.519 9 -19083962.12847  20824449.999    20824457.9684
  23181629.494    -9155429.661 8  -7120829.15646  23181634.724    23181645.3904
  22007225.423   -16399126.797 8 -12752847.32647  22007227.337    22007235.3684
  23762475.208    -6246394.144 8  -4853331.22145  23762476.962    23762488.0174
  24321433.243    -1470477.803 7  -1131769.60445  24321434.917    24321444.7994
  23823485.232    -7595801.361 8  -5751666.12145  23823484.863    23823495.7984
 00  7 13  2  8  0.0000000  0  8 25 01 22 29 20 16 30 06
  20821200.826   -23573016.573 9 -18102234.35448  20821203.656    20821211.4094
  24044576.625    -5401795.776 8  -4185556.76445  24044585.368    24044595.2154
  20810411.991   -24589952.745 9 -19141442.24047  20810412.235    20810420.8634
  23198432.980    -9067141.057 8  -7052032.94645  23198435.796    23198445.5344
  22004101.060   -16415546.466 8 -12765641.84747  22004102.610    22004110.7414
  23748898.029    -6317690.810 8  -4908887.00545  23748908.237    23748920.8084
  24341351.805    -1365783.878 7  -1050189.94745  24341356.888    24341366.7084
  23821222.443    -7607672.431 8  -5760916.24946  23821226.116    23821236.8174
 00  7 13  2  8 30.0000000  0  8 25 01 22 29 20 16 30 06
  20825553.046   -23550147.946 9 -18084414.65048  20825555.894    20825563.0984
  24026568.219    -5496466.217 8  -4259325.88645  24026571.871    24026581.4094
  20796463.298   -24663243.804 9 -19198552.09147  20796465.927    20796474.1114
  23215276.176    -8978618.571 8  -6983054.51445  23215280.432    23215291.1594
  22001092.447   -16431365.121 8 -12777968.03947  22001092.404    22001100.7354
  23735421.178    -6388549.527 8  -4964101.54345  23735425.854    23735436.4054
  24361300.024    -1260950.045 7   -968501.31345  24361307.207    24361316.3544
  23819059.302    -7619054.785 8  -5769785.53146  23819059.680    23819070.9584
 00  7 13  2  9  0.0000000  0  8 25 01 22 29 20 16 30 06
  20829944.004   -23527070.292 9 -18066432.06948  20829947.152    20829954.6004
  24008563.768    -5591105.343 8  -4333070.57545  24008561.351    24008571.3164
  20782608.119   -24736057.888 9 -19255290.28947  20782609.377    20782617.5144
  23232166.021    -8889863.152 8  -6913894.54845  23232170.785    23232181.9984
  21998194.964   -16446582.592 8 -12789825.79347  21998197.130    21998205.1784
  23722023.694    -6458968.020 8  -5018973.08145  23722025.493    23722035.9354
  24381278.434    -1155978.883 7   -886705.67845  24381282.049    24381292.1774
  23816984.912    -7629947.226 8  -5778273.12046  23816987.692    23816998.1494
 00  7 13  2  9 30.0000000  0  8 25 01 22 29 20 16 30 06
  20834375.812   -23503783.897 9 -18048286.83148  20834378.543    20834385.6824
  23990550.901    -5685711.771 8  -4406789.77745  23990559.174    23990568.0914
  20768843.336   -24808393.286 9 -19311655.49047  20768844.460    20768852.2334
  23249106.044    -8800875.911 8  -6844553.93945  23249103.968    23249114.2724
  21995413.506   -16461198.416 8 -12801214.71647  21995415.249    21995422.9744
  23708701.639    -6528943.867 8  -5073499.69145  23708708.849    23708718.3124
  24401267.058    -1050872.856 7   -804804.93945  24401283.607    24401291.6954
  23815005.419    -7640348.577 8  -5786378.00645  23815007.120    23815018.4404
 00  7 13  2 10  0.0000000  0  8 25 01 22 29 20 16 30 06
  20838846.701   -23480289.012 9 -18029979.12748  20838849.718    20838856.6334
  23972558.086    -5780284.061 8  -4480482.47545  23972563.655    23972572.0524
  20755167.327   -24880248.780 9 -19367646.73447  20755170.559    20755178.7394
  23266075.608    -8711657.935 8  -6775033.56345  23266081.913    23266091.9924
  21992744.923   -16475212.129 8 -12812134.46747  21992747.985    21992756.9114
  23695475.192    -6598475.099 8  -5127679.83646  23695478.277    23695489.0614
  24421305.229     -945634.220 7   -722800.85345  24421309.452    24421318.6044
  23813117.720    -7650258.045 8  -5794099.60545  23813121.772    23813132.8734
 00  7 13  2 10 30.0000000  0  8 25 01 22 29 20 16 30 06
  20843356.100   -23456586.010 9 -18011509.27348  20843360.064    20843367.2784
  23954561.876    -5874820.741 8  -4554147.39645  23954572.546    23954583.0334
  20741587.535   -24951622.696 9 -19423262.73047  20741588.735    20741596.7424
  23283095.315    -8622210.304 8  -6705334.21345  23283104.251    23283113.5334
  21990197.512   -16488623.308 8 -12822584.70747  21990196.827    21990204.1224
  23682323.334    -6667558.959 8  -5181511.38445  23682331.514    23682341.8004
  24441355.128     -840265.353 7   -640695.30145  24441360.504    24441369.6144
  23811327.044    -7659674.572 8  -5801437.13145  23811329.503    23811339.4914
 00  7 13  2 11  0.0000000  0  8 25 01 22 29 20 16 30 06
  20847907.601   -23432675.626 9 -17992877.81848  20847910.362    20847917.1674
  23936591.069    -5969320.084 8  -4627783.15745  23936589.753    23936599.8334
  20728096.221   -25022512.839 9 -19478501.75447  20728098.530    20728106.5924
  23300170.232    -8532534.020 8  -6635456.68545  23300170.112    23300178.1914
  21987758.987   -16501431.683 8 -12832565.22747  21987759.888    21987766.9434
  23669274.024    -6736193.852 8  -5234993.08145  23669270.859    23669281.1974
  24461430.909     -734768.831 7   -558490.24345  24461435.400    24461445.6294
  23809626.384    -7668597.219 8  -5808389.80245  23809632.528    23809642.6084
 00  7 13  2 11 30.0000000  0  8 25 01 22 29 20 16 30 06
  20852496.991   -23408557.744 9 -17974084.66648  20852499.984    20852506.5384
  23918612.050    -6063780.265 8  -4701388.47845  23918615.380    23918624.0324
  20714699.526   -25092917.600 9 -19533362.58047  20714701.136    20714709.3294
  23317274.700    -8442630.150 8  -6565401.81945  23317277.476    23317286.6724
  21985432.720   -16513637.190 8 -12842075.98147  21985436.238    21985444.5434
  23656296.829    -6804377.046 8  -5288122.80446  23656297.005    23656307.2234
  24481533.079     -629147.103 7   -476187.67345  24481535.188    24481544.3684
  23808025.582    -7677025.127 8  -5814956.96746  23808029.469    23808039.4224
 00  7 13  2 12  0.0000000  0  8 25 01 22 29 20 16 30 06
  20857124.797   -23384233.027 9 -17955130.35248  20857128.767    20857135.3844
  23900646.095    -6158199.845 8  -4774962.20845  23900648.252    23900656.4784
  20701393.576   -25162835.372 9 -19587843.92647  20701396.173    20701404.4174
  23334423.200    -8352499.953 8  -6495170.63245  23334428.495    23334438.6994
  21983225.779   -16525239.678 8 -12851116.85647  21983228.327    21983237.4014
  23643404.100    -6872106.343 8  -5340898.81146  23643407.656    23643418.0894
  24501653.174     -523402.467 7   -393789.26045  24501658.201    24501666.7624
  23806519.278    -7684957.273 8  -5821137.82046  23806519.495    23806529.5924
 00  7 13  2 12 30.0000000  0  8 25 01 22 29 20 16 30 06
  20861794.201   -23359701.661 9 -17936015.01448  20861797.086    20861803.5204
  23882689.105    -6252577.123 8  -4848502.87845  23882688.750    23882699.0504
  20688182.076   -25232265.096 9 -19641944.97447  20688184.266    20688192.0514
  23351620.051    -8262144.444 8  -6424763.88445  23351620.841    23351630.9814
  21981134.909   -16536238.763 8 -12859687.55947  21981135.951    21981144.2194
  23630600.201    -6939379.768 8  -5393319.59546  23630606.294    23630615.6294
  24521799.266     -417537.362 7   -311297.03345  24521803.317    24521811.4454
  23805104.344    -7692392.685 8  -5826931.58645  23805103.719    23805114.9854
 00  7 13  2 13  0.0000000  0  8 25 01 22 29 20 16 30 06
  20866501.490   -23334964.029 9 -17916738.94448  20866504.364    20866511.2564
  23864731.887    -6346910.572 8  -4922009.45445  23864737.885    23864746.9974
  20675064.312   -25301204.913 9 -19695664.28147  20675065.592    20675072.9894
  23368852.081    -8171564.649 8  -6354182.30245  23368858.909    23368869.8304
  21979156.759   -16546634.225 8 -12867787.89647  21979156.893    21979165.5524
  23617883.639    -7006195.230 8  -5445383.58845  23617890.048    23617901.0914
  24541959.877     -311554.181 7   -228712.78745  24541969.714    24541980.3874
  23803778.990    -7699330.422 8  -5832337.57845  23803784.041    23803794.4164
 00  7 13  2 13 30.0000000  0  8 25 01 22 29 20 16 30 06
  20871247.147   -23310020.685 9 -17897302.57748  20871250.729    20871257.7984
  23846799.134    -6441198.713 8  -4995480.72345  23846794.646    23846803.9024
  20662038.483   -25369652.915 9 -19749000.35947  20662040.264    20662048.0154
  23386135.744    -8080761.643 8  -6283426.85545  23386139.126    23386148.4154
  21977291.630   -16556425.983 8 -12875417.81447  21977293.961    21977301.1024
  23605263.054    -7072550.312 8  -5497088.81545  23605263.847    23605274.9674
  24562161.157     -205455.244 7   -146038.35645  24562161.041    24562169.7504
  23802555.045    -7705769.600 8  -5837355.08245  23802558.507    23802567.7384
 00  7 13  2 14  0.0000000  0  7 25 01 22 29 20 16 06
  20876032.666   -23284871.804 9 -17877706.05448  20876036.360    20876043.1304
  23828857.966    -6535439.733 8  -5068915.30345  23828861.979    23828870.5054
  20649104.764   -25437607.429 9 -19801951.89647  20649108.818    20649116.9414
  23403460.829    -7989736.552 8  -6212498.31045  23403461.382    23403470.4424
  21975544.263   -16565613.879 8 -12882577.18447  21975545.959    21975553.1534
  23592722.319    -7138442.803 8  -5548433.57845  23592725.487    23592735.7754
  23801426.304    -7711709.418 8  -5841983.45645  23801428.235    23801436.2854
 00  7 13  2 14 30.0000000  0  7 25 01 22 29 20 16 06
  20880856.927   -23259517.681 9 -17857949.60848  20880860.855    20880868.1654
  23810931.962    -6629632.326 8  -5142312.11246  23810937.053    23810947.8804
  20636270.638   -25505067.175 9 -19854517.90247  20636271.430    20636279.7084
  23420826.960    -7898490.634 8  -6141397.69845  23420824.400    23420834.5914
  21973910.504   -16574197.791 9 -12889265.91047  21973912.679    21973920.5804
  23580274.936    -7203870.741 8  -5599416.36145  23580275.106    23580284.8064
  23800386.875    -7717148.987 8  -5846222.02645  23800392.082    23800402.1134
 00  7 13  2 15  0.0000000  0  7 25 01 22 29 20 16 06
  20885721.540   -23233958.881 9 -17838033.68148  20885724.524    20885731.9324
  23793027.533    -6723774.637 8  -5215669.72845  23793020.871    23793032.8884
  20623523.854   -25572031.019 9 -19906697.49748  20623528.649    20623536.7914
  23438227.823    -7807025.033 8  -6070125.93345  23438229.007    23438239.1494
  21972391.802   -16582177.617 8 -12895483.93347  21972393.698    21972401.9494
  23567907.469    -7268831.840 8  -5650035.38445  23567912.699    23567923.2144
  23799452.258    -7722087.498 8  -5850070.18045  23799452.401    23799462.4684
 00  7 13  2 15 30.0000000  0  7 25 01 22 29 20 16 06
  20890623.438   -23208195.743 9 -17817958.53448  20890627.086    20890634.4994
  23775112.101    -6817864.957 8  -5288986.80445  23775117.723    23775127.4414
  20610879.195   -25638497.296 9 -19958489.38648  20610880.867    20610888.7614
  23455666.336    -7715340.828 8  -5998683.82945  23455676.005    23455686.2174
  21970989.807   -16589553.402 8 -12901231.29047  21970990.154    21970998.3084
  23555643.317    -7333324.084 8  -5700289.01846  23555640.499    23555652.4484
  23798602.619    -7726524.354 8  -5853527.41345  23798607.933    23798618.9894
 00  7 13  2 16  0.0000000  0  7 25 01 22 29 20 16 06
  20895564.995   -23182228.457 9 -17797724.30448  20895568.535    20895576.0234
  23757220.427    -6911901.762 8  -5362262.20146  23757222.795    23757233.9154
  20598324.606   -25704463.944 9 -20009891.95248  20598327.875    20598335.4634
  23473163.521    -7623439.039 8  -5927072.18345  23473163.856    23473175.3474
  21969699.343   -16596325.015 8 -12906507.86547  21969701.275    21969709.2304
  23543449.133    -7397345.299 8  -5750175.62046  23543457.987    23543468.3294
  23797855.704    -7730458.686 8  -5856593.08945  23797859.999    23797869.0804
 00  7 13  2 16 30.0000000  0  7 25 01 22 29 20 16 06
  20900545.339   -23156057.385 9 -17777331.27548  20900549.118    20900556.1914
  23739338.765    -7005883.479 8  -5435494.68046  23739338.239    23739348.5874
  20585869.536   -25769929.661 9 -20060904.20448  20585870.270    20585877.5944
  23490691.126    -7531321.003 8  -5855291.99845  23490694.659    23490704.6194
  21968524.999   -16602492.687 9 -12911313.82747  21968528.219    21968536.2124
  23531363.770    -7460893.251 8  -5799693.47646  23531364.954    23531375.3044
  23797206.527    -7733889.771 8  -5859266.60745  23797206.900    23797217.1134
 00  7 13  2 17  0.0000000  0  7 25 01 22 29 20 16 06
  20905565.372   -23129682.770 9 -17756779.63548  20905568.335    20905575.0674
  23721460.856    -7099808.262 8  -5508682.81046  23721465.558    23721474.9614
  20573505.938   -25834893.152 9 -20111525.09348  20573508.031    20573515.8674
  23508258.737    -7438987.866 8  -5783344.21445  23508264.222    23508275.1314
  21967468.264   -16608056.222 9 -12915649.03747  21967469.592    21967476.8214
  23519362.023    -7523965.976 8  -5848841.00946  23519363.497    23519372.7974
  23796646.522    -7736817.014 8  -5861547.55645  23796648.930    23796659.2764
 00  7 13  2 17 30.0000000  0  7 25 01 22 29 20 16 06
  20910623.197   -23103105.091 9 -17736069.76048  20910625.730    20910632.5754
  23703596.113    -7193674.300 8  -5581825.20346  23703603.326    23703613.2334
  20561238.904   -25899353.334 9 -20161753.80448  20561241.512    20561249.1404
  23525874.454    -7346440.849 8  -5711229.78845  23525876.394    23525885.3234
  21966524.497   -16613015.580 8 -12919513.45247  21966524.834    21966532.6764
  23507452.204    -7586561.440 8  -5897616.67546  23507451.681    23507460.9714
  23796188.543    -7739239.507 8  -5863435.15845  23796188.648    23796198.2324
 00  7 13  2 18  0.0000000  0  7 25 01 22 29 20 16 06
  20915720.071   -23076324.753 9 -17715201.97648  20915722.031    20915728.4894
  23685748.113    -7287479.992 8  -5654920.47146  23685752.365    23685763.8214
  20549068.529   -25963308.498 9 -20211588.98448  20549070.906    20549079.0824
  23543528.097    -7253681.008 8  -5638949.50145  23543528.663    23543538.1634
  21965694.958   -16617370.780 8 -12922907.11047  21965696.969    21965704.4324
  23495624.380    -7648677.731 8  -5946018.90946  23495630.275    23495641.7784
  23795821.056    -7741156.597 8  -5864929.00045  23795824.117    23795834.4784
 00  7 13  2 18 30.0000000  0  7 25 01 22 29 20 16 06
  20920853.676   -23049341.766 9 -17694176.27348  20920856.270    20920863.0864
  23667911.757    -7381223.777 8  -5727967.58345  23667912.772    23667923.7184
  20536996.758   -26026756.883 9 -20261029.27548  20536997.479    20537005.2244
  23561215.996    -7160709.520 8  -5566504.32345  23561219.950    23561228.8034
  21964981.463   -16621122.302 8 -12925830.36047  21964982.889    21964991.1524
  23483902.094    -7710312.383 8  -5994045.90546  23483903.201    23483912.8504
  23795551.701    -7742567.581 8  -5866028.42145  23795555.669    23795565.1694
 00  7 13  2 19  0.0000000  0  7 25 01 22 29 20 16 06
  20926026.395   -23022156.448 9 -17672992.91148  20926029.182    20926036.4114
  23650086.674    -7474903.867 8  -5800965.03546  23650086.741    23650097.1914
  20525016.700   -26089697.115 9 -20310073.59348  20525020.036    20525028.2814
  23578941.636    -7067527.689 7  -5493895.20745  23578950.613    23578961.6794
  21964382.547   -16624269.853 8 -12928282.99047  21964383.532    21964391.9294
  23472262.231    -7771463.730 8  -6041696.27946  23472265.523    23472276.3174
  23795377.490    -7743471.876 8  -5866733.05445  23795383.481    23795392.5914
 00  7 13  2 19 30.0000000  0  7 25 01 22 29 20 16 06
  20931237.352   -22994769.286 9 -17651652.27548  20931241.072    20931248.1204
  23632267.577    -7568518.520 8  -5873911.50946  23632272.702    23632282.9354
  20513135.207   -26152128.260 9 -20358721.22148  20513139.808    20513148.2264
  23596722.818    -6974136.598 7  -5421123.07745  23596723.011    23596734.6724
  21963899.132   -16626813.875 8 -12930265.35047  21963899.499    21963908.0484
  23460717.247    -7832129.952 8  -6088968.61646  23460720.050    23460730.5044
  23795300.892    -7743868.938 8  -5867042.42145  23795306.905    23795316.4354
 00  7 13  2 20  0.0000000  0  7 25 01 22 29 20 16 06
  20936487.552   -22967180.574 9 -17630154.58048  20936490.840    20936498.0254
  23614470.621    -7662066.110 8  -5946805.71146  23614471.774    23614480.9354
  20501355.239   -26214049.040 9 -20406971.16548  20501356.932    20501364.8374
  23614530.559    -6880537.587 8  -5348188.92345  23614534.620    23614545.1544
  21963528.035   -16628754.602 8 -12931777.61447  21963530.456    21963538.3374
  23449265.892    -7892308.578 8  -6135861.06246  23449268.848    23449279.9434
  23795324.194    -7743758.206 8  -5866956.08245  23795328.978    23795336.9904
 00  7 13  2 20 30.0000000  0  7 25 01 22 29 20 16 06
  20941777.759   -22939390.373 9 -17608499.88048  20941779.323    20941786.3724
  23596676.913    -7755544.787 8  -6019646.24246  23596681.852    23596691.1674
  20489669.031   -26275457.951 9 -20454822.25048  20489670.963    20489679.1214
  23632382.144    -6786731.890 8  -5275093.70945  23632386.211    23632396.2264
  21963271.088   -16630092.126 8 -12932819.84647  21963275.656    21963283.6014
  23437911.904    -7951997.814 8  -6182372.12646  23437912.025    23437921.1784
  23795444.140    -7743139.003 8  -5866473.54645  23795447.454    23795454.8774
 00  7 13  2 21  0.0000000  0  7 25 01 22 29 20 16 06
  20947101.451   -22911399.094 9 -17586688.49048  20947106.071    20947112.7354
  23578907.908    -7848952.876 8  -6092431.77446  23578907.603    23578916.9114
  20478080.614   -26336353.319 9 -20502273.15748  20478082.873    20478091.0414
  23650271.911    -6692720.725 8  -5201838.40645  23650275.859    23650285.7704
  21963135.004   -16630826.842 8 -12933392.34647  21963136.361    21963143.7064
  23426644.154    -8011195.907 8  -6228500.51246  23426645.613    23426656.0524
  23795656.661    -7742010.695 8  -5865594.31745  23795661.002    23795670.5644
 00  7 13  2 21 30.0000000  0  7 25 01 22 29 20 16 06
  20952466.220   -22883207.213 9 -17564720.78748  20952470.749    20952477.8564
  23561140.350    -7942288.499 8  -6165160.82946  23561146.152    23561157.3754
  20466590.410   -26396733.913 9 -20549322.94248  20466592.771    20466601.1804
  23668202.787    -6598505.271 8  -5128423.86745  23668203.869    23668214.5734
  21963109.302   -16630958.875 8 -12933495.24047  21963110.499    21963118.8584
  23415466.578    -8069900.544 8  -6274244.37446  23415474.423    23415483.9164
  23795972.260    -7740372.890 8  -5864318.08445  23795973.177    23795983.4414
 00  7 13  2 22  0.0000000  0  7 25 01 22 29 20 16 06
  20957870.983   -22854814.863 9 -17542596.87548  20957873.895    20957880.9374
  23543394.170    -8035550.043 8  -6237832.09246  23543399.242    23543408.8794
  20455199.795   -26456598.870 9 -20595970.93148  20455201.050    20455208.9904
  23686168.603    -6504086.581 8  -5054850.99045  23686171.538    23686184.0004
  21963199.470   -16630488.428 8 -12933128.66847  21963200.372    21963208.9264
  23404396.236    -8128109.940 8  -6319602.34946  23404397.545    23404408.1214
  23796379.552    -7738224.979 8  -5862644.33045  23796381.503    23796392.1734
 00  7 13  2 22 30.0000000  0  7 25 01 22 29 20 16 06
  20963313.082   -22826222.523 9 -17520317.11948  20963315.332    20963321.5204
  23525666.206    -8128735.603 8  -6310444.22846  23525667.176    23525676.0664
  20443906.371   -26515947.098 9 -20642216.27948  20443907.439    20443914.8364
  23704177.369    -6409466.084 7  -4981120.94245  23704175.678    23704189.6434
  21963403.036   -16629415.909 8 -12932292.94247  21963404.399    21963412.8524
  23393411.777    -8185822.092 8  -6364572.86646  23393416.193    23393426.8894
  23796881.689    -7735566.463 8  -5860572.75345  23796887.237    23796898.3404
 00  7 13  2 23  0.0000000  0  7 25 01 22 29 20 16 06
  20968791.100   -22797430.267 9 -17497881.58248  20968793.985    20968800.4354
  23507948.266    -8221843.404 8  -6382995.70146  23507949.512    23507958.6974
  20432708.768   -26574776.874 9 -20688057.63748  20432712.271    20432720.2804
  23722222.268    -6314645.266 8  -4907234.70945  23722221.694    23722231.1464
  21963721.990   -16627741.663 8 -12930988.34347  21963722.714    21963731.2814
  23382524.930    -8243035.225 8  -6409154.52546  23382527.108    23382539.0514
  23797489.719    -7732397.084 8  -5858103.08445  23797490.791    23797499.9684
 00  7 13  2 23 30.0000000  0  7 25 01 22 29 20 16 06
  20974306.977   -22768438.256 9 -17475290.39148  20974310.652    20974317.4154
  23490238.528    -8314871.793 8  -6455485.29446  23490246.120    23490255.3644
  20421615.132   -26633086.812 9 -20733493.91848  20421616.210    20421624.1094
  23740300.066    -6219625.053 7  -4833193.09445  23740302.196    23740316.0184
  21964154.570   -16625466.170 9 -12929215.22747  21964156.471    21964163.8954
  23371735.235    -8299747.842 8  -6453346.18246  23371735.483    23371746.6154
  23798189.292    -7728716.294 8  -5855234.90145  23798191.559    23798200.8144
 00  7 13  2 24  0.0000000  0  7 25 01 22 29 20 16 06
  20979862.073   -22739247.061 9 -17452543.99748  20979865.655    20979872.4384
  23472553.147    -8407818.982 8  -6527911.68446  23472559.710    23472569.3644
  20410616.476   -26690875.914 9 -20778524.35948  20410619.303    20410626.9504
  23758421.099    -6124406.796 7  -4758997.29845  23758421.926    23758433.3354
  21964701.758   -16622589.738 8 -12926973.84947  21964703.608    21964711.1144
  23361037.368    -8355957.307 8  -6497145.75446  23361040.741    23361049.6084
  23798988.775    -7724523.751 8  -5851967.97045  23798989.188    23798998.3354
 00  7 13  2 24 30.0000000  0  7 25 01 22 29 20 16 06
  20985455.034   -22709856.639 9 -17429642.36148  20985458.105    20985465.5534
  23454883.920    -8500683.174 8  -6600273.34746  23454887.035    23454896.3644
  20399720.189   -26748143.332 9 -20823148.29548  20399721.755    20399729.4084
  23776569.972    -6028991.815 7  -4684648.08345  23776578.607    23776589.2164
  21965364.685   -16619112.477 9 -12924264.28947  21965365.901    21965372.8294
  23350437.888    -8411662.322 8  -6540552.24946  23350439.530    23350450.2204
  23799880.486    -7719818.889 8  -5848301.82845  23799884.980    23799893.5564
 00  7 13  2 25  0.0000000  0  7 25 01 22 29 20 16 06
  20991084.606   -22680267.591 9 -17406585.95348  20991088.133    20991095.8964
  23437232.513    -8593462.487 8  -6672568.89146  23437231.704    23437242.3334
  20388923.061   -26804887.894 9 -20867364.81548  20388923.500    20388931.2544
  23794772.280    -5933381.369 7  -4610146.59545  23794773.524    23794784.1434
  21966139.859   -16615035.276 9 -12921087.24847  21966141.369    21966149.5174
  23339934.076    -8466860.947 8  -6583564.17546  23339935.576    23339945.4134
  23800869.818    -7714601.379 8  -5844236.21445  23800876.916    23800886.8554
 00  7 13  2 25 30.0000000  0  7 25 01 22 29 20 16 06
  20996753.440   -22650479.995 9 -17383374.83547  20996756.488    20996764.1834
  23419595.990    -8686155.108 8  -6744796.86046  23419593.835    23419604.2624
  20378221.940   -26861108.133 9 -20911172.77548  20378225.041    20378232.6614
  23812998.827    -5837576.827 7  -4535493.86145  23813005.294    23813017.1224
  21967029.260   -16610358.560 9 -12917443.05447  21967030.783    21967039.3044
  23329529.087    -8521551.419 8  -6626180.10546  23329527.744    23329538.5414
  23801970.190    -7708870.912 8  -5839770.92945  23801968.151    23801977.5564
 00  7 13  2 26  0.0000000  0  7 25 01 22 29 20 16 06
  21002460.228   -22620494.251 9 -17360009.31747  21002462.942    21002470.3914
  23401970.053    -8778759.011 8  -6816955.76446  23401971.037    23401980.2044
  20367624.941   -26916802.726 9 -20954571.14148  20367626.677    20367634.8164
  23831268.389    -5741579.342 7  -4460690.82445  23831272.162    23831282.3024
  21968031.449   -16605082.944 9 -12913332.17847  21968035.211    21968043.1304
  23319215.690    -8575731.642 8  -6668398.45646  23319217.865    23319229.2084
  23803153.848    -7702627.063 8  -5834905.55845  23803155.772    23803166.0834
 00  7 13  2 26 30.0000000  0  7 25 01 22 29 20 16 06
  21008202.047   -22590310.429 9 -17336489.43847  21008206.567    21008213.9064
  23384362.422    -8871272.357 8  -6889044.05246  23384367.014    23384376.5524
  20357125.142   -26971970.757 9 -20997559.19448  20357128.693    20357136.8694
  23849578.675    -5645390.411 8  -4385738.60545  23849578.101    23849588.4064
  21969151.973   -16599208.671 9 -12908754.80547  21969153.041    21969160.5734
  23309004.490    -8629400.083 8  -6710217.99246  23309005.655    23309014.5854
  23804438.222    -7695869.526 8  -5829639.93346  23804442.100    23804451.7524
 00  7 13  2 27  0.0000000  0  7 25 01 22 29 20 16 06
  21013987.086   -22559928.503 9 -17312815.20347  21013988.674    21013995.3544
  23366782.104    -8963693.432 8  -6961060.41746  23366779.296    23366789.5484
  20346729.679   -27026611.598 9 -21040136.43748  20346730.958    20346739.0054
  23867908.345    -5549011.354 7  -4310638.17445  23867917.208    23867928.4324
  21970381.271   -16592736.314 9 -12903711.38847  21970384.364    21970392.2094
  23298889.060    -8682555.007 8  -6751637.44646  23298891.036    23298899.6984
  23805819.377    -7688597.982 8  -5823973.77945  23805824.318    23805835.1214
 00  7 13  2 27 30.0000000  0  7 25 01 22 29 20 16 06
  21019802.022   -22529349.361 9 -17288987.29347  21019807.579    21019814.6064
  23349206.181    -9056020.466 8  -7033003.51646  23349210.079    23349218.5064
  20336430.456   -27080723.997 9 -21082301.92248  20336433.697    20336441.7704
  23886288.092    -5452443.151 7  -4235390.48345  23886292.903    23886304.5364
  21971726.714   -16585666.606 9 -12898202.50847  21971730.113    21971737.2014
  23288870.408    -8735194.562 8  -6792655.27646  23288872.150    23288882.2674
  23807301.384    -7680812.300 8  -5817906.98245  23807306.603    23807317.8774
 00  7 13  2 28  0.0000000  0  7 25 01 22 29 20 16 06
  21025659.426   -22498573.258 9 -17265005.89847  21025664.120    21025670.8744
  23331653.345    -9148251.395 8  -7104871.74546  23331658.327    23331669.2894
  20326235.599   -27134306.576 9 -21124054.55048  20326237.431    20326245.1834
  23904707.019    -5355687.560 7  -4159996.61045  23904706.691    23904716.5444
  21973189.852   -16578000.089 9 -12892228.58047  21973189.144    21973196.3994
  23278951.180    -8787317.342 8  -6833270.42846  23278954.639    23278964.8744
  23808884.445    -7672512.269 8  -5811439.38545  23808886.385    23808896.8514
 00  7 13  2 28 30.0000000  0  7 25 01 22 29 20 16 06
  21031554.591   -22467599.876 9 -17240870.78247  21031557.830    21031564.9464
  23314124.330    -9240384.567 8  -7176663.77246  23314126.661    23314136.1334
  20316139.820   -27187358.278 9 -21165393.50848  20316141.868    20316149.5694
  23923134.895    -5258745.434 7  -4084457.56445  23923152.781    23923165.3174
  21974757.823   -16569737.513 9 -12885790.19547  21974761.306    21974768.6824
  23269134.724    -8838920.839 8  -6873480.93146  23269135.091    23269144.5104
  23810561.100    -7663697.445 8  -5804570.66445  23810563.717    23810574.1034
 00  7 13  2 29  0.0000000  0  7 25 01 22 29 20 16 06
  21037486.746   -22436429.624 9 -17216582.26947  21037489.314    21037496.5454
  23296607.862    -9332417.923 8  -7248378.06146  23296612.973    23296623.3624
  20306145.177   -27239878.274 9 -21206318.15548  20306147.446    20306155.3604
  23941636.591    -5161618.549 7  -4008774.50545  23941636.548    23941648.0984
  21976445.174   -16560879.263 9 -12878887.64347  21976446.864    21976454.6944
  23259406.679    -8890004.246 8  -6913286.16046  23259413.837    23259424.0624
  23812333.642    -7654367.748 8  -5797300.75345  23812339.010    23812350.2514
 00  7 13  2 29 30.0000000  0  7 25 01 22 29 20 16 06
  21043452.988   -22405062.426 9 -17192140.28847  21043458.131    21043465.5754
  23279119.208    -9424349.761 8  -7320013.24846  23279118.914    23279128.9694
  20296252.444   -27291865.958 9 -21246828.00348  20296254.427    20296262.7874
  23960156.854    -5064308.092 7  -3932948.31145  23960154.215    23960164.4424
  21978240.170   -16551426.440 8 -12871521.78847  21978245.435    21978252.4564
  23249788.497    -8940565.390 8  -6952684.45346  23249792.516    23249802.2644
  23814214.029    -7644523.111 8  -5789629.58945  23814212.155    23814222.7044
 00  7 13  2 30  0.0000000  0  7 25 01 22 29 20 16 06
  21049462.090   -22373499.030 9 -17167545.42647  21049464.707    21049471.8614
  23261640.203    -9516177.908 8  -7391567.58746  23261645.503    23261655.3424
  20286460.656   -27343320.225 9 -21286922.19648  20286462.858    20286470.9034
  23978695.071    -4966815.488 7  -3856980.26845  23978706.049    23978718.8594
  21980153.953   -16541379.548 8 -12863693.03047  21980157.229    21980164.9474
  23240266.471    -8990602.814 8  -6991674.63346  23240270.527    23240281.2524
  23816178.317    -7634163.338 8  -5781557.02745  23816183.963    23816193.0424
 00  7 13  2 30 30.0000000  0  7 25 01 22 29 20 16 06
  21055504.599   -22341739.650 9 -17142797.85047  21055508.362    21055515.5214
  23244189.198    -9607900.588 8  -7463039.76846  23244189.977    23244200.0344
  20276771.339   -27394239.647 9 -21326599.62848  20276773.282    20276781.0994
  23997289.170    -4869141.867 7  -3780871.24945  23997291.650    23997303.5754
  21982178.777   -16530739.226 8 -12855401.86047  21982181.961    21982189.9044
  23230846.447    -9040115.007 8  -7030255.54246  23230848.748    23230859.3874
  23818254.239    -7623288.254 8  -5773082.89945  23818252.589    23818263.1954
 00  7 13  2 31  0.0000000  0  7 25 01 22 29 20 16 06
  21061586.885   -22309784.273 9 -17117897.54347  21061589.257    21061596.5624
  23226757.071    -9699516.044 8  -7534428.40546  23226757.319    23226766.6034
  20267184.348   -27444623.292 9 -21365859.56948  20267185.983    20267193.6064
  24015902.728    -4771288.818 7  -3704622.30545  24015913.157    24015925.9514
  21984317.833   -16519506.316 8 -12846648.92447  21984319.738    21984327.5084
  23221525.540    -9089099.788 8  -7068425.47446  23221527.571    23221538.2214
  23820415.373    -7611897.853 8  -5764207.24745  23820421.229    23820430.3514
 00  7 13  2 31 30.0000000  0  7 25 01 22 29 20 16 06
  21067705.164   -22277633.165 9 -17092844.72747  21067707.809    21067714.5444
  23209339.400    -9791022.265 8  -7605731.91146  23209343.605    23209352.3404
  20257697.926   -27494470.600 9 -21404701.58548  20257700.289    20257707.9054
  24034562.835    -4673257.652 7  -3628234.64045  24034568.772    24034581.5884
  21986568.166   -16507681.827 9 -12837435.01147  21986569.960    21986577.9774
  23212303.836    -9137556.284 8  -7106183.73046  23212306.081    23212316.7024
  23822686.585    -7599991.895 8  -5754929.83645  23822686.937    23822695.3014
 00  7 13  2 32  0.0000000  0  7 25 01 22 29 20 16 06
  21073861.077   -22245286.413 9 -17067639.45348  21073863.234    21073870.1254
  23191947.223    -9882417.333 8  -7676948.79546  23191952.271    23191962.2234
  20248314.388   -27543781.085 9 -21443125.30348  20248316.577    20248324.3424
  24053262.024    -4575049.760 7  -3551709.26445  24053258.048    24053269.3514
  21988931.568   -16495266.377 9 -12827760.62347  21988932.444    21988940.5104
  23203187.203    -9185482.554 8  -7143528.84246  23203186.593    23203197.2214
  23825045.151    -7587570.402 8  -5745250.71245  23825050.397    23825060.4494
 00  7 13  2 32 30.0000000  0  7 25 01 22 29 20 16 06
  21080052.406   -22212744.293 9 -17042281.94948  21080055.761    21080062.6874
  23174583.779    -9973699.279 8  -7748077.51146  23174581.551    23174590.2824
  20239033.968   -27592553.521 9 -21481129.74948  20239035.524    20239043.3194
  24071978.771    -4476666.688 7  -3475047.33445  24071980.320    24071991.2404
  21991405.591   -16482260.932 8 -12817626.49747  21991406.876    21991414.7484
  23194165.404    -9232876.942 8  -7180459.47346  23194167.494    23194176.7374
  23827507.111    -7574633.169 8  -5735169.73745  23827512.521    23827521.0044
 00  7 13  2 33  0.0000000  0  7 25 01 22 29 20 16 06
  21086283.144   -22180006.782 9 -17016772.19047  21086285.289    21086292.2724
  23157225.822   -10064866.095 8  -7819116.52646  23157232.350    23157242.2484
  20229853.864   -27640786.723 9 -21518714.01048  20229857.137    20229864.9724
  24090735.212    -4378109.395 7  -3398249.73345  24090735.058    24090747.5004
  21993993.270   -16468666.331 9 -12807033.28647  21993994.156    21994001.7594
  23185245.312    -9279738.270 8  -7216974.77646  23185249.319    23185259.6594
  23830064.668    -7561180.074 8  -5724686.75645  23830072.126    23830080.5574
 00  7 13  2 33 30.0000000  0  7 25 01 22 29 20 16 06
  21092547.560   -22147074.611 9 -16991110.75147  21092551.707    21092558.8504
  23139905.264   -10155915.974 8  -7890064.40646  23139907.031    23139916.0064
  20220778.607   -27688479.986 9 -21555877.54348  20220781.350    20220789.0074
  24109514.623    -4279379.708 7  -3321317.73445  24109522.801    24109534.5044
  21996691.751   -16454483.331 9 -12795981.58947  21996693.120    21996700.7464
  23176431.810    -9326064.845 8  -7253073.37646  23176433.492    23176444.8264
  23832728.207    -7547211.234 8  -5713801.92545  23832730.356    23832738.5614
 00  7 13  2 34  0.0000000  0  7 25 01 22 29 20 16 06
  21098851.539   -22113948.026 9 -16965297.83447  21098855.362    21098862.6144
  23122600.604   -10246846.894 8  -7960919.61046  23122602.601    23122612.4344
  20211805.992   -27735632.679 9 -21592619.84148  20211808.112    20211816.0934
  24128345.355    -4180478.691 7  -3244252.30145  24128341.968    24128355.0744
  21999501.329   -16439712.882 8 -12784472.13647  21999503.367    21999510.8314
  23167720.168    -9371855.072 8  -7288754.02346  23167720.355    23167730.9404
  23835482.385    -7532726.779 8  -5702515.30745  23835486.027    23835495.0274
 00  7 13  2 34 30.0000000  0  7 25 01 22 29 20 16 06
  21105193.899   -22080627.016 9 -16939333.41847  21105196.170    21105203.4054
  23105317.329   -10337656.834 8  -8031680.54846  23105322.228    23105331.3434
  20202937.192   -27782244.479 9 -21628940.67048  20202938.471    20202946.0354
  24147186.609    -4081408.098 7  -3167054.72245  24147196.079    24147206.8124
  22002422.048   -16424356.068 8 -12772505.77847  22002425.301    22002433.9784
  23159104.119    -9417107.331 8  -7324015.49146  23159108.405    23159119.5524
  23838336.442    -7517726.792 8  -5690826.96745  23838340.500    23838349.8874
 00  7 13  2 35  0.0000000  0  7 25 01 22 29 20 16 06
  21111570.552   -22047111.643 9 -16913217.54547  21111574.125    21111581.1004
  23088066.380   -10428343.897 8  -8102345.71846  23088065.303    23088074.4134
  20194170.275   -27828314.113 9 -21664839.04748  20194171.703    20194179.2714
  24166082.854    -3982169.047 7  -3089725.85745  24166079.482    24166092.3094
  22005458.838   -16408413.893 9 -12760083.31347  22005460.059    22005467.8134
  23150593.967    -9461820.820 8  -7358857.10146  23150600.674    23150610.7824
  23841288.845    -7502211.271 8  -5678736.93345  23841292.933    23841302.0734
 00  7 13  2 35 30.0000000  0  7 25 01 22 29 20 16 06
  21117986.593   -22013402.079 9 -16886950.35847  21117988.729    21117995.8524
  23070825.706   -10518906.035 8  -8172913.56046  23070830.017    23070841.7644
  20185505.372   -27873840.637 9 -21700314.23148  20185508.311    20185515.9044
  24184995.631    -3882763.010 7  -3012266.88845  24184995.274    24185009.3214
  22008603.526   -16391887.342 9 -12747205.48947  22008604.936    22008612.3384
  23142196.681    -9505993.755 8  -7393277.52046  23142194.793    23142204.2704
  23844347.617    -7486180.394 8  -5666245.32245  23844343.703    23844353.0844
 00  7 13  2 36  0.0000000  0  7 25 01 22 29 20 16 06
  21124435.161   -21979498.633 9 -16860532.09847  21124440.436    21124447.5894
  23053621.445   -10609341.164 8  -8243382.37346  23053622.309    23053632.1074
  20176946.096   -27918823.473 9 -21735365.78048  20176948.609    20176955.7124
  24203920.815    -3783191.678 7  -2934679.14845  24203944.931    24203957.8854
  22011858.334   -16374777.298 9 -12733872.97647  22011860.342    22011868.2934
  23133888.405    -9549624.270 8  -7427275.29846  23133892.019    23133901.7184
  23847484.594    -7469634.016 8  -5653351.98745  23847492.486    23847502.6014
 00  7 13  2 36 30.0000000  0  7 25 01 22 29 20 16 06
  21130925.114   -21945401.205 9 -16833962.68447  21130928.971    21130936.0864
  23036434.880   -10699647.478 8  -8313750.86546  23036437.352    23036446.9684
  20168490.229   -27963262.194 9 -21769993.33948  20168492.015    20168499.1744
  24222926.248    -3683456.264 7  -2856963.51745  24222924.603    24222936.1464
  22015225.761   -16357084.931 8 -12720086.69247  22015226.673    22015234.7714
  23125689.635    -9592711.498 8  -7460849.69246  23125691.502    23125702.9954
  23850736.347    -7452572.338 8  -5640057.17845  23850739.154    23850748.5964
 00  7 13  2 37  0.0000000  0  7 25 01 22 29 20 16 06
  21137451.969   -21911110.122 9 -16807242.37647  21137454.510    21137461.5814
  23019276.855   -10789822.870 8  -8384017.32146  23019277.577    23019286.2974
  20160137.409   -28007156.299 9 -21804196.52548  20160138.912    20160146.5434
  24241927.711    -3583558.126 7  -2779121.11745  24241935.669    24241946.9134
  22018704.606   -16338811.193 8 -12705847.40947  22018704.546    22018712.5464
  23117593.089    -9635254.258 8  -7493999.82746  23117597.222    23117607.8674
  23854077.440    -7434995.679 8  -5626361.06745  23854083.880    23854093.5534
 00  7 13  2 37 30.0000000  0  7 25 01 22 29 20 16 06
  21144013.653   -21876625.597 9 -16780371.34147  21144016.478    21144023.8974
  23002142.279   -10879865.409 8  -8454180.25146  23002143.723    23002152.8834
  20151887.260   -28050504.775 9 -21837974.53048  20151889.945    20151897.6954
  24260973.843    -3483498.833 7  -2701153.14145  24260974.971    24260987.4364
  22022287.767   -16319957.411 8 -12691156.13447  22022292.065    22022300.4984
  23109603.682    -9677250.399 8  -7526724.04646  23109605.258    23109616.1304
  23857529.954    -7416904.070 8  -5612263.69646  23857527.320    23857536.5584
 00  7 13  2 38  0.0000000  0  7 25 01 22 29 20 16 06
  21150611.559   -21841948.063 9 -16753349.91847  21150615.295    21150622.8084
  22985031.808   -10969773.023 8  -8524238.05746  22985034.532    22985043.1774
  20143742.186   -28093306.698 9 -21871326.63948  20143745.092    20143752.6594
  24280049.274    -3383279.905 7  -2623060.78545  24280047.462    24280058.3494
  22025987.243   -16300524.693 9 -12676013.75447  22025990.836    22025998.3474
  23101715.029    -9718699.287 8  -7559021.81546  23101717.169    23101727.4604
  23861064.710    -7398297.681 8  -5597765.19345  23861066.415    23861077.5094
 00  7 13  2 38 30.0000000  0  7 25 01 22 29 20 16 06
  21157249.929   -21807077.134 9 -16726177.79047  21157250.960    21157258.3464
  22967945.769   -11059543.680 8  -8594189.13846  22967951.722    22967960.1824
  20135701.945   -28135561.646 9 -21904252.53248  20135704.043    20135711.9254
  24299138.107    -3282902.776 7  -2544845.07345  24299148.929    24299158.9514
  22029794.788   -16280513.986 8 -12660420.95647  22029798.423    22029805.7774
  23093928.952    -9759599.430 8  -7590891.99546  23093934.034    23093944.8554
  23864703.646    -7379176.730 8  -5582865.71545  23864705.127    23864715.3904
 00  7 13  2 39  0.0000000  0  7 25 01 22 29 20 16 06
  21163919.130   -21772013.184 9 -16698855.26147  21163923.413    21163930.6424
  22950889.405   -11149175.428 8  -8664031.98046  22950894.831    22950904.4074
  20127764.316   -28177269.400 9 -21936752.04348  20127767.172    20127775.2014
  24318282.722    -3182368.753 7  -2466507.21245  24318279.233    24318293.0724
  22033711.965   -16259926.564 8 -12644378.79347  22033715.775    22033723.4974
  23086254.061    -9799949.543 8  -7622333.57946  23086256.453    23086266.3864
  23868435.904    -7359541.469 8  -5567565.49245  23868441.262    23868452.1444
 00  7 13  2 39 30.0000000  0  7 25 01 22 29 20 16 06
  21170629.848   -21736756.863 9 -16671382.83547  21170632.803    21170639.7574
  22933865.218   -11238666.033 8  -8733764.82146  22933864.847    22933875.1484
  20119933.001   -28218429.488 9 -21968824.81048  20119935.086    20119942.5524
  24337432.439    -3081679.462 7  -2388048.32245  24337439.549    24337453.3504
  22037739.493   -16238763.758 8 -12627888.26947  22037743.158    22037750.5394
  23078681.032    -9839748.442 8  -7653345.63246  23078683.117    23078693.4064
  23872276.839    -7339392.310 8  -5551864.82145  23872276.519    23872285.1594
 00  7 13  2 40  0.0000000  0  7 25 01 22 29 20 16 06
  21177375.602   -21701307.755 9 -16643760.18647  21177378.857    21177385.5364
  22916858.278   -11328013.372 8  -8803386.02946  22916862.790    22916872.3134
  20112203.598   -28259040.846 9 -22000469.99548  20112206.871    20112214.3794
  24356622.606    -2980836.138 7  -2309469.37645  24356629.712    24356641.5814
  22041877.882   -16217026.762 9 -12610950.33947  22041879.896    22041887.3134
  23071213.204    -9878994.506 8  -7683926.94446  23071216.088    23071224.6234
  23876205.406    -7318729.238 8  -5535763.70945  23876208.910    23876217.5024
 00  7 13  2 40 30.0000000  0  7 25 01 22 29 20 16 06
  21184157.730   -21665665.910 9 -16615987.34947  21184161.207    21184168.0404
  22899884.758   -11417215.723 8  -8872894.25146  22899889.055    22899897.0764
  20104580.367   -28299102.878 9 -22031687.12648  20104583.159    20104590.8224
  24375851.067    -2879840.567 7  -2230771.83945  24375849.979    24375862.1884
  22046124.217   -16194716.727 9 -12593565.86547  22046124.769    22046132.9444
  23063852.093    -9917687.274 8  -7714077.07846  23063852.291    23063861.7964
  23880235.590    -7297552.684 8  -5519262.45645  23880237.579    23880248.5134
 00  7 13  2 41  0.0000000  0  7 03 25 01 22 20 16 06
  24696318.776    -1735843.01517  -1326808.31755  24696326.854    24696338.8234
  21190976.493   -21629831.488 9 -16588064.44647  21190980.519    21190987.1144
  22882940.080   -11506270.853 8  -8942287.79146  22882941.212    22882950.5764
  20097062.029   -28338615.199 9 -22062475.91348  20097064.255    20097071.6634
  22050477.496   -16171834.950 9 -12575735.88147  22050479.040    22050486.9384
  23056591.001    -9955824.576 8  -7743794.39746  23056593.486    23056605.1884
  23884356.221    -7275862.956 8  -5502361.34845  23884365.835    23884375.6794
 00  7 13  2 41 30.0000000  0  7 03 25 01 22 20 16 06
  24676753.644    -1838683.941 7  -1406943.82245  24676755.944    24676769.6124
  21197831.421   -21593804.961 9 -16559991.84447  21197835.986    21197842.8794
  22866019.989   -11595176.677 8  -9011564.96146  22866023.113    22866032.3214
  20089646.790   -28377577.819 9 -22092836.35948  20089649.782    20089657.1034
  22054940.541   -16148382.950 8 -12557461.58147  22054941.423    22054949.4854
  23049438.669    -9993405.780 8  -7773078.37446  23049441.782    23049453.2184
  23888588.925    -7253660.395 8  -5485060.62445  23888590.158    23888601.2334
 00  7 13  2 42  0.0000000  0  7 03 25 01 22 20 16 06
  24657171.693    -1941592.109 7  -1487131.67545  24657173.907    24657187.0774
  21204723.977   -21557586.479 9 -16531769.67847  21204728.393    21204735.0684
  22849135.184   -11683931.185 8  -9080724.21646  22849134.859    22849143.6424
  20082335.938   -28415990.185 9 -22122768.03148  20082340.048    20082347.7234
  22059511.519   -16124362.020 8 -12538743.95947  22059512.636    22059520.7294
  23042388.919   -10030429.998 8  -7801928.38046  23042396.073    23042406.4704
  23892904.673    -7230945.400 8  -5467360.59545  23892912.925    23892922.8784
 00  7 13  2 42 30.0000000  0  7 03 25 01 22 20 16 06
  24637563.570    -2044564.560 7  -1567369.60745  24637577.713    24637589.2164
  21211653.899   -21521176.345 9 -16503398.16447  21211656.916    21211663.7064
  22832269.054   -11772532.230 8  -9149763.90346  22832273.832    22832282.5394
  20075133.502   -28453851.367 9 -22152270.20748  20075135.339    20075143.1554
  22064189.579   -16099773.358 9 -12519583.92247  22064191.505    22064199.2404
  23035456.457   -10066895.591 8  -7830343.08946  23035458.379    23035467.5894
  23897331.422    -7207718.333 8  -5449261.56045  23897333.104    23897343.0234
 00  7 13  2 43  0.0000000  0  7 03 25 01 22 20 16 06
  24617966.619    -2147598.301 7  -1647655.31045  24617971.861    24617986.4124
  21218619.062   -21484574.339 9 -16474877.14947  21218621.906    21218628.6814
  22815444.418   -11860977.851 8  -9218682.48646  22815442.567    22815452.3114
  20068033.304   -28491160.927 9 -22181342.55148  20068035.666    20068043.3234
  22068975.570   -16074618.232 8 -12499982.49947  22068978.320    22068986.8734
  23028622.518   -10102801.617 8  -7858321.76446  23028624.660    23028634.9204
  23901848.382    -7183979.634 8  -5430763.82345  23901849.880    23901860.1774
 00  7 13  2 43 30.0000000  0  7 03 25 01 22 20 16 06
  24598358.599    -2250690.878 7  -1727986.87445  24598354.395    24598366.6124
  21225620.902   -21447780.565 9 -16446206.70347  21225623.642    21225630.4764
  22798636.455   -11949265.868 8  -9287478.23846  22798642.293    22798650.6704
  20061037.915   -28527918.667 9 -22209984.90048  20061040.685    20061048.1494
  22073871.206   -16048898.130 8 -12479940.83747  22073872.190    22073880.6604
  23021898.096   -10138147.104 8  -7885863.61346  23021899.569    23021909.8254
  23906461.009    -7159729.661 8  -5411867.71945  23906464.256    23906474.7304
 00  7 13  2 44  0.0000000  0  7 03 25 01 22 20 16 06
  24578720.360    -2353839.675 7  -1808362.23145  24578724.507    24578738.1754
  21232659.483   -21410795.038 9 -16417386.84047  21232661.760    21232668.7694
  22781866.136   -12037394.009 8  -9356149.44046  22781871.542    22781881.0504
  20054148.521   -28564124.595 9 -22238197.27148  20054151.245    20054158.3144
  22078871.759   -16022614.552 8 -12459460.11147  22078874.343    22078882.0864
  23015276.377   -10172930.800 8  -7912967.74246  23015279.279    23015290.8024
  23911172.333    -7134968.938 8  -5392573.61345  23911175.941    23911186.8434
 00  7 13  2 44 30.0000000  0  7 03 25 01 22 20 16 06
  24559061.919    -2457042.152 7  -1888779.47245  24559083.727    24559097.3784
  21239733.338   -21373618.066 9 -16388417.79347  21239736.277    21239743.5664
  22765130.144   -12125360.206 8  -9424694.44046  22765131.603    22765141.7764
  20047364.561   -28599778.127 9 -22265979.21048  20047366.319    20047373.9104
  22083979.863   -15995769.000 8 -12438541.46247  22083983.005    22083991.2144
  23008762.108   -10207151.943 8  -7939633.53846  23008767.591    23008777.6954
  23915980.573    -7109697.822 8  -5372881.80845  23915985.713    23915994.2884
 00  7 13  2 45  0.0000000  0  7 03 25 01 22 20 16 06
  24539442.374    -2560295.639 7  -1969236.41844  24539436.439    24539449.6384
  21246844.660   -21336249.917 9 -16359299.77447  21246847.498    21246854.4694
  22748424.860   -12213162.537 8  -9493111.75546  22748423.585    22748432.7834
  20040683.770   -28634878.606 9 -22293330.18848  20040686.999    20040694.3294
  22089194.466   -15968362.782 8 -12417185.94647  22089197.697    22089205.4954
  23002359.530   -10240809.248 8  -7965859.96946  23002363.206    23002372.7584
  23920888.279    -7083916.752 8  -5352792.60145  23920891.102    23920901.8864
 00  7 13  2 45 30.0000000  0  7 03 25 01 22 20 16 06
  24519766.350    -2663597.615 7  -2049731.17544  24519775.183    24519791.2704
  21253991.214   -21298690.435 9 -16330032.66947  21253994.821    21254001.7294
  22731740.478   -12300798.804 8  -9561399.69446  22731746.773    22731755.7874
  20034109.679   -28669425.639 9 -22320249.91848  20034112.818    20034119.9504
  22094517.829   -15940397.500 8 -12395394.80647  22094519.785    22094527.6074
  22996065.586   -10273902.036 8  -7991646.53846  22996065.665    22996075.0214
  23925886.484    -7057626.312 8  -5332306.51345  23925893.762    23925904.5714
 00  7 13  2 46  0.0000000  0  7 03 25 01 22 20 16 06
  24500110.386    -2766945.092 7  -2130261.34944  24500111.803    24500123.4184
  21261176.527   -21260939.912 9 -16300616.70247  21261178.491    21261185.4254
  22715102.178   -12388266.837 8  -9629556.53746  22715102.676    22715111.7694
  20027641.764   -28703419.323 9 -22346738.47748  20027644.079    20027651.4244
  22099946.476   -15911874.692 8 -12373169.22647  22099947.284    22099954.7764
  22989874.850   -10306428.957 8  -8016992.19346  22989876.628    22989886.4824
  23930989.107    -7030827.046 8  -5311423.93545  23930994.043    23931004.4184
 00  7 13  2 46 30.0000000  0  7 03 25 01 22 20 16 06
  24480418.942    -2870335.470 7  -2210824.97545  24480437.225    24480449.6004
  21268395.891   -21222998.565 9 -16271052.04247  21268398.418    21268405.2754
  22698485.338   -12475564.437 8  -9697580.57246  22698491.373    22698498.3234
  20021277.817   -28736859.649 9 -22372795.85348  20021280.458    20021287.8204
  22105477.040   -15882795.948 8 -12350510.45747  22105480.864    22105488.8254
  22983791.089   -10338389.107 8  -8041896.21946  22983794.738    22983804.1864
  23936189.156    -7003519.582 8  -5290145.38445  23936191.049    23936200.6444
 00  7 13  2 47  0.0000000  0  7 03 25 01 22 20 16 06
  24460754.913    -2973765.885 7  -2291419.84345  24460755.287    24460767.6734
  21275648.906   -21184866.365 9 -16241338.66447  21275654.568    21275661.6224
  22681908.083   -12562689.518 8  -9765470.20346  22681911.026    22681919.8294
  20015018.579   -28769746.093 9 -22398421.64648  20015022.191    20015029.7014
  22111116.471   -15853162.775 8 -12327419.67447  22111120.017    22111128.4474
  22977816.423   -10369781.819 8  -8066358.09546  22977819.977    22977830.0844
  23941481.359    -6975704.556 8  -5268471.33445  23941483.902    23941492.8264
 00  7 13  2 47 30.0000000  0  7 03 25 01 22 20 16 06
  24441062.225    -3077233.880 7  -2372043.97645  24441065.864    24441077.8134
  21282942.651   -21146543.328 9 -16211476.57647  21282947.264    21282954.2744
  22665363.191   -12649640.009 8  -9833223.78246  22665364.538    22665373.1254
  20008869.404   -28802078.001 9 -22423615.32148  20008869.947    20008877.0124
  22116860.907   -15822976.833 8 -12303898.15547  22116863.936    22116872.3774
  22971951.817   -10400606.066 8  -8090376.98146  22971954.681    22971963.8644
  23946867.015    -6947382.445 8  -5246402.10445  23946872.312    23946882.2554
 00  7 13  2 48  0.0000000  0  7 03 25 01 22 20 16 06
  24421374.631    -3180736.715 7  -2452695.23245  24421369.451    24421381.4404
  21290272.681   -21108029.529 9 -16181465.84347  21290276.260    21290283.3544
  22648848.233   -12736413.599 8  -9900839.50046  22648852.796    22648861.1564
  20002820.759   -28833855.230 9 -22448376.78248  20002822.994    20002830.1684
  22122709.358   -15792239.793 8 -12279947.22047  22122712.987    22122721.2254
  22966196.888   -10430860.926 8  -8113952.18946  22966197.362    22966207.4394
  23952354.747    -6918553.992 8  -5223938.35445  23952358.666    23952368.9404
 00  7 13  2 48 30.0000000  0  7 03 25 01 22 20 16 06
  24401674.265    -3284271.769 7  -2533371.63045  24401667.436    24401679.0574
  21297635.037   -21069325.391 9 -16151306.79847  21297641.098    21297648.3544
  22632373.620   -12823008.232 8  -9968315.77346  22632373.377    22632381.7414
  19996878.972   -28865077.969 9 -22472706.16548  19996881.339    19996889.0974
  22128666.846   -15760953.285 8 -12255568.12247  22128667.029    22128674.3664
  22960542.722   -10460545.510 8  -8137083.04846  22960548.503    22960559.3384
  23957936.840    -6889219.650 8  -5201080.39445  23957941.539    23957951.4394
 00  7 13  2 49  0.0000000  0  7 03 25 01 22 20 16 06
  24381949.992    -3387836.391 7  -2614071.02945  24381960.153    24381971.1704
  21305040.170   -21030430.728 9 -16120999.28447  21305042.793    21305049.9354
  22615928.172   -12909421.591 8 -10035650.80846  22615929.975    22615938.9834
  19991042.283   -28895746.334 9 -22496603.56248  19991045.447    19991052.6664
  22134722.049   -15729118.881 8 -12230762.09947  22134724.782    22134732.1594
  22955004.110   -10489659.046 8  -8159768.91246  22955008.845    22955018.9734
  23963615.758    -6859380.208 8  -5177828.86245  23963618.709    23963629.3584
 00  7 13  2 49 30.0000000  0  7 03 25 01 22 20 16 06
  24362242.560    -3491427.917 7  -2694791.48445  24362247.353    24362257.2304
  21312477.166   -20991345.806 9 -16090543.52947  21312480.089    21312487.7404
  22599518.788   -12995651.682 8 -10102843.03346  22599520.973    22599530.3324
  19985312.188   -28925859.808 9 -22520068.57548  19985314.984    19985322.3104
  22140883.775   -15696738.215 8 -12205530.41247  22140886.577    22140894.9574
  22949576.089   -10518200.664 8  -8182009.14546  22949577.891    22949587.0674
  23969383.568    -6829036.276 8  -5154184.21645  23969393.502    23969403.5534
 00  7 13  2 50  0.0000000  0  7 03 25 01 22 20 16 06
  24342528.543    -3595043.468 7  -2775530.63745  24342529.111    24342540.5524
  21319951.283   -20952070.659 9 -16059939.53647  21319953.978    21319961.4494
  22583143.614   -13081696.284 8 -10169890.72646  22583147.662    22583156.5574
  19979688.519   -28955418.032 9 -22543100.92448  19979690.229    19979697.7774
  22147151.143   -15663812.924 8 -12179874.34547  22147151.773    22147159.7554
  22944256.543   -10546169.567 8  -8203803.10546  22944256.029    22944264.9584
  23975264.960    -6798188.566 8  -5130147.00445  23975263.204    23975273.1484
 00  7 13  2 50 30.0000000  0  7 03 25 01 22 20 16 06
  24322806.664    -3698680.045 7  -2856286.20945  24322807.135    24322818.1614
  21327459.919   -20912605.080 9 -16029187.16647  21327464.222    21327471.3304
  22566804.361   -13167553.167 8 -10236792.18346  22566809.031    22566818.4894
  19974169.231   -28984420.889 9 -22565700.52448  19974170.908    19974178.7074
  22153520.683   -15630344.812 8 -12153795.31447  22153520.947    22153528.5694
  22939039.073   -10573565.325 8  -8225150.45746  22939041.812    22939050.9514
  23981222.550    -6766837.814 8  -5105717.85645  23981228.539    23981239.9314
 00  7 13  2 51  0.0000000  0  7 03 25 01 22 20 16 06
  24303085.669    -3802335.104 7  -2937056.18145  24303082.122    24303092.7994
  21335007.935   -20872949.337 9 -15998286.61047  21335010.543    21335017.3074
  22550501.318   -13253220.219 8 -10303545.66746  22550507.128    22550516.0044
  19968755.575   -29012868.696 9 -22587867.61448  19968757.399    19968765.0244
  22159993.747   -15596335.742 9 -12127294.75947  22159993.090    22160000.8104
  22933936.349   -10600386.648 8  -8246050.21246  22933937.606    22933947.3494
  23987291.426    -6734984.608 8  -5080897.13545  23987290.902    23987301.1874
 00  7 13  2 51 30.0000000  0  7 03 25 01 22 20 16 06
  24283342.705    -3906005.982 7  -3017838.47145  24283353.563    24283365.9794
  21342590.815   -20833103.302 9 -15967237.77047  21342592.919    21342599.7494
  22534236.734   -13338695.177 8 -10370149.49546  22534242.407    22534250.9914
  19963445.857   -29040761.544 9 -22609602.27948  19963449.587    19963457.3164
  22166563.021   -15561787.386 8 -12100373.97147  22166567.166    22166575.1194
  22928941.731   -10626633.219 8  -8266502.07846  22928942.774    22928952.7184
  23993447.416    -6702629.948 8  -5055685.69245  23993448.051    23993458.2184
 00  7 13  2 52  0.0000000  0  7 03 25 01 22 20 16 06
  24263617.034    -4009689.990 7  -3098630.96245  24263622.153    24263634.2384
  21350209.194   -20793067.340 9 -15936040.94647  21350211.355    21350218.4894
  22518015.051   -13423975.886 8 -10436601.96646  22518014.140    22518021.9984
  19958244.808   -29068099.102 9 -22630904.25848  19958247.395    19958255.1034
  22173240.591   -15526701.504 8 -12073034.34647  22173243.605    22173251.5714
  22924056.917   -10652304.304 8  -8286505.51446  22924057.868    22924067.3904
  23999694.015    -6669774.509 8  -5030084.04745  23999700.222    23999710.5684
 00  7 13  2 52 30.0000000  0  7 03 25 01 22 20 16 06
  24243886.902    -4113384.243 7  -3179431.48245  24243890.377    24243901.0384
  21357863.563   -20752841.552 9 -15904696.20547  21357865.897    21357873.3694
  22501822.290   -13509059.981 8 -10502901.23046  22501822.900    22501831.6274
  19953148.481   -29094881.007 9 -22651773.26348  19953151.161    19953158.5134
  22180021.481   -15491080.215 8 -12045277.49647  22180022.265    22180029.7204
  22919280.035   -10677399.049 8  -8306059.87446  22919283.290    22919292.8044
  24006040.902    -6636419.037 8  -5004092.75845  24006047.055    24006057.3444
 00  7 13  2 53  0.0000000  0  7 03 25 01 22 20 16 06
  24224165.377    -4217085.939 7  -3260237.76645  24224157.083    24224166.7954
  21365553.577   -20712425.980 9 -15873203.58647  21365556.734    21365564.2324
  22485668.867   -13593945.315 8 -10569045.59246  22485669.612    22485677.4174
  19948157.642   -29121107.422 9 -22672209.42248  19948160.307    19948167.8414
  22186900.354   -15454925.113 8 -12017104.68847  22186902.060    22186909.5204
  22914616.750   -10701917.023 8  -8325164.79146  22914617.084    22914626.8764
  24012489.893    -6602564.293 8  -4977712.43045  24012489.431    24012499.6764
 00  7 13  2 53 30.0000000  0  7 03 25 01 22 20 16 06
  24204423.084    -4320792.455 8  -3341047.85645  24204423.152    24204432.7224
  21373281.500   -20671820.931 9 -15841563.32947  21373283.649    21373290.9584
  22469548.332   -13678629.830 8 -10635033.50046  22469554.312    22469562.7604
  19943272.844   -29146778.771 9 -22692213.06748  19943275.429    19943282.6024
  22193882.460   -15418237.998 8 -11988517.33747  22193883.408    22193891.4804
  22910058.981   -10725857.614 8  -8343819.80946  22910061.952    22910071.9584
  24019019.570    -6568211.310 8  -4950943.85345  24019026.217    24019036.3414
 00  7 13  2 54  0.0000000  0  7 03 25 01 22 20 16 06
  24184681.401    -4424501.088 8  -3421859.63445  24184687.432    24184698.4264
  21381042.169   -20631025.753 9 -15809774.92147  21381046.530    21381054.1604
  22453473.798   -13763111.163 8 -10700863.04647  22453478.315    22453487.7774
  19938492.464   -29171895.174 9 -22711784.27648  19938495.759    19938502.9234
  22200962.459   -15381020.805 8 -11959516.94547  22200966.140    22200973.6164
  22905611.622   -10749219.787 8  -8362024.10146  22905616.037    22905626.1724
  24025656.109    -6533360.655 8  -4923787.49645  24025658.768    24025668.5564
 00  7 13  2 54 30.0000000  0  7 03 25 01 22 20 16 06
  24164951.885    -4528208.688 8  -3502670.55345  24164951.781    24164963.7494
  21388842.568   -20590040.830 9 -15777838.65147  21388845.993    21388853.2414
  22437434.818   -13847387.144 8 -10766532.58547  22437440.306    22437450.3784
  19933819.935   -29196456.255 9 -22730922.76248  19933821.981    19933829.2194
  22208145.673   -15343275.425 8 -11930104.96147  22208148.320    22208156.4004
  22901277.840   -10772003.546 8  -8379777.66346  22901279.752    22901291.3254
  24032374.236    -6498013.454 8  -4896244.20745  24032384.083    24032395.1354
 00  7 13  2 55  0.0000000  0  7 03 25 01 22 20 16 06
  24145215.604    -4631912.715 8  -3583478.70545  24145217.666    24145228.6184
  21396677.295   -20548866.467 9 -15745754.76547  21396681.404    21396688.3264
  22421443.986   -13931455.386 8 -10832040.25847  22421443.432    22421452.4734
  19929250.569   -29220461.935 9 -22749628.46448  19929253.754    19929261.1674
  22215428.361   -15305003.849 8 -11900282.95647  22215430.884    22215439.0634
  22897055.265   -10794207.953 8  -8397079.76346  22897055.496    22897065.1714
  24039203.072    -6462170.377 8  -4868314.50845  24039206.236    24039216.1084
 00  7 13  2 55 30.0000000  0  7 03 25 01 22 20 16 06
  24125472.683    -4735610.561 7  -3664282.02445  24125484.005    24125495.6704
  21404550.423   -20507502.621 9 -15713523.24047  21404553.140    21404559.8864
  22405481.849   -14015313.864 8 -10897384.47747  22405485.587    22405494.8264
  19924789.242   -29243912.527 9 -22767901.63448  19924791.028    19924798.4254
  22222809.252   -15266207.990 8 -11870052.43647  22222813.870    22222821.9364
  22892933.856   -10815832.814 8  -8413930.24846  22892938.769    22892949.2004
  24046122.966    -6425832.477 8  -4839999.24045  24046119.491    24046130.7884
 00  7 13  2 56  0.0000000  0  7 03 25 01 22 20 16 06
  24105747.124    -4839299.043 8  -3745078.04445  24105753.683    24105763.7674
  21412456.903   -20465949.144 9 -15681143.94847  21412460.040    21412467.7274
  22389567.151   -14098960.238 8 -10962563.39847  22389568.487    22389577.2114
  19920431.462   -29266808.598 9 -22785742.70048  19920433.984    19920441.7434
  22230293.251   -15226889.752 8 -11839414.85847  22230295.926    22230304.0644
  22888930.699   -10836877.514 8  -8430328.69246  22888933.671    22888944.3564
  24053128.542    -6389000.780 8  -4811299.23845  24053128.444    24053139.0954
 00  7 13  2 56 30.0000000  0  7 03 25 01 22 20 16 06
  24086016.586    -4942975.537 8  -3825864.77045  24086023.013    24086034.6344
  21420399.791   -20424206.360 9 -15648617.14047  21420403.416    21420411.0794
  22373686.821   -14182392.275 8 -11027575.30747  22373691.558    22373700.1274
  19916179.302   -29289150.174 9 -22803151.69248  19916182.356    19916190.1944
  22237874.108   -15187051.262 8 -11808371.90247  22237876.659    22237884.7944
  22885042.546   -10857341.489 8  -8446274.61446  22885041.402    22885049.5734
  24060226.309    -6351676.081 8  -4782215.07645  24060231.962    24060241.7484
 00  7 13  2 57  0.0000000  0  7 03 25 01 22 20 16 06
  24066300.165    -5046637.287 8  -3906639.98445  24066297.586    24066308.7904
  21428378.947   -20382274.376 9 -15615942.91647  21428383.106    21428390.4204
  22357852.639   -14265607.650 8 -11092418.39847  22357856.445    22357864.8454
  19912034.364   -29310937.072 9 -22820128.47248  19912036.603    19912044.2534
  22245552.835   -15146694.418 8 -11776925.00447  22245556.285    22245564.5324
  22881253.515   -10877224.582 8  -8461767.91146  22881257.697    22881265.7314
  24067428.131    -6313859.431 8  -4752747.55445  24067428.308    24067438.2154
 00  7 13  2 57 30.0000000  0  7 03 25 01 22 20 16 06
  24046563.951    -5150281.380 8  -3987401.44245  24046574.131    24046586.2514
  21436395.041   -20340152.918 9 -15583121.04547  21436398.458    21436405.9924
  22342060.668   -14348604.190 8 -11157090.98047  22342062.163    22342070.5384
  19907994.643   -29332169.352 9 -22836673.07048  19907996.269    19908003.9434
  22253332.281   -15105821.211 8 -11745075.75147  22253334.143    22253342.0024
  22877582.570   -10896526.075 8  -8476808.00446  22877584.056    22877593.6854
  24074714.854    -6275551.803 8  -4722897.43545  24074718.383    24074727.5464
 00  7 13  2 58  0.0000000  0  7 03 25 01 22 20 16 06
  24026848.348    -5253905.029 8  -4068146.98145  24026855.401    24026865.7044
  21444447.308   -20297841.984 9 -15550151.52247  21444450.342    21444457.4234
  22326303.712   -14431379.609 8 -11221591.23747  22326310.287    22326319.5054
  19904059.105   -29352847.455 9 -22852785.85548  19904061.770    19904069.0774
  22261209.299   -15064433.690 8 -11712825.75347  22261209.718    22261218.2324
  22874018.249   -10915245.850 8  -8491394.81046  22874022.385    22874032.4844
  24082102.125    -6236754.254 8  -4692665.57545  24082100.286    24082110.6394
 00  7 13  2 58 30.0000000  0  7 03 25 01 22 20 16 06
  24007133.704    -5357505.366 8  -4148874.34845  24007140.761    24007151.3614
  21452533.251   -20255341.878 9 -15517034.58947  21452537.737    21452544.7624
  22310599.670   -14513931.621 8 -11285917.41647  22310601.060    22310609.6584
  19900230.596   -29372972.016 9 -22868467.31548  19900232.227    19900239.1344
  22269180.935   -15022534.107 8 -11680176.73347  22269183.037    22269191.6584
  22870568.451   -10933383.273 8  -8505527.82146  22870570.759    22870580.8694
  24089574.322    -6197467.776 8  -4662052.71345  24089576.123    24089586.4364
 00  7 13  2 59  0.0000000  0  7 03 25 01 22 20 16 06
  23987430.102    -5461079.510 8  -4229581.33245  23987431.593    23987442.6534
  21460658.576   -20212652.683 9 -15483770.31547  21460661.050    21460668.3054
  22294930.637   -14596257.932 8 -11350067.73147  22294934.863    22294943.1874
  19896504.657   -29392543.052 9 -22883717.45548  19896507.623    19896514.8294
  22277249.746   -14980124.452 8 -11647130.24947  22277253.215    22277261.6474
  22867224.942   -10950938.093 8  -8519206.85546  22867229.628    22867240.3924
  24097141.636    -6157693.309 7  -4631059.59445  24097144.660    24097155.6284
 00  7 13  2 59 30.0000000  0  7 03 25 01 22 20 16 06
  23967722.902    -5564624.514 8  -4310265.56345  23967727.165    23967738.2094
  21468817.865   -20169774.003 9 -15450358.39047  21468820.538    21468828.1014
  22279308.008   -14678356.239 8 -11414040.36547  22279311.674    22279320.5694
  19892888.002   -29411560.571 9 -22898536.28048  19892888.962    19892896.2084
  22285419.511   -14937206.785 8 -11613687.90847  22285421.040    22285428.8474
  22864000.306   -10967909.978 8  -8532431.63446  22864000.074    22864010.3574
  24104809.268    -6117431.833 8  -4599687.00345  24104806.927    24104816.5064
 00  7 13  3  0  0.0000000  0  7 03 25 01 22 20 16 06
  23948029.277    -5668137.708 8  -4390925.05245  23948029.270    23948039.3694
  21477011.230   -20126706.302 9 -15416799.17047  21477016.028    21477023.5654
  22263730.318   -14760224.197 8 -11477833.51447  22263733.961    22263741.8924
  19889372.775   -29430024.788 9 -22912923.96648  19889375.220    19889382.4574
  22293680.388   -14893783.295 8 -11579851.42447  22293683.739    22293691.7224
  22860879.130   -10984298.758 8  -8545202.07846  22860881.322    22860890.7504
  24112554.973    -6076684.674 8  -4567935.92945  24112561.709    24112569.7214
 00  7 13  3  0 30.0000000  0  7 03 25 01 22 20 16 06
  23928333.328    -5771616.515 8  -4471557.70245  23928337.426    23928348.8174
  21485242.897   -20083449.644 9 -15383092.72147  21485247.639    21485255.2174
  22248193.952   -14841859.724 8 -11541445.55147  22248198.643    22248207.6384
  19885964.499   -29447936.220 9 -22926880.91048  19885966.700    19885973.8774
  22302042.087   -14849856.148 8 -11545622.48947  22302043.230    22302050.3174
  22857872.017   -11000104.154 8  -8557517.92446  22857874.669    22857882.7664
  24120402.634    -6035452.812 8  -4535807.18645  24120407.311    24120417.2284
 00  7 13  3  1  0.0000000  0  7 03 25 01 22 20 16 06
  23908648.625    -5875057.599 8  -4552160.99545  23908653.635    23908664.6304
  21493511.637   -20040003.642 9 -15349238.73247  21493515.320    21493522.5634
  22232707.826   -14923260.329 8 -11604874.52447  22232708.218    22232716.5784
  19882661.426   -29465295.615 9 -22940407.68848  19882663.249    19882670.8474
  22310494.999   -14805427.377 8 -11511002.66847  22310497.857    22310505.5964
  22854976.826   -11015325.774 8  -8569378.88946  22854978.802    22854985.7484
  24128346.186    -5993737.524 8  -4503301.75845  24128345.151    24128355.8454
 00  7 13  3  1 30.0000000  0  7 03 25 01 22 20 16 06
  23888967.233    -5978458.555 8  -4632733.01445  23888976.450    23888986.6584
  21501816.409   -19996368.833 9 -15315237.61847  21501818.653    21501826.1704
  22217259.470   -15004423.710 8 -11668118.64747  22217263.004    22217272.2684
  19879463.233   -29482103.108 9 -22953504.41348  19879464.898    19879472.4344
  22319046.228   -14760499.293 8 -11475993.78947  22319047.806    22319055.2364
  22852187.466   -11029963.550 8  -8580784.91146  22852192.761    22852200.9314
  24136368.255    -5951539.906 8  -4470420.55645  24136375.313    24136385.1754
 00  7 13  3  2  0.0000000  0  7 03 25 01 22 20 16 06
  23869310.103    -6081816.365 8  -4713271.41045  23869307.365    23869317.7954
  21510154.040   -19952545.100 9 -15281089.29147  21510158.073    21510165.7144
  22201860.609   -15085347.693 8 -11731176.22747  22201863.712    22201872.5254
  19876369.668   -29498358.692 9 -22966171.07048  19876371.664    19876379.0944
  22327686.743   -14715073.977 8 -11440597.42646  22327691.173    22327698.9574
  22849517.970   -11044017.158 8  -8591735.75446  22849518.774    22849526.8134
  24144499.291    -5908861.101 8  -4437164.33345  24144496.944    24144505.9294
 00  7 13  3  2 30.0000000  0  7 03 25 01 22 20 16 06
  23849643.119    -6185128.231 8  -4793774.01845  23849648.748    23849658.5354
  21518531.474   -19908532.192 9 -15246793.55747  21518533.637    21518541.2354
  22186510.719   -15166029.831 8 -11794045.36747  22186511.117    22186519.5224
  19873381.394   -29514062.723 9 -22978407.96648  19873383.298    19873390.6784
  22336425.488   -14669153.559 8 -11404815.26946  22336428.671    22336437.8644
  22846948.676   -11057486.523 8  -8602231.34646  22846954.706    22846963.4204
  24152707.086    -5865702.266 8  -4403534.08845  24152709.091    24152719.3614
 00  7 13  3  3  0.0000000  0  7 03 25 01 22 20 16 06
  23829995.909    -6288391.218 8  -4874238.53245  23829998.198    23830008.7624
  21526942.601   -19864330.398 9 -15212350.64947  21526945.043    21526952.5844
  22171199.609   -15246467.996 8 -11856724.38747  22171203.884    22171211.6604
  19870496.913   -29529215.983 9 -22990215.68148  19870499.661    19870506.7294
  22345258.428   -14622740.541 8 -11368649.31346  22345261.582    22345269.9554
  22844496.357   -11070371.432 8  -8612271.49946  22844502.264    22844511.9704
  24161010.174    -5822064.470 7  -4369530.60745  24161013.280    24161023.0474
 00  7 13  3  3 30.0000000  0  7 03 25 01 22 20 16 06
  23810358.154    -6391602.363 8  -4954662.68545  23810357.822    23810367.7114
  21535389.406   -19819939.738 9 -15177760.55647  21535392.185    21535399.6394
  22155941.210   -15326659.842 8 -11919211.47147  22155943.948    22155951.7804
  19867718.903   -29543819.211 9 -23001594.79948  19867720.585    19867728.0704
  22354184.162   -14575837.200 8 -11332101.25446  22354187.470    22354194.6114
  22842159.846   -11082672.218 8  -8621856.48846  22842160.789    22842171.7214
  24169405.765    -5777949.099 8  -4335155.03645  24169408.403    24169418.2344
 00  7 13  3  4  0.0000000  0  7 03 25 01 22 20 16 06
  23790722.519    -6494758.674 8  -5035044.09445  23790727.455    23790737.6094
  21543871.889   -19775359.983 9 -15143023.12447  21543875.447    21543882.7434
  22140728.627   -15406603.007 8 -11981504.78147  22140731.208    22140740.5044
  19865044.497   -29557872.558 9 -23012545.44448  19865046.188    19865053.8024
  22363201.787   -14528445.740 8 -11295172.85746  22363205.338    22363213.4194
  22839928.912   -11094388.065 8  -8630985.70246  22839931.754    22839942.0804
  24177887.648    -5733357.385 8  -4300408.28945  24177894.236    24177903.6574
 00  7 13  3  4 30.0000000  0  7 03 25 01 22 20 16 06
  23771098.614    -6597857.389 8  -5115380.60445  23771109.273    23771118.7574
  21552389.071   -19730591.091 9 -15108138.31047  21552394.351    21552402.2374
  22125561.242   -15486295.303 8 -12043602.60147  22125566.163    22125574.5944
  19862475.155   -29571376.139 9 -23023067.70348  19862476.786    19862484.0614
  22372315.239   -14480568.338 8 -11257865.80346  22372316.553    22372324.5264
  22837810.223   -11105519.453 8  -8639659.47646  22837812.937    22837823.3924
  24186467.449    -5688290.606 8  -4265291.35545  24186470.235    24186479.8444
 00  7 13  3  5  0.0000000  0  7 03 25 01 22 20 16 06
  23751490.493    -6700895.637 7  -5195670.01545  23751500.183    23751511.1174
  21560944.703   -19685633.403 9 -15073106.37947  21560949.347    21560957.2084
  22110443.458   -15565734.297 8 -12105503.05847  22110449.200    22110458.2364
  19860007.503   -29584330.560 9 -23033162.05348  19860011.647    19860018.8564
  22381516.991   -14432207.248 8 -11220181.85246  22381519.291    22381526.6314
  22835801.825   -11116066.075 8  -8647877.57746  22835806.321    22835817.0384
  24195128.952    -5642749.857 8  -4229805.06545  24195136.508    24195146.4664
 00  7 13  3  5 30.0000000  0  7 03 25 01 22 20 16 06
  23731888.832    -6803870.695 7  -5275910.15545  23731905.108    23731914.8654
  21569536.676   -19640486.865 9 -15037927.29747  21569540.747    21569548.6184
  22095381.474   -15644917.871 8 -12167204.47247  22095381.005    22095389.9984
  19857649.002   -29596736.628 9 -23042829.11548  19857650.781    19857658.0614
  22390810.469   -14383365.039 8 -11182123.01046  22390813.930    22390821.3614
  22833908.692   -11126028.189 8  -8655640.22746  22833910.905    22833921.2134
  24203890.845    -5596736.444 8  -4193950.46545  24203891.654    24203902.4954
 00  7 13  3  6  0.0000000  0  7 03 25 01 22 20 16 06
  23712323.467    -6906779.671 8  -5356098.85645  23712320.833    23712332.1154
  21578165.970   -19595151.433 9 -15002601.01647  21578168.171    21578175.7614
  22080359.690   -15723843.537 8 -12228704.92947  22080361.792    22080370.2924
  19855392.422   -29608595.084 9 -23052069.45548  19855394.289    19855401.5684
  22400196.096   -14334044.002 8 -11143691.04646  22400198.731    22400206.5464
  22832122.724   -11135405.519 8  -8662947.20646  22832125.423    22832136.7834
  24212726.764    -5550251.834 8  -4157728.72545  24212738.213    24212747.8374
 00  7 13  3  6 30.0000000  0  7 03 25 01 22 20 16 06
  23692740.486    -7009619.412 8  -5436233.60945  23692752.576    23692763.1564
  21586828.375   -19549626.986 9 -14967127.45247  21586831.189    21586838.7584
  22065387.629   -15802508.953 8 -12290002.58247  22065392.082    22065401.4494
  19853239.256   -29619906.223 9 -23060883.31848  19853241.877    19853249.2094
  22409669.817   -14284246.564 8 -11104887.86146  22409674.416    22409682.0864
  22830450.298   -11144198.159 8  -8669798.59846  22830453.256    22830463.1754
  24221674.081    -5503297.196 8  -4121140.72345  24221674.319    24221682.8074
 00  7 13  3  7  0.0000000  0  7 03 25 01 22 20 16 06
  23673194.731    -7112387.103 8  -5516312.23145  23673195.695    23673206.1624
  21595527.321   -19503913.576 9 -14931506.64447  21595530.315    21595538.0754
  22050469.445   -15880911.755 8 -12351095.59647  22050472.292    22050481.7134
  19851191.896   -29630670.247 9 -23069270.86148  19851193.379    19851200.6094
  22419240.292   -14233974.990 8 -11065715.22746  22419241.547    22419248.9164
  22828890.801   -11152406.441 8  -8676194.63946  22828890.975    22828900.5424
  24230692.511    -5455873.835 8  -4084187.48345  24230698.179    24230706.8594
 00  7 13  3  7 30.0000000  0  7 03 25 01 22 20 16 06
  23653649.570    -7215079.713 8  -5596332.34945  23653654.147    23653664.2294
  21604262.461   -19458011.227 9 -14895738.61747  21604265.496    21604272.7664
  22035600.555   -15959049.623 8 -12411982.17047  22035603.293    22035612.2474
  19849247.269   -29640887.941 9 -23077232.68548  19849248.852    19849256.2494
  22428895.829   -14183231.729 8 -11026175.04446  22428897.788    22428905.1864
  22827435.669   -11160030.068 8  -8682135.10446  22827440.665    22827449.5224
  24239804.297    -5407983.297 7  -4046870.19945  24239810.716    24239820.8544
 00  7 13  3  8  0.0000000  0  7 03 25 01 22 20 16 06
  23634116.929    -7317694.221 8  -5676291.62545  23634127.365    23634137.3404
  21613033.368   -19411920.213 9 -14859823.58847  21613036.305    21613043.6534
  22020780.609   -16036920.364 8 -12472660.60247  22020785.040    22020793.9884
  19847407.348   -29650560.233 9 -23084769.53448  19847408.537    19847415.4804
  22438642.176   -14132019.175 8 -10986269.18246  22438642.942    22438651.3054
  22826099.549   -11167069.294 8  -8687620.20746  22826101.147    22826109.9784
  24249008.067    -5359626.618 8  -4009189.73445  24249012.884    24249023.0704
 00  7 13  3  8 30.0000000  0  7 03 25 01 22 20 16 06
  23614614.082    -7420227.913 8  -5756187.91245  23614614.737    23614625.8624
  21621837.265   -19365640.271 9 -14823761.33047  21621842.724    21621850.3934
  22006018.602   -16114521.582 8 -12533129.01147  22006018.430    22006027.1754
  19845668.354   -29659687.929 9 -23091882.02148  19845671.402    19845678.7274
  22448471.305   -14080339.774 8 -10945999.57346  22448477.307    22448485.5844
  22824871.458   -11173524.541 8  -8692650.23146  22824872.693    22824881.9124
  24258301.325    -5310805.274 8  -3971147.14045  24258304.237    24258313.3654
 00  7 13  3  9  0.0000000  0  7 03 25 01 22 20 16 06
  23595113.808    -7522677.925 8  -5836018.96345  23595120.372    23595130.4384
  21630685.528   -19319171.207 9 -14787551.71247  21630685.621    21630692.9424
  21991302.868   -16191850.827 9 -12593385.49847  21991303.019    21991311.7784
  19844037.239   -29668271.210 9 -23098570.27848  19844038.446    19844045.3284
  22458397.678   -14028195.729 8 -10905367.89746  22458400.326    22458408.3204
  22823752.141   -11179395.874 8  -8697225.26046  22823755.475    22823764.7934
  24267675.493    -5261520.772 8  -3932743.63845  24267681.291    24267691.3474
 00  7 13  3  9 30.0000000  0  7 03 25 01 22 20 16 06
  23575638.492    -7625041.472 8  -5915782.66845  23575640.847    23575651.0954
  21639559.776   -19272513.465 9 -14751195.08147  21639564.132    21639571.6254
  21976636.204   -16268905.909 8 -12653428.34547  21976639.733    21976647.9484
  19842505.862   -29676310.552 9 -23104834.68648  19842508.492    19842515.4384
  22468406.306   -13975589.790 8 -10864376.28446  22468410.095    22468419.0444
  22822746.420   -11184683.152 8  -8701345.16346  22822749.668    22822758.4154
  24277149.115    -5211774.384 8  -3893980.25045  24277148.549    24277158.8264
 00  7 13  3 10  0.0000000  0  7 03 25 01 22 20 16 06
  23556173.338    -7727315.475 8  -5995476.61145  23556178.804    23556188.3824
  21648474.609   -19225666.747 9 -14714691.19347  21648478.823    21648486.4634
  21962026.345   -16345684.359 8 -12713255.63647  21962029.111    21962037.3954
  19841080.373   -29683806.848 9 -23110675.93548  19841081.802    19841089.1674
  22478507.718   -13922524.283 8 -10823026.55546  22478509.123    22478516.4434
  22821853.193   -11189387.018 8  -8705010.47746  22821854.398    22821862.9194
  24286699.236    -5161567.800 8  -3854858.27745  24286702.458    24286712.7134
 00  7 13  3 10 30.0000000  0  7 03 25 01 22 20 16 06
  23536730.557    -7829496.861 8  -6075098.38745  23536734.707    23536744.6884
  21657425.538   -19178631.143 9 -14678040.12547  21657429.524    21657437.2424
  21947468.548   -16422183.753 8 -12772865.48747  21947471.592    21947479.8924
  19839757.028   -29690761.218 9 -23116094.90748  19839758.599    19839765.9944
  22488690.136   -13869001.862 8 -10781320.79246  22488693.714    22488701.9524
  22821064.722   -11193507.455 8  -8708221.16146  22821069.520    22821080.4194
  24296335.685    -5110902.420 8  -3815378.79545  24296344.736    24296353.2924
 00  7 13  3 11  0.0000000  0  8 03 25 01 22 20 16 19 06
  23517299.047    -7931582.839 8  -6154645.83845  23517307.850    23517317.7704
  21666413.189   -19131406.676 9 -14641241.88647  21666416.017    21666423.6884
  21932963.570   -16498401.891 8 -12832256.18347  21932967.859    21932976.6414
  19838536.267   -29697174.431 9 -23121092.19448  19838538.088    19838545.3704
  22498962.423   -13815025.054 8 -10739260.96846  22498964.870    22498973.1104
  22820396.121   -11197044.721 8  -8710977.43446  22820396.408    22820406.9284
  24721417.577     -253746.99917   -184648.58455  24721419.294    24721431.3154
  24306075.789    -5059779.703 8  -3775542.92845  24306072.557    24306081.7534
 00  7 13  3 11 30.0000000  0  8 03 25 01 22 20 16 19 06
  23497897.947    -8033570.556 8  -6234116.69045  23497899.607    23497910.2044
  21675435.685   -19083993.456 9 -14604296.57347  21675438.615    21675446.1434
  21918514.216   -16574336.466 8 -12891425.92147  21918517.923    21918526.4944
  19837416.675   -29703046.753 9 -23125668.00548  19837420.442    19837427.8584
  22509319.003   -13760596.191 8 -10696848.89446  22509322.259    22509330.4744
  22819834.029   -11199999.147 8  -8713279.55646  22819834.929    22819844.7994
  24705739.918     -336146.705 7   -248856.11945  24705738.594    24705751.1614
  24315882.258    -5008200.971 8  -3735351.75145  24315888.084    24315897.8884
 00  7 13  3 12  0.0000000  0  8 03 25 01 22 20 16 19 06
  23478502.342    -8135456.855 8  -6313508.53045  23478511.747    23478521.7434
  21684493.634   -19036391.045 9 -14567203.83347  21684497.031    21684504.6454
  21904118.760   -16649985.089 8 -12950372.84147  21904122.165    21904130.3414
  19836404.773   -29708378.846 9 -23129822.85748  19836406.152    19836413.1064
  22519761.087   -13705717.870 8 -10654086.60646  22519765.318    22519773.6174
  22819379.938   -11202371.212 8  -8715127.87846  22819383.007    22819392.9034
  24690055.622     -418547.140 7   -313064.22845  24690058.431    24690069.7534
  24325787.818    -4956167.726 8  -3694806.39945  24325788.484    24325799.7594
 00  7 13  3 12 30.0000000  0  8 03 25 01 22 20 16 19 06
  23459138.805    -8237238.896 8  -6392819.16945  23459143.717    23459153.4574
  21693589.128   -18988599.940 9 -14529964.05647  21693591.631    21693599.1014
  21889778.305   -16725345.418 9 -13009095.12047  21889782.035    21889789.9714
  19835491.037   -29713171.722 9 -23133557.54948  19835493.864    19835501.1814
  22530292.181   -13650392.683 8 -10610976.10146  22530293.792    22530301.7744
  22819041.642   -11204161.418 8  -8716522.80546  22819042.134    22819052.7464
  24674373.433     -500948.435 7   -377272.97645  24674378.487    24674391.5394
  24335769.983    -4903681.575 8  -3653908.15245  24335777.735    24335786.7624
 00  7 13  3 13  0.0000000  0  8 03 25 01 22 20 16 19 06
  23439793.295    -8338913.959 8  -6472046.42045  23439795.595    23439804.7014
  21702717.928   -18940619.753 9 -14492576.93447  21702721.511    21702728.9394
  21875492.304   -16800414.966 8 -13067590.81347  21875496.121    21875504.5914
  19834682.246   -29717426.477 9 -23136872.91448  19834684.141    19834691.5484
  22540901.466   -13594623.356 8 -10567519.50046  22540906.573    22540913.9204
  22818808.901   -11205369.978 8  -8717464.50246  22818812.560    22818821.6214
  24658699.900     -583350.186 7   -441482.11545  24658697.120    24658709.4744
  24345850.322    -4850744.165 8  -3612658.28145  24345850.529    24345860.1834
 00  7 13  3 13 30.0000000  0  8 03 25 01 22 20 16 19 06
  23420465.775    -8440478.970 8  -6551187.92645  23420468.254    23420477.7774
  21711883.423   -18892450.366 9 -14455042.38747  21711888.138    21711895.5254
  21861264.447   -16875191.431 9 -13125858.13647  21861266.895    21861275.3654
  19833973.588   -29721143.966 9 -23139769.62948  19833976.596    19833984.0224
  22551601.043   -13538412.248 8 -10523718.66146  22551603.046    22551610.9394
  22818692.081   -11205997.093 8  -8717953.12246  22818693.709    22818702.8084
  24643014.706     -665752.027 7   -505691.32645  24643018.108    24643028.2084
  24356004.696    -4797356.871 8  -3571057.86045  24356009.410    24356018.5884
 00  7 13  3 14  0.0000000  0  8 03 25 01 22 20 16 19 06
  23401162.550    -8541930.762 8  -6630241.18045  23401162.795    23401172.5634
  21721087.232   -18844092.076 9 -14417360.64947  21721090.212    21721097.7024
  21847092.343   -16949672.582 9 -13183895.34747  21847093.940    21847101.6664
  19833369.289   -29724324.495 9 -23142247.94148  19833371.413    19833378.5804
  22562379.930   -13481762.104 8 -10479575.71446  22562383.490    22562391.4134
  22818680.485   -11206043.082 8  -8717988.91446  22818683.123    22818694.0344
  24627329.223     -748153.635 7   -569900.29245  24627336.918    24627346.7364
  24366244.643    -4743521.248 8  -3529108.07945  24366254.417    24366263.9244
 00  7 13  3 14 30.0000000  0  8 03 25 01 22 20 16 19 06
  23381875.579    -8643266.611 8  -6709204.08246  23381879.160    23381888.5504
  21730325.533   -18795544.726 9 -14379531.56847  21730328.148    21730335.9804
  21832974.845   -17023855.994 9 -13241700.56547  21832977.434    21832985.3264
  19832867.478   -29726968.949 9 -23144308.53648  19832868.166    19832875.3874
  22573243.650   -13424675.503 8 -10435092.67946  22573246.485    22573254.6574
  22818785.721   -11205509.225 8  -8717572.88346  22818785.973    22818795.6324
  24611655.957     -830554.990 7   -634109.09645  24611656.499    24611667.1624
  24376588.483    -4689238.922 8  -3486810.19545  24376584.236    24376593.9484
 00  7 13  3 15  0.0000000  0  8 03 25 01 22 20 16 19 06
  23362612.842    -8744483.490 8  -6788074.27846  23362617.647    23362627.5574
  21739601.392   -18746808.313 9 -14341555.17947  21739602.662    21739610.1404
  21818916.808   -17097739.398 9 -13299272.00547  21818917.195    21818925.4844
  19832465.050   -29729078.412 9 -23145952.25548  19832466.611    19832473.9964
  22584186.880   -13367154.907 8 -10390271.45746  22584191.676    22584199.7974
  22818996.644   -11204395.128 8  -8716704.73246  22818997.742    22819007.1484
  24595977.319     -912955.804 7   -698317.46145  24595976.558    24595987.7604
  24386996.511    -4634511.626 8  -3444165.59545  24386998.519    24387008.2264
 00  7 13  3 15 30.0000000  0  8 03 25 01 22 20 16 19 06
  23343381.305    -8845578.232 8  -6866849.33646  23343380.233    23343389.4274
  21748910.080   -18697882.813 9 -14303431.45247  21748912.833    21748920.7434
  21804913.981   -17171320.337 9 -13356607.75747  21804915.939    21804923.6424
  19832164.930   -29730654.269 9 -23147180.17448  19832166.568    19832174.2594
  22595218.584   -13309203.083 8 -10345114.20846  22595220.428    22595227.0894
  22819318.616   -11202701.539 8  -8715385.02746  22819320.169    22819329.8354
  24580292.056     -995355.841 7   -762525.15445  24580296.040    24580307.0224
  24397492.360    -4579340.658 7  -3401175.25745  24397496.330    24397506.8384
 00  7 13  3 16  0.0000000  0  8 03 25 01 22 20 16 19 06
  23324167.408    -8946548.044 8  -6945526.99846  23324166.787    23324175.9454
  21758256.174   -18648768.135 9 -14265160.30547  21758259.573    21758266.8764
  21790967.513   -17244596.494 9 -13413706.02147  21790971.802    21790979.4954
  19831966.040   -29731697.040 9 -23147992.70248  19831968.332    19831975.9534
  22606327.135   -13250822.773 8 -10299623.06646  22606329.643    22606337.7954
  22819749.616   -11200429.218 8  -8713614.35346  22819752.530    22819762.1004
  24564620.088    -1077754.656 7   -826731.91245  24564615.112    24564624.8704
  24408085.585    -4523727.834 7  -3357840.62145  24408079.359    24408091.0184
 00  7 13  3 16 30.0000000  0  8 03 25 01 22 20 16 19 06
  23304966.326    -9047390.055 8  -7024105.06946  23304975.829    23304985.8044
  21767638.772   -18599464.210 9 -14226741.68947  21767641.728    21767649.1194
  21777082.886   -17317565.461 9 -13470564.92147  21777085.687    21777093.9664
  19831869.427   -29732207.341 9 -23148390.33248  19831871.322    19831878.5834
  22617518.438   -13192016.708 8 -10253800.17346  22617519.681    22617528.2244
  22820292.867   -11197578.439 8  -8711392.95246  22820294.908    22820304.7404
  24548931.632    -1160152.070 7   -890937.56645  24548934.806    24548946.3004
  24418746.197    -4467674.604 8  -3314162.77545  24418745.692    24418756.1284
 00  7 13  3 17  0.0000000  0  8 03 25 01 22 20 16 19 06
  23285811.644    -9148101.285 8  -7102581.24746  23285811.520    23285821.2834
  21777054.989   -18549971.277 9 -14188175.79547  21777059.898    21777067.3874
  21763256.356   -17390224.926 9 -13527182.64247  21763259.078    21763267.8934
  19831872.619   -29732186.120 9 -23148373.78848  19831875.024    19831882.3234
  22628789.383   -13132787.401 8 -10207647.49346  22628790.035    22628798.7434
  22820943.936   -11194150.048 8  -8708721.45746  22820947.725    22820957.0544
  24533254.646    -1242547.881 7   -955141.99045  24533257.084    24533266.8074
  24429493.857    -4411182.957 8  -3270143.35445  24429496.057    24429506.7874
 00  7 13  3 17 30.0000000  0  8 03 25 01 22 20 16 19 06
  23266666.942    -9248678.693 8  -7180953.14846  23266672.152    23266681.9144
  21786509.084   -18500289.328 9 -14149462.61447  21786514.184    21786521.7424
  21749490.397   -17462572.517 9 -13583557.34947  21749491.823    21749500.0844
  19831977.813   -29731634.716 9 -23147944.11648  19831979.732    19831987.5794
  22640140.194   -13073137.610 8 -10161167.14746  22640141.533    22640149.5654
  22821709.111   -11190144.535 8  -8705600.27046  22821709.356    22821718.8304
  24517578.553    -1324941.691 7  -1019344.84645  24517578.172    24517586.2654
  24440320.952    -4354254.192 8  -3225783.23145  24440330.272    24440339.6334
 00  7 13  3 18  0.0000000  0  8 03 25 01 22 20 16 19 06
  23247554.779    -9349119.041 8  -7259218.23046  23247558.880    23247568.1404
  21796003.020   -18450418.104 9 -14110601.94847  21796004.786    21796012.2464
  21735780.481   -17534605.908 9 -13639687.22147  21735784.369    21735792.9844
  19832182.990   -29730554.350 9 -23147102.26148  19832185.597    19832193.3124
  22651566.503   -13013070.095 8 -10114361.30046  22651571.965    22651579.6054
  22822575.222   -11185562.310 8  -8702029.67846  22822580.834    22822590.8134
  24501892.210    -1407333.106 7  -1083545.85245  24501898.035    24501909.7074
  24451248.518    -4296890.235 8  -3181084.11545  24451246.093    24451255.6564
 00  7 13  3 18 30.0000000  0  8 03 25 01 22 20 16 19 06
  23228468.731    -9449419.718 8  -7337374.51146  23228472.342    23228481.5584
  21805527.752   -18400357.946 9 -14071594.06647  21805530.628    21805538.2904
  21722132.553   -17606322.727 9 -13695570.41647  21722137.215    21722145.3544
  19832488.502   -29728945.696 9 -23145848.75848  19832491.755    19832499.1044
  22663077.844   -12952587.282 8 -10067231.85346  22663081.748    22663089.6404
  22823561.024   -11180404.553 8  -8698010.63146  22823562.645    22823572.4574
  24486223.679    -1489721.944 7  -1147744.82345  24486219.842    24486231.7774
  24462241.929    -4239092.656 8  -3136047.07145  24462244.310    24462254.4784
 00  7 13  3 19  0.0000000  0  8 03 25 01 22 20 16 19 06
  23209406.869    -9549577.595 8  -7415419.50446  23209412.497    23209422.1864
  21815086.970   -18350108.613 9 -14032438.77247  21815092.278    21815100.5444
  21708549.292   -17677720.598 9 -13751205.07947  21708550.672    21708558.6394
  19832896.355   -29726809.530 9 -23144184.20848  19832898.613    19832905.5584
  22674666.608   -12891692.227 8 -10019781.16246  22674670.291    22674677.6444
  22824652.625   -11174671.509 8  -8693543.33446  22824654.021    22824662.8434
  24470535.889    -1572108.200 7  -1211941.76845  24470541.900    24470552.4514
  24473312.314    -4180863.005 7  -3090673.29145  24473324.573    24473334.9014
 00  7 13  3 19 30.0000000  0  8 03 25 01 22 20 16 19 06
  23190370.309    -9649589.581 8  -7493350.80446  23190380.138    23190390.4524
  21824687.369   -18299669.796 9 -13993135.84447  21824690.953    21824698.5124
  21695022.876   -17748797.119 9 -13806589.34247  21695025.054    21695032.6434
  19833402.653   -29724146.761 9 -23142109.32148  19833405.523    19833412.3544
  22686331.699   -12830387.537 8  -9972011.28646  22686335.704    22686344.1704
  22825854.123   -11168363.861 8  -8688628.27246  22825854.370    22825863.9924
  24454858.372    -1654491.440 7  -1276136.31145  24454865.520    24454875.3324
  24484490.359    -4122203.450 8  -3044964.52345  24484488.083    24484496.6644
 00  7 13  3 20  0.0000000  0  8 03 25 01 22 20 16 19 06
  23171379.088    -9749452.877 8  -7571166.24946  23171377.318    23171387.0654
  21834321.032   -18249041.352 9 -13953685.16047  21834325.441    21834332.5354
  21681557.985   -17819549.966 9 -13861721.37647  21681560.835    21681569.4124
  19834009.924   -29720958.984 9 -23139625.33648  19834012.024    19834019.0454
  22698074.404   -12768676.201 8  -9923924.54746  22698079.303    22698087.0754
  22827162.801   -11161482.510 8  -8683266.17046  22827164.123    22827173.4354
  24439185.934    -1736871.218 7  -1340328.22545  24439189.515    24439197.9614
  24495726.496    -4063115.600 7  -2998922.09545  24495731.440    24495740.6184
 00  7 13  3 20 30.0000000  0  8 03 25 01 22 20 16 19 06
  23152398.121    -9849164.774 8  -7648863.69146  23152401.871    23152412.8044
  21843995.326   -18198223.690 9 -13914087.01847  21843995.746    21844002.8424
  21668154.247   -17889976.874 9 -13916599.42247  21668159.227    21668167.3254
  19834715.215   -29717247.420 9 -23136733.20348  19834718.277    19834725.2494
  22709894.996   -12706560.963 8  -9875523.08246  22709899.144    22709906.9644
  22828576.270   -11154028.188 8  -8677457.60046  22828582.043    22828591.1624
  24423510.478    -1819247.407 7  -1404517.30845  24423513.415    24423524.2754
  24507051.697    -4003600.868 7  -2952546.98445  24507055.615    24507064.5714
 00  7 13  3 21  0.0000000  0  8 03 25 01 22 20 16 19 06
  23133462.826    -9948722.090 8  -7726440.69146  23133456.650    23133467.1964
  21853700.051   -18147216.786 9 -13874341.41847  21853701.814    21853708.9494
  21654815.409   -17960075.503 9 -13971221.68347  21654819.979    21654828.0704
  19835522.896   -29713012.786 9 -23133433.48648  19835524.302    19835531.1934
  22721794.417   -12644044.399 8  -9826808.88846  22721795.509    22721803.0314
  22830106.903   -11146001.927 8  -8671203.37946  22830109.277    22830118.8424
  24407833.002    -1901619.350 7  -1468703.14645  24407837.853    24407848.9214
  24518463.633    -3943661.046 7  -2905840.63545  24518463.157    24518471.4134
 00  7 13  3 21 30.0000000  0  8 03 25 01 22 20 16 19 06
  23114535.311   -10048121.916 8  -7803894.98946  23114542.272    23114552.1744
  21863438.774   -18096020.420 8 -13834448.17647  21863444.033    21863451.6034
  21641538.931   -18029843.409 9 -14025586.23147  21641543.493    21641551.3964
  19836426.842   -29708255.911 9 -23129726.83248  19836429.229    19836436.3274
  22733768.270   -12581129.262 8  -9777784.13946  22733767.684    22733776.1714
  22831741.076   -11137404.120 8  -8664503.77646  22831745.668    22831755.2424
  24392166.262    -1983986.694 7  -1532885.34945  24392163.846    24392174.6734
  24529948.433    -3883298.220 7  -2858804.70445  24529948.987    24529958.7844
 00  7 13  3 22  0.0000000  0  8 03 25 01 22 20 16 19 06
  23095660.224   -10147361.109 8  -7881224.15146  23095657.955    23095666.8854
  21873216.762   -18044634.973 9 -13794407.60147  21873222.291    21873229.9294
  21628327.994   -18099278.331 9 -14079691.30747  21628330.181    21628338.5754
  19837431.221   -29702978.017 9 -23125614.19048  19837433.463    19837440.5494
  22745811.167   -12517818.457 8  -9728451.07646  22745815.237    22745824.2694
  22833487.990   -11128235.928 8  -8657359.75046  22833489.661    22833499.9524
  24376487.001    -2066349.488 7  -1597064.01645  24376491.737    24376501.4694
  24541515.926    -3822514.030 8  -2811440.42745  24541516.686    24541526.4294
 00  7 13  3 22 30.0000000  0  8 03 25 01 22 20 16 19 06
  23076799.882   -10246436.677 8  -7958425.79446  23076803.800    23076814.5474
  21883034.129   -17993059.876 9 -13754219.23747  21883036.972    21883044.5844
  21615178.211   -18168377.735 9 -14133534.93547  21615181.178    21615189.2754
  19838534.952   -29697180.657 9 -23121096.77148  19838536.795    19838543.5444
  22757936.090   -12454114.761 8  -9678811.86846  22757937.904    22757946.0434
  22835339.912   -11118497.982 8  -8649771.74146  22835342.638    22835352.5204
  24360806.932    -2148707.271 7  -1661238.78245  24360818.291    24360828.4494
  24553157.700    -3761310.225 7  -2763749.18445  24553163.334    24553172.8134
 00  7 13  3 23  0.0000000  0  8 03 25 01 22 20 16 19 06
  23057981.374   -10345345.590 8  -8035497.54646  23057981.781    23057992.0394
  21892884.704   -17941295.306 9 -13713883.23247  21892887.847    21892895.2114
  21602090.721   -18237139.374 9 -14187115.37147  21602095.600    21602103.8674
  19839736.930   -29690865.023 9 -23116175.50348  19839738.513    19839745.5854
  22770131.250   -12390021.095 8  -9628868.77646  22770134.662    22770142.8554
  22837304.483   -11108191.282 8  -8641740.55546  22837304.997    22837314.2654
  24345143.489    -2231059.783 7  -1725409.39845  24345148.043    24345157.6774
  24564887.883    -3699688.703 8  -2715732.41845  24564888.944    24564898.7834
 00  7 13  3 23 30.0000000  0  8 03 25 01 22 20 16 19 06
  23039185.957   -10444084.967 8  -8112437.19446  23039192.789    23039201.8904
  21902770.889   -17889341.181 9 -13673399.51247  21902774.339    21902781.4144
  21589073.256   -18305560.954 9 -14240430.81747  21589075.602    21589084.2634
  19841035.182   -29684031.916 9 -23110851.00648  19841038.706    19841046.0344
  22782400.297   -12325540.351 8  -9578624.06446  22782405.032    22782413.5394
  22839372.066   -11097316.703 8  -8633266.85346  22839373.720    22839384.2194
  24329479.523    -2313406.587 7  -1789575.63745  24329478.197    24329487.7614
  24576690.352    -3637651.104 7  -2667391.41145  24576695.261    24576705.4714
 00  7 13  3 24  0.0000000  0  8 03 25 01 22 20 16 19 06
  23020428.630   -10542651.623 8  -8189242.29746  23020435.675    23020445.6004
  21912693.901   -17837197.384 9 -13632768.00047  21912696.872    21912704.1364
  21576118.621   -18373640.106 9 -14293479.44347  21576121.191    21576129.2624
  19842436.343   -29676682.295 9 -23105124.03048  19842437.668    19842444.6044
  22794743.819   -12260675.034 8  -9528079.67546  22794748.490    22794756.4644
  22841547.183   -11085875.204 8  -8624351.40746  22841551.213    22841561.1204
  24313802.806    -2395747.484 7  -1853737.21445  24313808.309    24313819.0584
  24588573.917    -3575199.576 8  -2618727.93645  24588579.328    24588588.8434
 00  7 13  3 24 30.0000000  0  8 03 25 01 22 20 16 19 06
  23001714.547   -10641042.941 8  -8265910.75246  23001713.086    23001722.0444
  21922654.071   -17784863.705 8 -13591988.52947  21922655.680    21922662.4284
  21563227.259   -18441374.438 9 -14346259.39647  21563231.465    21563239.6054
  19843932.443   -29668817.501 9 -23098995.62248  19843934.390    19843941.0644
  22807158.617   -12195428.452 8  -9477238.20746  22807164.153    22807171.7374
  22843835.036   -11073867.884 8  -8614995.06446  22843835.746    22843845.8734
  24298139.492    -2478081.874 7  -1917893.74445  24298139.701    24298149.8304
  24600540.913    -3512335.913 7  -2569743.32545  24600541.782    24600551.6874
 00  7 13  3 25  0.0000000  0  8 03 25 01 22 20 16 19 06
  22983020.199   -10739255.911 8  -8342440.26246  22983022.648    22983032.3104
  21932645.043   -17732340.449 8 -13551061.33947  21932650.027    21932657.8124
  21550407.764   -18508761.628 9 -14398768.83347  21550408.023    21550416.4384
  19845525.444   -29660439.227 9 -23092467.10048  19845528.232    19845535.3874
  22819652.372   -12129803.484 8  -9426101.90846  22819653.160    22819660.6444
  22846223.571   -11061295.553 8  -8605198.46246  22846228.496    22846237.6064
  24282476.370    -2560409.300 7  -1982044.86045  24282474.439    24282484.9084
  24612582.842    -3449061.801 7  -2520438.81745  24612582.303    24612591.3054
 00  7 13  3 25 30.0000000  0  8 03 25 01 22 20 16 19 06
  22964359.946   -10837287.153 8  -8418828.14646  22964368.138    22964378.1424
  21942681.945   -17679627.847 8 -13509986.61047  21942681.373    21942689.5134
  21537648.216   -18575799.411 9 -14451006.00047  21537651.103    21537659.3344
  19847219.507   -29651548.653 9 -23085539.38048  19847220.364    19847227.2934
  22832212.032   -12063802.606 8  -9374672.68846  22832212.264    22832220.0674
  22848722.415   -11048159.094 8  -8594962.23946  22848728.276    22848738.6094
  24266806.001    -2642729.709 7  -2046190.44645  24266808.362    24266819.2224
  24624705.106    -3385379.172 7  -2470816.04645  24624700.293    24624709.6094
 00  7 13  3 26  0.0000000  0  8 03 25 01 22 20 16 19 06
  22945746.097   -10935133.767 8  -8495072.17046  22945748.180    22945758.5204
  21952746.080   -17626725.667 8 -13468764.17547  21952747.719    21952756.2174
  21524957.380   -18642485.434 9 -14502969.07747  21524961.189    21524969.3794
  19849005.093   -29642146.627 9 -23078213.12248  19849009.327    19849016.8434
  22844841.410   -11997428.876 8  -9322952.94446  22844842.794    22844850.9054
  22851333.103   -11034459.948 8  -8584287.60446  22851335.049    22851344.4794
  24251142.101    -2725042.720 7  -2110330.34245  24251144.841    24251154.8964
  24636897.219    -3321289.954 8  -2420876.43645  24636896.328    24636906.4894
 00  7 13  3 26 30.0000000  0  8 03 25 01 22 20 16 19 06
  22927156.426   -11032793.002 8  -8571170.18546  22927164.408    22927174.3374
  21962845.495   -17573633.540 8 -13427393.72847  21962850.782    21962859.5964
  21512334.813   -18708817.462 9 -14554656.32247  21512338.910    21512346.2594
  19850895.359   -29632234.255 9 -23070489.19448  19850895.714    19850902.8584
  22857535.967   -11930685.370 8  -9270945.04346  22857543.922    22857552.3474
  22854043.514   -11020198.758 8  -8573174.98146  22854048.278    22854059.5754
  24235478.847    -2807347.705 7  -2174463.99645  24235482.772    24235492.4154
  24649168.532    -3256795.909 8  -2370621.30045  24649169.217    24649179.0494
 00  7 13  3 27  0.0000000  0  8 03 25 01 22 20 16 19 06
  22908609.783   -11130261.729 8  -8647119.74646  22908617.458    22908627.0514
  21972987.836   -17520351.606 8 -13385875.39747  21972990.221    21972998.3094
  21499782.345   -18774793.078 9 -14606065.83947  21499783.988    21499791.6074
  19852875.161   -29621812.990 9 -23062368.72048  19852878.749    19852886.0074
  22870313.077   -11863574.986 8  -9218651.27346  22870315.034    22870322.8864
  22856867.670   -11005376.968 8  -8561625.55446  22856869.746    22856879.5384
  24219820.695    -2889644.749 7  -2238591.41145  24219822.044    24219833.2994
  24661517.438    -3191899.175 8  -2320052.41945  24661518.174    24661529.1244
 00  7 13  3 27 30.0000000  0  8 03 25 01 22 20 16 19 06
  22890108.786   -11227537.022 8  -8722918.57146  22890105.687    22890115.2194
  21983160.673   -17466879.885 8 -13344209.15947  21983165.513    21983173.7144
  21487296.329   -18840409.784 9 -14657195.70047  21487297.579    21487305.0664
  19854956.866   -29610884.492 9 -23053853.00348  19854958.497    19854965.4574
  22883152.196   -11796100.457 8  -9166073.75846  22883154.737    22883162.8244
  22859792.905   -10989995.323 8  -8549639.84046  22859796.682    22859806.3554
  24204155.087    -2971933.291 7  -2302712.21945  24204162.694    24204174.1714
  24673945.851    -3126601.360 7  -2269171.00145  24673944.783    24673953.8954
 00  7 13  3 28  0.0000000  0  8 03 25 01 22 20 16 19 06
  22871632.158   -11324615.920 8  -8798564.35046  22871632.130    22871642.2014
  21993377.183   -17413218.258 8 -13302394.94447  21993377.384    21993385.3904
  21474874.449   -18905665.361 9 -14708044.15947  21474879.170    21474887.4164
  19857132.572   -29599450.027 9 -23044943.03248  19857134.229    19857141.1604
  22896060.618   -11728264.985 8  -9113214.98246  22896063.090    22896071.2554
  22862826.422   -10974055.275 8  -8537219.01246  22862829.731    22862839.3224
  24188492.872    -3054212.728 7  -2366825.91545  24188504.208    24188515.2554
  24686439.348    -3060904.826 7  -2217978.95545  24686446.476    24686455.0724
 00  7 13  3 28 30.0000000  0  8 03 25 01 22 20 16 19 06
  22853194.269   -11421495.332 8  -8874054.69646  22853196.855    22853206.2844
  22003622.776   -17359366.710 8 -13260432.74947  22003625.458    22003633.7794
  21462527.623   -18970557.406 9 -14758609.33947  21462530.555    21462539.2134
  19859404.551   -29587510.470 9 -23035639.47248  19859406.151    19859413.1504
  22909040.083   -11660071.243 8  -9060077.05346  22909039.442    22909047.8894
  22865964.766   -10957557.592 8  -8524363.66846  22865968.989    22865978.9264
  24172853.942    -3136482.842 7  -2430932.40745  24172849.760    24172859.5194
  24699019.788    -2994811.372 7  -2166477.61245  24699023.507    24699033.0064
 00  7 13  3 29  0.0000000  0  8 03 25 01 22 20 16 19 06
  22834794.342   -11518172.332 8  -8949387.35346  22834799.945    22834808.8284
  22013906.512   -17305325.501 8 -13218322.75347  22013909.059    22013916.3964
  21450248.453   -19035083.645 9 -14808889.48547  21450252.105    21450260.1544
  19861772.756   -29575067.032 9 -23025943.28248  19861774.318    19861781.2054
  22922079.045   -11591522.313 8  -9006662.34346  22922083.938    22922092.2774
  22869214.331   -10940503.990 8  -8511075.14646  22869214.069    22869224.0394
  24157196.549    -3218743.368 8  -2495031.38445  24157196.786    24157205.5844
  24711675.820    -2928322.610 7  -2114668.21245  24711676.004    24711685.7994
 00  7 13  3 29 30.0000000  0  8 03 25 01 22 20 16 19 06
  22816440.354   -11614644.065 8  -9024560.04546  22816442.328    22816450.6414
  22024225.695   -17251094.290 8 -13176064.70847  22024228.325    22024237.0254
  21438039.097   -19099241.837 9 -14858882.84647  21438042.652    21438051.0994
  19864236.296   -29562121.415 9 -23015855.78648  19864237.695    19864244.6174
  22935193.234   -11522620.991 8  -8952973.05146  22935195.473    22935203.7064
  22872564.767   -10922895.218 8  -8497354.01446  22872565.636    22872574.9474
  24141543.286    -3300993.558 7  -2559122.33445  24141544.487    24141553.3444
  24724407.376    -2861440.758 7  -2062552.50245  24724402.710    24724411.6464
 00  7 13  3 30  0.0000000  0  8 03 25 01 22 20 16 19 06
  22798118.757   -11710907.401 8  -9099570.36546  22798123.698    22798132.4004
  22034578.606   -17196673.030 8 -13133658.58247  22034584.646    22034592.5814
  21425899.987   -19163029.650 9 -14908587.59247  21425904.803    21425912.6344
  19866794.347   -29548675.245 9 -23005378.24848  19866796.507    19866803.4194
  22948366.700   -11453370.385 8  -8899011.58446  22948373.761    22948381.8814
  22876016.572   -10904732.626 8  -8483201.34046  22876021.525    22876031.0664
  24125883.767    -3383233.001 7  -2623204.87445  24125894.460    24125904.1514
  24737201.681    -2794167.799 7  -2010132.05245  24737204.107    24737214.5264
 00  7 13  3 30 30.0000000  0  8 03 25 01 22 20 16 19 06
  22779845.360   -11806959.295 8  -9174415.88546  22779844.410    22779855.4094
  22044974.121   -17142061.552 8 -13091104.23647  22044976.506    22044984.6554
  21413833.710   -19226444.774 9 -14958001.94647  21413837.017    21413845.2624
  19869448.536   -29534729.795 9 -22994511.65748  19869450.103    19869457.1654
  22961616.595   -11383773.517 8  -8844780.28546  22961617.964    22961626.3114
  22879580.058   -10886017.557 8  -8468618.15946  22879583.705    22879590.9154
  24110245.022    -3465461.624 7  -2687279.03645  24110246.095    24110256.1824
  24750075.304    -2726505.687 7  -1957408.33745  24750080.795    24750089.0004
 00  7 13  3 31  0.0000000  0  8 03 25 01 22 20 16 19 06
  22761603.593   -11902796.902 8  -9249094.43946  22761607.524    22761617.6464
  22055401.353   -17087260.000 8 -13048401.76747  22055404.698    22055413.0884
  21401840.388   -19289484.948 9 -15007124.12247  21401840.823    21401848.7674
  19872197.494   -29520286.087 9 -22983256.81848  19872198.493    19872205.7694
  22974926.165   -11313833.227 8  -8790281.40946  22974926.528    22974935.5964
  22883246.934   -10866751.467 8  -8453605.60946  22883249.688    22883258.3484
  24094599.457    -3547679.044 7  -2751344.45645  24094602.063    24094611.4564
  24763029.259    -2658456.519 7  -1904383.05045  24763029.490    24763038.4404
 00  7 13  3 31 30.0000000  0  8 03 25 01 22 20 16 19 06
  22743399.812   -11998417.205 8  -9323603.66846  22743411.589    22743421.6194
  22065863.983   -17032268.610 8 -13005551.38147  22065869.687    22065877.6004
  21389910.054   -19352147.989 9 -15055952.43847  21389916.300    21389924.1354
  19875040.205   -29505345.416 9 -22971614.73848  19875041.710    19875048.8664
  22988296.383   -11243552.490 8  -8735517.25946  22988300.764    22988309.7404
  22887013.351   -10846935.155 8  -8438164.31346  22887020.148    22887028.8594
  24078957.119    -3629884.749 7  -2815400.75745  24078959.123    24078968.2254
  24776054.265    -2590022.223 7  -1851057.64545  24776051.725    24776062.3494
 00  7 13  3 32  0.0000000  0  8 03 25 01 22 20 16 19 06
  22725253.812   -12093817.115 8  -9397941.15446  22725257.554    22725266.7724
  22076368.519   -16977087.201 8 -12962552.92047  22076370.590    22076378.7264
  21378062.037   -19414431.552 9 -15104485.05547  21378064.569    21378072.1224
  19877976.741   -29489909.469 9 -22959586.72548  19877979.057    19877986.3384
  23001733.601   -11172934.493 8  -8680490.29646  23001739.332    23001747.2114
  22890893.208   -10826570.382 8  -8422295.65746  22890895.072    22890904.9504
  24063320.466    -3712078.146 8  -2879447.44845  24063317.667    24063328.2504
  24789144.409    -2521204.910 7  -1797433.78945  24789148.354    24789157.9734
 00  7 13  3 32 30.0000000  0  8 03 25 01 22 20 16 19 06
  22707142.723   -12188993.837 8  -9472104.70746  22707146.015    22707155.1254
  22086906.925   -16921715.765 8 -12919406.37547  22086907.397    22086915.5004
  21366283.871   -19476333.253 9 -15152720.12947  21366285.282    21366293.0214
  19881007.501   -29473980.027 9 -22947174.17248  19881010.253    19881017.5544
  23015239.478   -11101982.220 8  -8625202.84446  23015240.582    23015249.4114
  22894870.579   -10805658.175 8  -8406000.43846  22894874.581    22894883.9374
  24047671.143    -3794258.902 8  -2943484.32945  24047678.724    24047689.1054
  24802315.476    -2452006.565 7  -1743513.04045  24802314.876    24802325.6654
 00  7 13  3 33  0.0000000  0  8 03 25 01 22 20 16 19 06
  22689072.144   -12283944.379 8  -9546092.05446  22689078.019    22689086.1004
  22097475.460   -16866154.352 8 -12876111.81147  22097480.196    22097488.6424
  21354573.492   -19537850.806 9 -15200655.86047  21354578.622    21354586.2484
  19884132.396   -29457558.275 9 -22934378.00548  19884135.101    19884142.4554
  23028805.552   -11030698.482 8  -8569657.11046  23028806.137    23028814.0934
  22898957.464   -10784200.067 8  -8389279.84146  22898958.111    22898966.9374
  24032035.048    -3876426.607 8  -3007510.99845  24032043.405    24032052.4844
  24815554.455    -2382429.174 7  -1689296.86945  24815556.022    24815565.8694
 00  7 13  3 33 30.0000000  0  8 03 25 01 22 20 16 19 06
  22671045.068   -12378665.544 8  -9619900.66446  22671052.310    22671060.9404
  22108087.830   -16810402.146 8 -12832668.56047  22108089.791    22108097.6944
  21342941.497   -19598982.001 9 -15248290.54247  21342945.665    21342953.3564
  19887350.848   -29440645.298 9 -22921199.05948  19887353.575    19887360.8084
  23042429.154   -10959086.429 8  -8513855.53246  23042432.745    23042441.3824
  22903142.678   -10762197.639 8  -8372135.09646  22903144.744    22903154.8734
  24016405.736    -3958580.777 8  -3071527.18345  24016408.626    24016416.9364
  24828860.518    -2312474.884 7  -1634787.05045  24828866.762    24828878.3614
 00  7 13  3 34  0.0000000  0  7 03 25 01 22 20 16 19
  22653069.888   -12473154.527 8  -9693528.33546  22653071.712    22653080.7464
  22118732.985   -16754459.613 8 -12789077.02447  22118735.743    22118742.8154
  21331384.908   -19659724.518 9 -15295622.35947  21331386.795    21331394.5434
  19890663.750   -29423242.687 9 -22907638.58548  19890665.214    19890672.7334
  23056120.224   -10887149.142 8  -8457800.52446  23056122.188    23056130.1524
  22907431.857   -10739651.916 8  -8354566.99346  22907435.009    22907444.4624
  24000773.660    -4040721.100 8  -3135532.56945  24000777.585    24000787.8184
 00  7 13  3 34 30.0000000  0  7 03 25 01 22 20 16 19
  22635133.912   -12567408.508 8  -9766972.87546  22635136.070    22635145.2764
  22129414.971   -16698326.829 8 -12745337.23347  22129417.161    22129424.6364
  21319898.037   -19720075.855 9 -15342649.36047  21319901.758    21319910.1324
  19894067.059   -29405352.109 9 -22893697.87948  19894069.674    19894076.9914
  23069870.657   -10814889.550 8  -8401494.38446  23069873.020    23069880.6664
  22911824.709   -10716564.572 8  -8336576.85546  22911829.324    22911837.4944
  23985150.220    -4122847.029 8  -3199526.72445  23985150.390    23985159.8634
 00  7 13  3 35  0.0000000  0  7 03 25 01 22 20 16 19
  22617241.087   -12661424.310 8  -9840231.84646  22617245.354    22617254.1764
  22140130.460   -16642003.836 8 -12701449.22047  22140135.192    22140142.7374
  21308489.262   -19780033.892 9 -15389369.89047  21308492.340    21308499.9784
  19897566.983   -29386975.472 9 -22879378.42448  19897566.788    19897573.9264
  23083682.090   -10742310.731 8  -8344939.46046  23083683.480    23083692.2234
  22916321.649   -10692937.143 8  -8318165.87346  22916324.676    22916332.9354
  23969522.513    -4204957.953 7  -3263509.23445  23969525.531    23969533.9254
 00  7 13  3 35 30.0000000  0  7 03 25 01 22 20 16 19
  22599397.983   -12755198.774 8  -9913302.75846  22599400.168    22599409.3124
  22150888.788   -16585490.577 8 -12657412.97147  22150888.958    22150897.0404
  21297155.761   -19839596.481 9 -15435782.28347  21297157.997    21297165.9594
  19901153.025   -29368113.694 9 -22864680.93748  19901155.924    19901163.1644
  23097555.843   -10669415.853 8  -8288138.26446  23097555.657    23097563.4334
  22920921.397   -10668771.043 8  -8299335.13446  22920923.680    22920932.7284
  23953898.986    -4287053.639 7  -3327479.82045  23953902.334    23953912.9954
 00  7 13  3 36  0.0000000  0  7 03 25 01 22 20 16 19
  22581600.894   -12848729.355 8  -9986183.60046  22581602.180    22581611.3984
  22161675.051   -16528787.041 8 -12613228.43247  22161679.714    22161687.9534
  21285896.127   -19898761.352 9 -15481884.76347  21285899.500    21285907.1604
  19904835.590   -29348768.248 9 -22849606.56148  19904837.203    19904844.4724
  23111484.407   -10596207.886 8  -8231093.13246  23111486.658    23111495.1614
  22925622.399   -10644067.504 8  -8280085.62746  22925624.403    22925633.1994
  23938284.553    -4369133.440 8  -3391438.06445  23938283.772    23938293.5154
 00  7 13  3 36 30.0000000  0  7 03 25 01 22 20 16 19
  22563846.929   -12942012.951 8 -10058872.01146  22563851.327    22563859.4834
  22172502.476   -16471892.938 8 -12568895.40047  22172506.093    22172514.3284
  21274712.555   -19957526.231 9 -15527675.55847  21274716.580    21274724.6704
  19908608.902   -29328940.663 9 -22834156.50148  19908610.297    19908617.5964
  23125475.212   -10522689.867 8  -8173806.40846  23125477.348    23125485.2144
  22930426.946   -10618828.627 8  -8260418.98046  22930427.134    22930436.2514
  23922663.332    -4451196.961 8  -3455383.63545  23922668.204    23922676.4564
 00  7 13  3 37  0.0000000  0  7 03 25 01 22 20 16 19
  22546139.268   -13035046.236 8 -10131365.38446  22546147.283    22546156.2924
  22183363.582   -16414808.219 8 -12524413.83747  22183368.796    22183377.0034
  21263607.143   -20015888.918 9 -15573152.95247  21263610.447    21263618.3594
  19912472.916   -29308632.835 9 -22818332.22548  19912474.893    19912481.9974
  23139526.570   -10448864.838 8  -8116280.46346  23139525.541    23139533.4754
  22935326.947   -10593055.304 8  -8240335.87746  22935331.769    22935341.3904
  23907052.497    -4533243.722 8  -3519316.15245  23907054.292    23907063.9174
 00  7 13  3 37 30.0000000  0  7 03 25 01 22 20 16 19
  22528489.183   -13127826.588 8 -10203661.62246  22528491.686    22528500.3434
  22194264.301   -16357533.051 8 -12479783.85747  22194268.570    22194276.2584
  21252578.141   -20073847.176 9 -15618315.20547  21252581.555    21252589.2444
  19916427.733   -29287846.514 9 -22802135.09148  19916430.406    19916437.7634
  23153631.811   -10374735.803 8  -8058517.60046  23153631.760    23153639.9804
  22940334.816   -10566749.708 8  -8219838.00546  22940338.318    22940346.5104
  23891437.773    -4615273.361 8  -3583235.30845  23891443.717    23891454.9634
 00  7 13  3 38  0.0000000  0  7 03 25 01 22 20 16 19
  22510881.541   -13220351.005 8 -10275758.45046  22510884.452    22510893.3594
  22205203.036   -16300067.410 8 -12435005.47147  22205204.101    22205211.5904
  21241626.760   -20131398.692 9 -15663160.52347  21241630.116    21241637.5464
  19920473.706   -29266582.769 9 -22785565.93848  19920476.589    19920484.1164
  23167785.442   -10300305.989 8  -8000520.36246  23167794.840    23167803.0254
  22945442.093   -10539912.852 8  -8198926.16146  22945445.090    22945453.8434
  23875833.605    -4697285.405 8  -3647140.78645  23875838.379    23875848.2504
 00  7 13  3 38 30.0000000  0  7 03 25 01 22 20 16 19
  22493324.730   -13312616.725 8 -10347653.69046  22493327.076    22493335.8544
  22216172.448   -16242411.221 8 -12390078.60047  22216174.787    22216182.7894
  21230753.111   -20188541.250 9 -15707687.16447  21230756.062    21230763.4234
  19924610.799   -29244843.008 9 -22768625.86748  19924613.490    19924621.2224
  23182008.885   -10225578.563 8  -7942291.20246  23182014.905    23182023.0674
  22950649.899   -10512546.820 8  -8177601.97446  22950652.065    22950661.3454
  23860232.770    -4779279.248 8  -3711032.07845  23860235.164    23860245.3884
 00  7 13  3 39  0.0000000  0  7 03 25 01 22 20 16 19
  22475817.947   -13404620.753 8 -10419345.04346  22475818.854    22475827.5394
  22227178.346   -16184564.400 8 -12345003.18346  22227182.642    22227190.7204
  21219958.731   -20245272.663 9 -15751893.43047  21219960.610    21219967.9094
  19928837.576   -29222628.908 9 -22751316.18248  19928840.928    19928848.1574
  23196291.609   -10150556.484 8  -7883832.46846  23196291.720    23196300.4744
  22955952.961   -10484653.325 8  -8155866.79246  22955959.136    22955969.8934
  23844631.652    -4861254.355 8  -3774908.76045  23844635.150    23844646.1434
 00  7 13  3 39 30.0000000  0  7 03 25 01 22 20 16 19
  22458356.634   -13496360.012 8 -10490830.06746  22458361.979    22458370.5144
  22238224.753   -16126527.262 8 -12299779.46547  22238227.553    22238235.3974
  21209240.260   -20301590.556 9 -15795777.47147  21209243.286    21209250.5424
  19933155.994   -29199942.536 9 -22733638.49248  19933157.820    19933165.3164
  23210618.594   -10075242.788 8  -7825146.51346  23210623.167    23210632.4404
  22961363.458   -10456233.390 8  -8133721.40446  22961367.864    22961377.4934
  23829033.826    -4943210.030 8  -3838770.27745  23829040.005    23829049.1114
 00  7 13  3 40  0.0000000  0  7 03 25 01 22 20 16 19
  22440953.688   -13587831.448 8 -10562106.40746  22440955.384    22440964.5724
  22249304.506   -16068299.692 8 -12254407.36347  22249307.672    22249315.5294
  21198602.420   -20357492.909 9 -15839337.70047  21198605.673    21198613.1954
  19937562.498   -29176785.520 9 -22715594.07348  19937564.474    19937571.5964
  23225008.142    -9999640.735 8  -7766235.87546  23225009.630    23225017.9714
  22966872.346   -10427289.374 8  -8111167.62946  22966875.676    22966885.5934
  23813448.990    -5025145.815 8  -3902616.33145  23813448.575    23813457.0474
 00  7 13  3 40 30.0000000  0  7 03 25 01 22 20 16 19
  22423593.688   -13679032.357 8 -10633171.95446  22423600.620    22423608.9754
  22260420.022   -16009881.414 8 -12208886.66046  22260423.997    22260432.3084
  21188043.924   -20412977.517 9 -15882572.42747  21188047.033    21188054.2754
  19942057.277   -29153159.159 9 -22697183.92748  19942060.406    19942067.5414
  23239445.991    -9923753.318 8  -7707102.85046  23239451.186    23239458.9904
  22972480.487   -10397822.507 8  -8088206.43946  22972482.868    22972492.0134
  23797858.237    -5107061.400 8  -3966446.63345  23797859.763    23797869.8424
 00  7 13  3 41  0.0000000  0  7 03 25 01 22 20 16 19
  22406292.644   -13769959.727 8 -10704024.35146  22406297.112    22406305.9564
  22271574.329   -15951272.326 8 -12163217.27646  22271577.558    22271584.4754
  21177565.849   -20468042.168 9 -15925479.91347  21177568.677    21177576.3234
  19946644.769   -29129064.749 9 -22678409.06348  19946645.606    19946652.7244
  23253946.623    -9847583.649 8  -7647749.89146  23253946.237    23253953.7214
  22978184.486   -10367834.878 8  -8064839.44546  22978188.948    22978198.9584
  23782270.751    -5188956.064 8  -4030260.63645  23782276.126    23782284.6884
 00  7 13  3 41 30.0000000  0  7 03 25 01 22 20 16 19
  22389044.448   -13860610.529 8 -10774661.25446  22389047.029    22389055.2354
  22282765.113   -15892472.457 8 -12117399.24646  22282766.909    22282773.5684
  21167168.515   -20522684.734 9 -15968058.49147  21167170.346    21167178.1724
  19951318.028   -29104504.240 9 -22659271.00148  19951319.454    19951326.2404
  23268489.299    -9771134.820 8  -7588179.42946  23268493.775    23268501.1624
  22983993.105   -10337327.906 8  -8041067.77746  22983995.422    22984004.9164
  23766693.342    -5270829.245 7  -4094057.92445  23766696.157    23766706.0984
 00  7 13  3 42  0.0000000  0  7 03 25 01 22 20 16 19
  22371842.668   -13950981.853 8 -10845080.38746  22371849.396    22371858.2154
  22293987.137   -15833482.545 8 -12071433.12646  22293992.201    22293999.7554
  21156848.127   -20576902.815 9 -16010306.30347  21156852.438    21156860.8564
  19956080.031   -29079479.644 9 -22639771.31348  19956081.211    19956088.4284
  23283087.768    -9694410.108 8  -7528393.99546  23283093.049    23283101.7534
  22989896.445   -10306303.523 8  -8016892.93846  22989898.848    22989908.1344
  23751119.846    -5352680.497 8  -4157838.07045  23751121.088    23751131.3004
 00  7 13  3 42 30.0000000  0  7 03 25 01 22 20 16 19
  22354704.528   -14041070.774 8 -10915279.46446  22354706.534    22354714.8324
  22305250.599   -15774302.075 8 -12025318.51846  22305253.428    22305261.5474
  21146614.229   -20630694.499 9 -16052221.86447  21146616.671    21146624.0214
  19960930.569   -29053992.487 9 -22619911.18448  19960931.557    19960938.5284
  23297744.709    -9617412.605 8  -7468395.97746  23297745.584    23297754.0264
  22995898.361   -10274763.743 8  -7992316.46846  22995901.312    22995909.5814
  23735549.715    -5434509.269 8  -4221600.68845  23735549.815    23735559.2124
 00  7 13  3 43  0.0000000  0  7 03 25 01 22 20 16 19
  22337613.557   -14130874.486 8 -10985256.34046  22337617.183    22337624.7514
  22316545.560   -15714930.656 8 -11979055.12246  22316551.698    22316559.2254
  21136459.711   -20684057.582 9 -16093803.43447  21136461.889    21136469.5384
  19965868.138   -29028044.179 9 -22599691.71648  19965869.046    19965876.2904
  23312443.251    -9540145.301 8  -7408187.71946  23312449.509    23312457.9014
  23002000.588   -10242710.009 8  -7967339.49946  23002000.431    23002008.7474
  23719979.278    -5516314.935 8  -4285345.31745  23719982.511    23719991.7234
 00  7 13  3 43 30.0000000  0  7 03 25 01 22 20 16 19
  22320576.666   -14220389.917 8 -11055008.56146  22320582.523    22320591.5204
  22327882.191   -15655368.216 8 -11932642.88346  22327885.971    22327893.6364
  21126385.207   -20736989.816 9 -16135049.28147  21126389.378    21126396.8084
  19970891.402   -29001636.209 9 -22579114.06548  19970894.108    19970901.6304
  23327200.453    -9462611.421 8  -7347771.74646  23327202.924    23327212.6284
  23008194.625   -10210144.492 8  -7941963.77146  23008197.618    23008206.1324
  23704416.731    -5598097.049 8  -4349071.62145  23704419.600    23704428.7994
 00  7 13  3 44  0.0000000  0  7 03 25 01 22 20 16 19
  22303603.793   -14309614.503 8 -11124534.15846  22303603.635    22303613.0164
  22339254.994   -15595614.788 8 -11886081.80846  22339256.270    22339264.2094
  21116395.305   -20789489.099 9 -16175957.76847  21116399.181    21116406.5354
  19976004.455   -28974770.554 9 -22558179.77648  19976006.549    19976013.9934
  23342006.799    -9384813.886 8  -7287150.33245  23342006.667    23342015.3674
  23014489.754   -10177068.563 8  -7916190.33246  23014491.354    23014500.5874
  23688860.599    -5679855.236 8  -4412779.22245  23688861.514    23688871.5834
 00  7 13  3 44 30.0000000  0  7 03 25 01 22 20 16 19
  22286678.196   -14398545.167 8 -11193830.71146  22286680.556    22286690.1434
  22350664.660   -15535670.555 8 -11839372.07846  22350664.119    22350672.3974
  21106488.924   -20841553.396 9 -16216527.30747  21106492.113    21106499.0054
  19981203.410   -28947449.207 9 -22536890.40648  19981205.665    19981213.0614
  23356858.953    -9306756.054 8  -7226326.08845  23356860.641    23356869.7474
  23020881.238   -10143484.500 8  -7890020.92846  23020881.959    23020891.5544
  23673302.974    -5761588.712 8  -4476467.61045  23673307.536    23673318.3024
 00  7 13  3 45  0.0000000  0  7 03 25 01 22 20 16 19
  22269807.308   -14487178.917 8 -11262895.90646  22269813.754    22269823.4544
  22362101.518   -15475535.923 8 -11792513.96146  22362107.332    22362115.5074
  21096664.798   -20893180.549 9 -16256756.20447  21096667.636    21096674.6364
  19986488.411   -28919673.726 9 -22515247.17448  19986491.339    19986498.4814
  23371758.520    -9228441.074 8  -7165301.46845  23371764.442    23371772.0784
  23027365.890   -10109393.952 8  -7863456.89346  23027368.994    23027379.3214
  23657756.551    -5843296.866 8  -4540136.23445  23657758.117    23657768.4114
 00  7 13  3 45 30.0000000  0  7 03 25 01 22 20 16 19
  22253003.045   -14575512.617 8 -11331727.29546  22253005.239    22253013.4254
  22373584.052   -15415210.505 8 -11745507.20646  22373586.802    22373594.8204
  21086924.220   -20944368.532 9 -16296642.90047  21086926.580    21086933.9054
  19991862.293   -28891445.547 9 -22493251.18648  19991862.779    19991870.1704
  23386716.701    -9149872.084 8  -7104078.91846  23386715.734    23386724.7024
  23033949.686   -10074799.131 8  -7836499.88746  23033952.980    23033962.5264
  23642210.652    -5924978.969 8  -4603784.59545  23642215.542    23642224.4474
 00  7 13  3 46  0.0000000  0  7 03 25 01 22 20 16 19
  22236250.956   -14663543.725 8 -11400322.94146  22236254.194    22236261.3644
  22385099.522   -15354694.397 8 -11698351.83046  22385102.124    22385110.6654
  21077265.700   -20995115.097 9 -16336185.63547  21077269.678    21077276.9554
  19997316.989   -28862766.332 9 -22470903.74948  19997320.373    19997327.5904
  23401714.277    -9071052.194 8  -7042660.83046  23401715.332    23401723.4194
  23040628.996   -10039701.626 8  -7809151.18346  23040632.569    23040641.1274
  23626676.338    -6006634.695 8  -4667412.36545  23626676.963    23626687.0614
 00  7 13  3 46 30.0000000  0  7 03 25 01 22 20 16 19
  22219559.644   -14751269.215 8 -11468680.41446  22219559.426    22219567.5094
  22396650.009   -15293987.114 8 -11651047.50946  22396654.912    22396663.2434
  21067694.878   -21045418.152 9 -16375382.78547  21067696.951    21067704.9024
  20002860.295   -28833638.077 9 -22448206.40948  20002863.040    20002870.3774
  23416763.520    -8991984.590 8  -6981049.76046  23416760.926    23416769.5474
  23047405.188   -10004103.502 8  -7781412.39546  23047404.529    23047414.5604
  23611142.347    -6088263.441 8  -4731019.12745  23611144.690    23611152.3834
 00  7 13  3 47  0.0000000  0  7 03 25 01 22 20 16 19
  22202922.737   -14838686.052 8 -11536797.37946  22202924.509    22202933.3254
  22408240.157   -15233089.350 8 -11603594.76446  22408243.169    22408251.5754
  21058205.990   -21095275.643 9 -16414232.74847  21058209.455    21058217.5114
  20008488.282   -28804062.823 9 -22425160.75748  20008491.112    20008498.4654
  23431853.354    -8912672.526 8  -6919248.19046  23431853.702    23431861.8544
  23054272.552    -9968006.719 8  -7753285.03346  23054274.467    23054283.6414
  23595611.371    -6169864.481 8  -4794604.29745  23595615.646    23595625.3224
 00  7 13  3 47 30.0000000  0  7 03 25 01 22 20 16 19
  22186343.086   -14925791.629 8 -11604671.79246  22186348.326    22186357.9734
  22419864.935   -15172000.721 8 -11555993.32246  22419867.142    22419876.3574
  21048806.312   -21144685.470 9 -16452733.88147  21048807.147    21048815.1454
  20014201.986   -28774042.084 9 -22401767.97748  20014203.894    20014211.1534
  23446990.813    -8833118.810 8  -6857258.32746  23446992.177    23447000.9344
  23061236.209    -9931413.328 8  -7724770.71246  23061237.418    23061247.5864
  23580086.373    -6251437.003 8  -4858167.23645  23580092.146    23580100.6364
 00  7 13  3 48  0.0000000  0  8 03 25 01 22 31 20 16 19
  22169828.998   -15012583.338 8 -11672301.63346  22169832.556    22169841.3544
  22431529.092   -15110721.333 8 -11508243.23146  22431529.557    22431537.9264
  21039489.621   -21193645.639 9 -16490884.63447  21039490.509    21039498.0904
  20019999.863   -28743577.196 9 -22378029.10748  20020001.426    20020008.4994
  24660302.502    -3990707.30817  -3093700.47155  24660306.910    24660319.0374
  23462173.615    -8753326.930 8  -6795082.89945  23462175.215    23462184.2014
  23068294.454    -9894325.543 8  -7695871.13746  23068295.547    23068305.4654
  23564571.470    -6332980.725 8  -4921707.75145  23564575.853    23564583.5044
 00  7 13  3 48 30.0000000  0  8 03 25 01 22 31 20 16 19
  22153374.117   -15099058.052 8 -11739684.46946  22153378.198    22153386.1764
  22443221.079   -15049251.079 8 -11460344.39546  22443226.931    22443234.9724
  21030256.693   -21242154.116 9 -16528683.42447  21030259.753    21030266.9754
  20025881.540   -28712670.050 9 -22353945.62648  20025882.936    20025890.1204
  24638046.286    -4107730.260 7  -3184887.08045  24638039.967    24638050.7714
  23477401.162    -8673300.104 8  -6732724.37246  23477405.097    23477413.4424
  23075445.503    -9856745.089 8  -7666587.70846  23075446.450    23075456.7314
  23549056.064    -6414495.155 8  -4985225.39045  23549063.765    23549073.4414
 00  7 13  3 49  0.0000000  0  8 03 25 01 22 31 20 16 19
  22136981.573   -15185212.742 8 -11806817.95047  22136983.406    22136991.2874
  22454954.003   -14987589.833 8 -11412296.73446  22454960.590    22454968.7424
  21021111.212   -21290208.781 9 -16566128.59847  21021114.909    21021122.3674
  20031845.810   -28681322.821 9 -22329519.22248  20031848.020    20031855.1114
  24615754.459    -4224789.023 7  -3276101.51344  24615762.279    24615774.4674
  23492678.713    -8593041.164 8  -6670184.98545  23492677.153    23492685.5704
  23082690.543    -9818673.876 8  -7636921.86346  23082692.380    23082701.3454
  23533552.433    -6495979.582 8  -5048719.66645  23533557.968    23533566.0874
 00  7 13  3 49 30.0000000  0  8 03 25 01 22 31 20 16 19
  22120646.619   -15271044.670 8 -11873699.92047  22120649.174    22120658.2344
  22466727.158   -14925738.235 8 -11364100.74946  22466730.057    22466739.3424
  21012051.539   -21337807.605 9 -16603218.56747  21012056.672    21012064.5484
  20037896.438   -28649537.453 9 -22304751.41248  20037896.595    20037903.6484
  24593470.647    -4341881.173 7  -3367341.99545  24593481.543    24593492.7814
  23507994.468    -8512553.427 8  -6607467.31745  23507994.017    23508002.6654
  23090027.465    -9780114.464 8  -7606875.58846  23090029.136    23090038.7834
  23518056.475    -6577433.200 8  -5112189.95845  23518057.054    23518066.1564
 00  7 13  3 50  0.0000000  0  8 03 25 01 22 31 20 16 19
  22104373.236   -15356550.963 8 -11940328.14247  22104377.900    22104386.4774
  22478532.110   -14863695.630 8 -11315755.92946  22478537.480    22478545.4914
  21003083.971   -21384948.786 9 -16639951.93647  21003086.583    21003094.1914
  20044026.552   -28617315.407 9 -22279643.33148  20044028.123    20044035.1634
  24571200.543    -4459003.975 7  -3458606.37445  24571192.897    24571206.1024
  23523347.378    -8431840.130 8  -6544573.88945  23523353.053    23523361.6404
  23097456.705    -9741068.609 8  -7576450.25946  23097459.631    23097468.8224
  23502556.376    -6658855.485 8  -5175635.82045  23502562.649    23502572.6014
 00  7 13  3 50 30.0000000  0  8 03 25 01 22 31 20 16 19
  22088166.375   -15441728.849 8 -12006700.47546  22088169.080    22088177.7154
  22490377.981   -14801462.211 8 -11267262.41446  22490380.025    22490387.9394
  20994200.572   -21431630.262 9 -16676327.09447  20994203.476    20994210.8874
  20050241.504   -28584658.189 9 -22254196.15948  20050242.603    20050249.6474
  24548902.652    -4576154.781 7  -3549892.54745  24548901.793    24548911.8144
  23538756.173    -8350904.413 8  -6481507.17245  23538754.884    23538762.6694
  23104982.065    -9701538.362 8  -7545647.50346  23104981.651    23104991.8044
  23487074.700    -6740245.598 8  -5239056.62146  23487075.378    23487084.2934
 00  7 13  3 51  0.0000000  0  8 03 25 01 22 31 20 16 19
  22072021.012   -15526575.390 8 -12072814.61347  22072023.268    22072031.8744
  22502256.325   -14739037.905 8 -11218620.16546  22502259.076    22502266.6094
  20985406.590   -21477849.717 9 -16712342.24048  20985407.994    20985415.8284
  20056536.481   -28551567.701 9 -22228411.38048  20056539.476    20056546.7704
  24526594.803    -4693331.017 7  -3641198.56445  24526601.502    24526614.4164
  23554196.289    -8269749.582 8  -6418269.69045  23554198.267    23554206.4934
  23112591.012    -9661525.974 8  -7514469.04246  23112596.272    23112605.3744
  23471587.650    -6821602.991 8  -5302451.95246  23471593.149    23471602.2574
 00  7 13  3 51 30.0000000  0  8 03 25 01 22 31 20 16 19
  22055936.326   -15611087.913 8 -12138668.47747  22055940.954    22055949.2304
  22514170.871   -14676422.917 8 -11169829.34646  22514173.946    22514181.8714
  20976698.207   -21523605.159 9 -16747995.81348  20976701.207    20976708.8574
  20062917.698   -28518046.179 9 -22202290.72248  20062918.614    20062925.5534
  24504296.029    -4810529.741 7  -3732522.06645  24504301.180    24504312.6014
  23569679.151    -8188378.712 8  -6354863.87145  23569681.981    23569690.1594
  23120298.856    -9621033.689 8  -7482916.63546  23120302.192    23120310.9084
  23456109.432    -6902927.054 8  -5365821.28645  23456117.505    23456126.1354
 00  7 13  3 52  0.0000000  0  8 03 25 01 22 31 20 16 19
  22039921.801   -15695263.562 8 -12204259.84547  22039922.780    22039930.7744
  22526120.049   -14613617.246 8 -11120889.95346  22526124.908    22526133.5374
  20968080.989   -21568894.552 9 -16783286.23448  20968082.586    20968090.7164
  20069376.575   -28484095.506 9 -22175835.66648  20069379.175    20069386.2334
  24481989.765    -4927748.112 7  -3823860.87145  24481994.116    24482003.6874
  23585205.457    -8106794.709 8  -6291291.99446  23585207.786    23585216.5774
  23128092.444    -9580063.499 8  -7450991.82746  23128097.573    23128107.1884
  23440644.877    -6984217.045 8  -5429164.07945  23440647.459    23440658.4614
 00  7 13  3 52 30.0000000  0  8 03 25 01 22 31 20 16 19
  22023966.486   -15779099.526 8 -12269586.52247  22023969.463    22023977.6814
  22538110.894   -14550620.839 8 -11071801.92846  22538113.229    22538121.0894
  20959549.081   -21613716.041 9 -16818212.05948  20959553.337    20959561.2224
  20075918.955   -28449717.130 9 -22149047.33048  20075921.292    20075928.5144
  24459672.549    -5044983.704 7  -3915213.14145  24459685.464    24459696.3644
  23600768.368    -8025000.966 8  -6227556.66345  23600771.377    23600780.5954
  23135982.680    -9538617.479 8  -7418696.25746  23135984.402    23135994.0774
  23425186.076    -7065472.297 8  -5492479.76445  23425185.653    23425196.1734
 00  7 13  3 53  0.0000000  0  8 03 25 01 22 31 20 16 19
  22008077.986   -15862592.890 8 -12334646.24147  22008081.143    22008089.2404
  22550132.937   -14487433.954 8 -11022565.46846  22550136.955    22550145.5544
  20951110.199   -21658067.769 9 -16852771.82648  20951113.347    20951121.5264
  20082543.526   -28414912.720 9 -22121927.02148  20082544.432    20082551.4134
  24437376.003    -5162233.748 8  -4006576.66745  24437373.508    24437383.7954
  23616374.505    -7943000.704 8  -6163660.44645  23616377.010    23616384.7424
  23143962.780    -9496698.363 8  -7386032.02446  23143961.644    23143970.7644
  23409726.460    -7146692.092 8  -5555767.83646  23409730.885    23409740.7034
 00  7 13  3 53 30.0000000  0  8 03 25 01 22 31 20 16 19
  21992254.486   -15945740.980 8 -12399436.91147  21992258.467    21992266.6544
  22562193.837   -14424056.465 8 -10973180.49746  22562198.020    22562206.0704
  20942760.264   -21701947.957 9 -16886964.15648  20942763.015    20942771.0374
  20089246.300   -28379684.258 9 -22094476.28248  20089248.197    20089255.1854
  24415065.997    -5279495.609 8  -4097949.40745  24415059.265    24415069.6954
  23632014.631    -7860796.968 8  -6099605.67245  23632018.905    23632028.0444
  23152023.887    -9454307.696 8  -7353000.38246  23152028.191    23152037.2614
  23394276.698    -7227875.774 8  -5619027.76246  23394281.701    23394291.2284
 00  7 13  3 54  0.0000000  0  8 03 25 01 22 31 20 16 19
  21976497.442   -16028541.170 8 -12463956.48147  21976501.890    21976510.2654
  22574293.486   -14360488.147 8 -10923646.84446  22574294.889    22574303.1574
  20934499.296   -21745354.345 9 -16920787.29748  20934503.244    20934511.3114
  20096027.902   -28344033.973 9 -22066696.85048  20096031.603    20096039.1884
  24392738.811    -5396766.519 7  -4189329.15445  24392742.342    24392753.2604
  23647700.248    -7778393.138 8  -6035394.96145  23647700.413    23647708.2634
  23160183.251    -9411448.018 8  -7319603.22446  23160184.884    23160193.5874
  23378840.047    -7309022.773 8  -5682259.08946  23378840.524    23378849.3474
 00  7 13  3 54 30.0000000  0  8 03 25 01 22 31 20 16 19
  21960811.412   -16110990.549 8 -12528202.70147  21960812.686    21960821.1554
  22586425.743   -14296729.400 8 -10873964.80646  22586427.800    22586435.3734
  20926330.842   -21788285.260 9 -16954239.93148  20926333.634    20926341.2944
  20102893.602   -28307963.751 9 -22038590.19548  20102895.649    20102903.0844
  24370430.349    -5514043.586 7  -4280713.72645  24370424.863    24370436.5814
  23663413.093    -7695792.202 8  -5971030.66045  23663418.366    23663427.7454
  23168430.365    -9368121.848 8  -7285842.57046  23168429.450    23168438.4604
  23363402.384    -7390132.196 8  -5745461.18646  23363406.302    23363414.6444
 00  7 13  3 55  0.0000000  0  8 03 25 01 22 31 20 16 19
  21945184.489   -16193086.287 8 -12592173.35247  21945190.487    21945199.0764
  22598593.478   -14232780.214 8 -10824134.37346  22598596.294    22598604.8164
  20918251.777   -21830738.704 9 -16987320.52048  20918255.301    20918263.1364
  20109837.243   -28271474.997 9 -22010157.41148  20109839.477    20109846.7324
  24348093.683    -5631324.175 7  -4372101.01545  24348106.733    24348117.6304
  23679176.138    -7612997.298 8  -5906515.24645  23679174.108    23679182.2454
  23176760.440    -9324330.895 8  -7251719.80546  23176763.290    23176772.9014
  23347973.434    -7471203.608 8  -5808633.61246  23347976.889    23347987.6464
